[[{"header":{"parameterUnit":"m.s-1","parameterCategory":1,"la1":30.6,"la2":29.2853,"lo1":-89.7004,"lo2":-87.6739,"dy":0.0162,"dx":0.0183,"nx":112,"ny":82,"refTime":"2023-10-23T18:00:00:Z","depth":0,"parameterNumber":2,"parameterNumberName":"U-component_of_WINDS"},"data":[0.0,0.0,0.0,0.0,0.0,0.0,0.0,0.0,0.0,0.0,0.0,0.0,0.0,0.0,0.0,0.0,0.0,0.0,0.0,0.0,0.0,0.0,0.0,0.0,0.0,0.0,0.0,0.0,0.0,0.0,0.0,0.0,0.0,0.0,0.0,0.0,0.0,0.0,0.0,0.0,0.0,0.0,0.0,0.0,0.0,0.0,0.0,0.0,0.0,0.0,0.0,0.0,0.0,0.0,0.0,0.0,0.0,0.0,0.0,0.0,0.0,0.0,0.0,0.0,0.0,0.0,0.0,0.0,0.0,0.0,0.0,0.0,0.0,0.0,0.0,0.0,0.0,0.0,0.0,0.0,0.0,0.0,0.0,0.0,0.0,0.0,0.0,0.0,0.0,0.0,-2.7586,-2.8443,-2.9884,-3.0407,-2.9379,-2.8526,-2.7462,-2.6101,0.0,0.0,0.0,0.0,0.0,0.0,0.0,0.0,0.0,0.0,0.0,0.0,0.0,0.0,0.0,0.0,0.0,0.0,0.0,0.0,0.0,0.0,0.0,0.0,0.0,0.0,0.0,0.0,0.0,0.0,0.0,0.0,0.0,0.0,0.0,0.0,0.0,0.0,0.0,0.0,0.0,0.0,0.0,0.0,0.0,0.0,0.0,0.0,0.0,0.0,0.0,0.0,0.0,0.0,0.0,0.0,0.0,0.0,0.0,0.0,0.0,0.0,0.0,0.0,0.0,0.0,0.0,0.0,0.0,0.0,0.0,0.0,0.0,0.0,0.0,0.0,0.0,0.0,0.0,0.0,0.0,0.0,0.0,0.0,0.0,0.0,0.0,0.0,0.0,0.0,0.0,0.0,0.0,0.0,0.0,0.0,0.0,0.0,0.0,0.0,0.0,0.0,0.0,0.0,-2.8545,-2.995,-3.0085,-2.9856,-2.9321,-2.7826,-2.6577,-2.5727,0.0,0.0,0.0,0.0,0.0,0.0,0.0,0.0,0.0,0.0,0.0,0.0,0.0,0.0,0.0,0.0,0.0,0.0,0.0,0.0,0.0,0.0,0.0,0.0,0.0,0.0,0.0,0.0,0.0,0.0,0.0,0.0,0.0,0.0,0.0,0.0,0.0,0.0,0.0,0.0,0.0,0.0,0.0,0.0,0.0,0.0,0.0,0.0,0.0,0.0,0.0,0.0,0.0,0.0,0.0,0.0,0.0,0.0,0.0,0.0,0.0,0.0,0.0,0.0,0.0,0.0,0.0,0.0,0.0,0.0,0.0,0.0,0.0,0.0,0.0,0.0,0.0,0.0,0.0,0.0,0.0,0.0,0.0,0.0,0.0,0.0,0.0,0.0,0.0,0.0,0.0,0.0,0.0,0.0,0.0,0.0,0.0,0.0,0.0,0.0,0.0,0.0,0.0,-2.7751,-2.8492,-2.9152,-2.9428,-2.9337,-2.8707,-2.7423,-2.6284,-2.5398,-2.4645,0.0,0.0,0.0,0.0,0.0,0.0,0.0,0.0,0.0,0.0,0.0,0.0,0.0,0.0,0.0,0.0,0.0,0.0,0.0,0.0,0.0,0.0,0.0,0.0,0.0,0.0,0.0,0.0,0.0,0.0,0.0,0.0,0.0,0.0,0.0,0.0,0.0,0.0,0.0,0.0,0.0,0.0,0.0,0.0,0.0,0.0,0.0,0.0,0.0,0.0,0.0,0.0,0.0,0.0,0.0,0.0,0.0,0.0,0.0,0.0,0.0,0.0,0.0,0.0,0.0,0.0,0.0,0.0,0.0,0.0,0.0,0.0,0.0,0.0,0.0,0.0,0.0,0.0,0.0,0.0,0.0,0.0,0.0,0.0,0.0,0.0,0.0,0.0,0.0,0.0,0.0,0.0,0.0,0.0,0.0,0.0,0.0,0.0,0.0,0.0,0.0,0.0,-2.772,-2.8057,-2.8446,-2.8822,-2.8794,-2.813,-2.7135,-2.6064,-2.5046,-2.4174,0.0,0.0,0.0,0.0,0.0,0.0,0.0,0.0,0.0,0.0,0.0,0.0,0.0,0.0,0.0,0.0,0.0,0.0,0.0,0.0,0.0,0.0,0.0,0.0,0.0,0.0,0.0,0.0,0.0,0.0,0.0,0.0,0.0,0.0,0.0,0.0,0.0,0.0,0.0,0.0,0.0,0.0,0.0,0.0,0.0,0.0,0.0,0.0,0.0,0.0,0.0,0.0,0.0,0.0,0.0,0.0,0.0,0.0,0.0,0.0,0.0,0.0,0.0,0.0,0.0,0.0,0.0,0.0,0.0,0.0,0.0,0.0,0.0,0.0,0.0,0.0,0.0,0.0,0.0,0.0,0.0,0.0,0.0,0.0,0.0,0.0,0.0,0.0,0.0,0.0,0.0,0.0,0.0,0.0,0.0,0.0,0.0,0.0,0.0,0.0,0.0,0.0,-2.7634,-2.7793,-2.9075,-2.8619,-2.813,-2.8057,-2.6866,-2.5662,-2.4723,-2.4247,0.0,0.0,0.0,0.0,0.0,0.0,0.0,0.0,0.0,0.0,0.0,0.0,0.0,0.0,0.0,0.0,0.0,0.0,0.0,0.0,0.0,0.0,0.0,0.0,0.0,0.0,0.0,0.0,0.0,0.0,0.0,0.0,0.0,0.0,0.0,0.0,0.0,0.0,0.0,0.0,0.0,0.0,0.0,0.0,0.0,0.0,0.0,0.0,0.0,0.0,0.0,0.0,0.0,0.0,0.0,0.0,0.0,0.0,0.0,0.0,0.0,0.0,0.0,0.0,0.0,0.0,0.0,0.0,0.0,0.0,0.0,0.0,0.0,0.0,0.0,0.0,0.0,0.0,0.0,0.0,0.0,0.0,0.0,0.0,0.0,0.0,0.0,0.0,0.0,0.0,0.0,0.0,0.0,0.0,0.0,0.0,0.0,0.0,0.0,0.0,0.0,0.0,-2.6838,-2.6993,-2.7519,-2.7446,-2.742,-2.742,-2.6526,-2.5769,-2.5213,0.0,0.0,0.0,0.0,0.0,0.0,0.0,0.0,0.0,0.0,0.0,0.0,0.0,0.0,0.0,0.0,0.0,0.0,0.0,0.0,0.0,0.0,0.0,0.0,0.0,0.0,0.0,0.0,0.0,0.0,0.0,0.0,0.0,0.0,0.0,0.0,0.0,0.0,0.0,0.0,0.0,0.0,0.0,0.0,0.0,0.0,0.0,0.0,0.0,0.0,0.0,0.0,0.0,0.0,0.0,0.0,0.0,0.0,0.0,0.0,0.0,0.0,0.0,0.0,0.0,0.0,0.0,0.0,0.0,0.0,0.0,0.0,0.0,0.0,0.0,0.0,0.0,0.0,0.0,0.0,0.0,0.0,0.0,0.0,0.0,0.0,0.0,0.0,0.0,0.0,0.0,0.0,0.0,0.0,0.0,0.0,0.0,0.0,0.0,0.0,0.0,0.0,-2.6124,-2.6209,-2.6369,-2.6645,-2.6852,-2.6983,-2.6983,-2.6296,-2.5769,-2.5535,0.0,0.0,0.0,0.0,0.0,0.0,0.0,0.0,0.0,0.0,0.0,0.0,0.0,0.0,0.0,0.0,0.0,0.0,0.0,0.0,0.0,0.0,0.0,0.0,0.0,0.0,0.0,0.0,0.0,0.0,0.0,0.0,0.0,0.0,0.0,0.0,0.0,0.0,0.0,0.0,0.0,0.0,0.0,0.0,0.0,0.0,0.0,0.0,0.0,0.0,0.0,0.0,0.0,0.0,0.0,0.0,0.0,0.0,0.0,0.0,0.0,0.0,0.0,0.0,0.0,0.0,0.0,0.0,0.0,0.0,0.0,0.0,0.0,0.0,0.0,0.0,0.0,0.0,0.0,0.0,0.0,0.0,0.0,0.0,0.0,0.0,0.0,0.0,0.0,0.0,0.0,0.0,0.0,0.0,0.0,0.0,0.0,0.0,0.0,0.0,0.0,0.0,-2.6375,-2.5879,-2.59,-2.6881,-2.6983,-2.6983,-2.6983,-2.6091,-2.5535,0.0,0.0,0.0,0.0,0.0,0.0,0.0,0.0,0.0,0.0,0.0,0.0,0.0,0.0,0.0,0.0,0.0,0.0,0.0,0.0,0.0,0.0,0.0,0.0,0.0,0.0,0.0,0.0,0.0,0.0,0.0,0.0,0.0,0.0,0.0,0.0,0.0,0.0,0.0,0.0,0.0,0.0,0.0,0.0,0.0,0.0,0.0,0.0,0.0,0.0,0.0,0.0,0.0,0.0,0.0,0.0,0.0,0.0,0.0,0.0,0.0,0.0,0.0,0.0,0.0,0.0,0.0,0.0,0.0,0.0,0.0,0.0,0.0,0.0,0.0,0.0,0.0,0.0,0.0,0.0,0.0,0.0,0.0,0.0,0.0,0.0,0.0,0.0,0.0,0.0,0.0,0.0,0.0,0.0,0.0,0.0,0.0,0.0,0.0,0.0,0.0,0.0,0.0,-2.6032,-2.5736,-2.59,-2.6881,-2.6983,-2.6983,-2.6983,-2.631,-2.5769,-2.548,0.0,0.0,0.0,0.0,0.0,0.0,0.0,0.0,0.0,0.0,0.0,0.0,0.0,0.0,0.0,0.0,0.0,0.0,0.0,0.0,0.0,0.0,0.0,0.0,0.0,0.0,0.0,0.0,0.0,0.0,0.0,0.0,0.0,0.0,0.0,0.0,0.0,0.0,0.0,0.0,0.0,0.0,0.0,0.0,0.0,0.0,0.0,0.0,0.0,0.0,0.0,0.0,0.0,0.0,0.0,0.0,0.0,0.0,0.0,0.0,0.0,0.0,0.0,0.0,0.0,0.0,0.0,0.0,0.0,0.0,0.0,0.0,0.0,0.0,0.0,0.0,0.0,0.0,0.0,0.0,0.0,0.0,0.0,0.0,0.0,0.0,0.0,0.0,0.0,0.0,0.0,0.0,0.0,0.0,0.0,0.0,0.0,0.0,0.0,0.0,0.0,0.0,-2.593,-2.6076,-2.6383,-2.7115,-2.7305,-2.732,-2.7203,-2.6588,-2.6076,-2.574,0.0,0.0,0.0,0.0,0.0,0.0,0.0,0.0,0.0,0.0,0.0,0.0,0.0,0.0,0.0,0.0,0.0,0.0,0.0,0.0,0.0,0.0,0.0,0.0,0.0,0.0,0.0,0.0,0.0,0.0,0.0,0.0,0.0,0.0,0.0,0.0,0.0,0.0,0.0,0.0,0.0,0.0,0.0,0.0,0.0,0.0,0.0,0.0,0.0,0.0,0.0,0.0,0.0,0.0,0.0,0.0,0.0,0.0,0.0,0.0,0.0,0.0,0.0,0.0,0.0,0.0,0.0,0.0,0.0,0.0,0.0,0.0,0.0,0.0,0.0,0.0,0.0,0.0,0.0,0.0,0.0,0.0,0.0,0.0,0.0,0.0,0.0,0.0,0.0,0.0,0.0,0.0,0.0,0.0,0.0,0.0,0.0,0.0,0.0,0.0,0.0,0.0,-2.6018,-2.6603,-2.713,-2.7481,-2.7803,-2.7876,-2.7554,-2.6954,-2.6427,-2.6047,0.0,0.0,0.0,0.0,0.0,0.0,0.0,0.0,0.0,0.0,0.0,0.0,0.0,0.0,0.0,0.0,0.0,0.0,0.0,0.0,0.0,0.0,0.0,0.0,0.0,0.0,0.0,0.0,0.0,0.0,0.0,0.0,0.0,0.0,0.0,0.0,0.0,0.0,0.0,0.0,0.0,0.0,0.0,0.0,0.0,0.0,0.0,0.0,0.0,0.0,0.0,0.0,0.0,0.0,0.0,0.0,0.0,0.0,0.0,0.0,-2.5174,-2.5255,0.0,0.0,0.0,0.0,0.0,0.0,0.0,0.0,0.0,0.0,0.0,0.0,0.0,0.0,0.0,0.0,0.0,0.0,0.0,0.0,0.0,0.0,0.0,0.0,0.0,0.0,0.0,0.0,0.0,0.0,0.0,0.0,0.0,0.0,0.0,0.0,0.0,0.0,0.0,0.0,-2.6325,-2.6749,-2.7217,-2.7788,-2.8063,-2.8122,-2.7876,-2.7495,-2.691,-2.6061,-2.511,0.0,0.0,0.0,0.0,0.0,0.0,0.0,0.0,0.0,0.0,0.0,0.0,0.0,0.0,0.0,0.0,0.0,0.0,0.0,0.0,0.0,0.0,0.0,0.0,0.0,0.0,0.0,0.0,0.0,0.0,0.0,0.0,0.0,0.0,0.0,0.0,0.0,0.0,0.0,0.0,0.0,0.0,0.0,0.0,0.0,0.0,0.0,0.0,0.0,0.0,0.0,0.0,0.0,0.0,0.0,0.0,0.0,0.0,0.0,-2.5251,-2.5119,0.0,0.0,0.0,0.0,0.0,0.0,0.0,0.0,0.0,0.0,0.0,0.0,0.0,0.0,0.0,0.0,0.0,0.0,0.0,0.0,0.0,0.0,0.0,0.0,0.0,0.0,0.0,0.0,0.0,0.0,0.0,0.0,0.0,0.0,0.0,0.0,0.0,0.0,0.0,0.0,-2.6457,-2.7188,-2.7817,-2.8078,-2.8461,-2.8593,-2.8417,-2.7978,-2.7422,-2.6764,-2.5513,0.0,0.0,0.0,0.0,0.0,0.0,0.0,0.0,0.0,0.0,0.0,0.0,0.0,0.0,0.0,0.0,0.0,0.0,0.0,0.0,0.0,0.0,0.0,0.0,0.0,0.0,0.0,0.0,0.0,0.0,0.0,0.0,0.0,0.0,0.0,0.0,0.0,0.0,0.0,0.0,0.0,0.0,0.0,0.0,0.0,0.0,0.0,0.0,0.0,0.0,0.0,0.0,0.0,-2.5842,-2.6003,-2.6266,-2.6325,-2.65,-2.6705,-2.5915,-2.5461,-2.5369,-2.5242,0.0,0.0,0.0,0.0,0.0,0.0,0.0,0.0,0.0,0.0,0.0,0.0,0.0,0.0,0.0,0.0,0.0,0.0,0.0,0.0,0.0,0.0,-2.6805,-2.6486,-2.6696,-2.6749,-2.6388,0.0,0.0,0.0,0.0,0.0,0.0,0.0,0.0,0.0,0.0,0.0,-2.6574,-2.7671,-2.8461,-2.8505,-2.8798,-2.8959,-2.8822,-2.8308,-2.7842,-2.7287,-2.5913,-2.4872,0.0,0.0,0.0,0.0,0.0,0.0,0.0,0.0,0.0,0.0,0.0,0.0,0.0,0.0,0.0,0.0,0.0,0.0,0.0,0.0,0.0,0.0,0.0,0.0,0.0,0.0,0.0,0.0,0.0,0.0,0.0,0.0,-2.3355,-2.323,0.0,0.0,0.0,0.0,0.0,0.0,0.0,0.0,0.0,0.0,0.0,0.0,0.0,-2.6032,-2.631,-2.6588,-2.6764,-2.6808,-2.7086,-2.7247,-2.7291,-2.7569,-2.764,-2.7684,-2.7553,0.0,-2.6296,-2.6003,0.0,0.0,0.0,0.0,0.0,0.0,0.0,0.0,0.0,0.0,0.0,0.0,0.0,0.0,0.0,0.0,0.0,0.0,0.0,0.0,0.0,0.0,-2.7144,-2.7332,-2.7429,-2.7493,-2.7417,-2.6594,-2.5723,-2.5498,-2.5154,-2.5092,0.0,0.0,0.0,0.0,0.0,0.0,-2.6896,-2.7803,-2.8534,-2.8798,-2.912,-2.905,-2.846,-2.8525,-2.7997,-2.6467,-2.5856,-2.5128,-2.3994,-2.3577,0.0,0.0,0.0,0.0,0.0,0.0,0.0,0.0,0.0,0.0,0.0,0.0,0.0,0.0,0.0,0.0,0.0,0.0,0.0,0.0,0.0,0.0,0.0,0.0,0.0,0.0,0.0,0.0,0.0,-2.331,-2.3515,-2.3149,-2.3427,-2.3515,0.0,0.0,0.0,0.0,0.0,0.0,0.0,0.0,0.0,-2.5637,-2.6252,-2.672,-2.7042,-2.7188,-2.7452,-2.7803,-2.7949,-2.811,-2.8286,-2.8608,-2.8754,-2.8769,-2.8819,-2.8452,-2.7672,-2.6821,-2.6171,-2.5709,0.0,0.0,0.0,0.0,-2.5116,-2.5144,-2.5338,-2.5363,-2.5321,-2.5294,0.0,0.0,0.0,0.0,0.0,0.0,0.0,-2.6608,-2.6856,-2.7089,-2.7272,-2.7171,-2.7321,-2.7403,-2.7159,-2.6775,-2.6328,-2.608,-2.5737,-2.5356,-2.5157,-2.4899,0.0,0.0,0.0,-2.6355,-2.6965,-2.7705,-2.8368,-2.8682,-2.8839,-2.8859,-2.874,-2.8307,-2.7833,-2.7311,-2.6301,-2.5391,-2.4674,-2.3981,-2.3502,0.0,0.0,0.0,0.0,0.0,0.0,0.0,0.0,0.0,0.0,0.0,0.0,0.0,0.0,0.0,0.0,0.0,0.0,0.0,0.0,0.0,0.0,0.0,0.0,0.0,0.0,0.0,0.0,-2.3588,-2.394,-2.3193,-2.3837,-2.4042,0.0,0.0,0.0,0.0,0.0,0.0,-2.5099,-2.5516,-2.5981,-2.6489,-2.7114,-2.7553,-2.7813,-2.79,-2.8177,-2.8579,-2.866,-2.8848,-2.908,-2.9485,-2.9659,-2.9688,-2.9753,-2.9488,-2.8892,-2.7628,-2.6748,-2.6166,-2.5733,-2.5419,-2.5321,-2.5566,-2.5677,-2.5677,-2.606,-2.604,-2.5888,-2.5736,-2.5658,-2.5538,-2.5135,0.0,0.0,0.0,0.0,-2.6793,-2.7021,-2.7309,-2.7392,-2.7229,-2.7335,-2.7428,-2.7201,-2.7094,-2.6948,-2.6757,-2.6301,-2.5834,-2.5363,-2.5028,0.0,-2.5014,-2.5629,-2.6327,-2.7038,-2.7722,-2.8305,-2.8448,-2.8476,-2.856,-2.8715,-2.8106,-2.7745,-2.7665,-2.6594,-2.5745,-2.5228,-2.4407,-2.3856,-2.3542,0.0,0.0,0.0,0.0,0.0,0.0,0.0,0.0,0.0,0.0,0.0,0.0,0.0,0.0,0.0,0.0,0.0,0.0,0.0,0.0,0.0,0.0,0.0,0.0,0.0,0.0,0.0,0.0,0.0,-2.3223,-2.4232,0.0,0.0,0.0,0.0,-2.4328,-2.4299,-2.454,-2.5182,-2.5939,-2.6467,-2.6578,-2.8014,-2.8724,-2.8647,-2.8962,-2.912,-2.9163,-2.9337,-2.9467,-2.9495,-3.0099,-3.0365,-3.0379,-3.0321,-3.0153,-2.9775,-2.8462,-2.7583,-2.6969,-2.6382,-2.6327,-2.646,-2.5821,-2.593,-2.6407,-2.6138,-2.6157,-2.6425,-2.668,-2.6635,-2.6298,-2.5711,-2.5847,0.0,0.0,-2.6525,-2.7035,-2.723,-2.7524,-2.7722,-2.81,-2.8167,-2.8181,-2.8167,-2.7856,-2.7552,-2.7075,-2.6717,-2.6479,-2.6468,0.0,-2.6019,-2.5667,-2.6466,-2.7066,-2.7122,-2.7904,-2.8462,-2.8476,-2.8476,-2.8314,-2.803,-2.8167,-2.7771,-2.6546,-2.6613,-2.6226,-2.5179,-2.4756,-2.4315,-2.3812,-2.3447,0.0,0.0,0.0,0.0,0.0,0.0,0.0,0.0,0.0,0.0,0.0,0.0,0.0,0.0,0.0,0.0,0.0,0.0,0.0,0.0,0.0,0.0,0.0,0.0,0.0,0.0,0.0,0.0,-2.4573,-2.5336,0.0,-2.4691,-2.4693,-2.489,-2.5199,-2.5363,-2.582,-2.6717,-2.7024,-2.7361,-2.7806,-2.8349,-2.8797,-2.9238,-2.9154,-2.9408,-3.0001,-2.9846,-2.9873,-3.0083,-3.0503,-3.0587,-3.0419,-3.0474,-3.0276,-2.9721,-2.9231,-2.8549,-2.7769,-2.7119,-2.6836,-2.6768,-2.6691,-2.6652,-2.6719,-2.7028,-2.7028,-2.6934,-2.6854,-2.664,-2.6435,-2.6219,-2.6229,-2.6415,-2.6745,-2.7041,-2.7338,-2.7765,-2.7993,-2.8003,-2.8207,-2.8221,-2.8221,-2.8221,-2.814,-2.798,-2.7823,-2.7216,-2.665,-2.6524,-2.6225,-2.6063,-2.6144,-2.6429,-2.6836,-2.7405,-2.7758,-2.8111,-2.8302,-2.8329,-2.8246,-2.8079,-2.7823,-2.7525,-2.7241,-2.68,-2.636,-2.5932,-2.5277,-2.473,-2.4342,-2.3861,-2.326,0.0,0.0,0.0,0.0,0.0,0.0,0.0,0.0,0.0,0.0,0.0,0.0,0.0,0.0,0.0,0.0,0.0,0.0,0.0,0.0,0.0,0.0,0.0,0.0,0.0,-2.4689,-2.5612,-2.5314,-2.6149,-2.6457,-2.5569,-2.5561,-2.5797,-2.6115,-2.6254,-2.6713,-2.7602,-2.7803,-2.808,-2.8524,-2.8854,-2.9188,-2.9535,-2.9341,-2.9549,-3.0146,-2.9876,-2.9845,-3.0138,-3.0442,-3.047,-3.0216,-3.0363,-3.0131,-2.9778,-2.9534,-2.9192,-2.8609,-2.7953,-2.7602,-2.7428,-2.7522,-2.7442,-2.7321,-2.7709,-2.7722,-2.7509,-2.7215,-2.6987,-2.6814,-2.672,-2.668,-2.6787,-2.7281,-2.7415,-2.7522,-2.81,-2.8221,-2.8248,-2.827,-2.8301,-2.8261,-2.8283,-2.8301,-2.8221,-2.8221,-2.7669,-2.7175,-2.6881,-2.6667,-2.6573,-2.6667,-2.6774,-2.7041,-2.7629,-2.7789,-2.7923,-2.8207,-2.8221,-2.8221,-2.8221,-2.7696,-2.7455,-2.7549,-2.6734,-2.6199,-2.6092,-2.5344,-2.4836,-2.4562,-2.3968,-2.3327,-2.2712,0.0,0.0,0.0,0.0,0.0,0.0,0.0,0.0,0.0,0.0,0.0,0.0,0.0,0.0,0.0,0.0,0.0,0.0,0.0,0.0,0.0,0.0,0.0,-2.3398,-2.5084,-2.6033,-2.5388,-2.6641,-2.7198,-2.6246,-2.6383,-2.6694,-2.6901,-2.688,-2.7134,-2.7709,-2.8151,-2.8422,-2.8604,-2.9446,-2.984,-2.9727,-2.964,-2.9727,-2.9667,-2.9616,-2.9486,-2.9499,-2.978,-2.9913,-2.9913,-2.9913,-2.9913,-2.99,-2.9619,-2.9499,-2.9446,-2.8858,-2.8617,-2.8577,-2.8283,-2.8248,-2.8248,-2.8248,-2.8248,-2.8194,-2.7802,-2.7722,-2.7669,-2.7375,-2.7295,-2.7348,-2.7629,-2.7722,-2.7789,-2.8154,-2.8234,-2.8315,-2.8537,-2.8364,-2.823,-2.8537,-2.8364,-2.8221,-2.8221,-2.8221,-2.814,-2.7762,-2.7709,-2.7615,-2.7335,-2.7535,0.0,-2.7709,-2.7963,-2.8221,-2.8221,-2.8221,-2.8221,-2.8221,-2.7856,-2.7562,-2.7268,-2.6506,-2.5812,-2.5518,-2.4943,-2.4636,-2.4623,-2.3781,-2.3046,-2.2432,0.0,0.0,0.0,0.0,0.0,0.0,0.0,0.0,0.0,0.0,0.0,0.0,0.0,0.0,0.0,0.0,0.0,0.0,0.0,0.0,0.0,-2.3474,-2.4327,-2.4693,-2.5903,-2.6981,-2.7371,-2.7824,-2.8085,-2.7946,-2.7956,-2.8077,-2.8157,-2.8154,-2.8283,-2.8657,-2.8426,-2.8466,-2.8898,-2.8969,-2.919,-2.9528,-2.9313,-2.9421,-2.9851,-2.9628,-2.9593,-2.9806,-2.9887,-2.9913,-2.9913,-2.9913,-2.9913,-2.9913,-2.9833,-2.9793,-2.974,-2.9152,-2.8791,-2.8617,-2.8751,-2.8657,-2.8484,-2.8484,-2.8484,-2.843,-2.8123,-2.8177,-2.8297,-2.7989,-2.798,-2.8006,-2.8003,-2.819,-2.8323,-2.8261,-2.831,-2.8497,-2.8591,-2.8364,-2.823,-2.8537,-2.8364,-2.8221,-2.8221,-2.8221,-2.8207,-2.8114,-2.8016,-2.8073,-2.7993,-2.806,-2.8016,-2.8016,-2.8181,-2.8221,-2.8221,-2.8221,-2.8221,-2.8221,-2.7682,-2.7255,-2.6961,-2.6119,-2.5598,-2.5518,-2.4943,-2.4543,-2.4329,-2.3875,-2.3354,0.0,0.0,0.0,0.0,0.0,0.0,0.0,0.0,0.0,0.0,0.0,0.0,0.0,0.0,0.0,0.0,0.0,0.0,0.0,0.0,0.0,0.0,-2.4679,-2.5669,-2.6389,-2.6963,-2.7594,-2.8311,-2.8636,-2.8794,-2.8764,-2.8898,-2.8925,-2.8804,-2.8791,-2.8858,-2.9032,-2.8711,-2.8738,-2.9205,-2.9058,-2.9192,-2.9659,-2.9499,-2.9579,-2.9913,-2.9753,-2.9753,-2.9913,-2.9793,-2.9806,-2.9913,-2.978,-2.9806,-2.99,-2.978,-2.974,-2.9713,0.0,0.0,0.0,0.0,-2.8831,-2.8791,-2.8791,-2.8711,-2.8577,-2.839,-2.8457,-2.8551,-2.8315,-2.8315,-2.831,-2.8261,-2.8364,-2.8564,-2.839,-2.8564,-2.8818,-2.8951,-2.8644,-2.8417,-2.8724,-2.8444,-2.8221,-2.8221,-2.8221,0.0,-2.8221,-2.8221,-2.8221,-2.8221,-2.8221,-2.8221,-2.8221,-2.8221,-2.8221,-2.8221,-2.8221,-2.8221,-2.8221,-2.7685,0.0,0.0,0.0,-2.5398,-2.5157,-2.4823,0.0,0.0,0.0,-2.3901,-2.342,-2.3126,0.0,0.0,-2.2365,-2.2298,0.0,0.0,0.0,0.0,0.0,0.0,0.0,0.0,0.0,0.0,0.0,0.0,0.0,0.0,0.0,0.0,-2.6141,-2.6987,-2.8221,-2.807,-2.8096,-2.8644,-2.9165,-2.9392,-2.9165,-2.9406,-2.9472,-2.9205,-2.9192,-2.9192,-2.9192,-2.9152,0.0,0.0,0.0,-2.9686,-3.0007,-2.9953,-2.994,-2.9967,-2.9927,-2.9913,-2.9913,-2.9646,-2.9659,-2.986,-2.9633,-2.9659,-2.9847,-2.9619,-2.9553,-2.9593,-2.9753,-2.9553,-2.9152,-2.8818,-2.8871,-2.9085,-2.9085,0.0,0.0,-2.8671,-2.8684,-2.8644,-2.8337,-2.843,-2.8591,-2.8283,-2.8417,-2.8644,-2.8617,-2.8804,-2.9072,-2.9406,-2.9005,-2.8644,-2.8965,-2.8564,-2.8234,-2.8274,-2.8248,-2.8248,-2.8315,-2.8274,-2.8221,-2.8221,-2.8221,-2.8221,-2.8221,-2.8221,-2.8221,-2.8221,-2.8221,0.0,-2.8221,-2.7629,-2.7281,-2.7228,-2.6146,-2.5264,-2.4716,-2.4716,-2.4596,-2.4315,-2.4556,-2.4543,-2.4249,-2.3995,-2.4168,-2.4703,-2.3287,-2.3073,0.0,0.0,0.0,0.0,0.0,0.0,0.0,0.0,0.0,0.0,0.0,0.0,0.0,0.0,0.0,-2.6101,-2.7149,-2.8221,-2.9098,-2.9179,-2.9179,-2.9299,-2.9419,-2.9553,-2.9726,-3.002,-3.0167,-3.0114,-3.01,-3.01,-3.01,-2.9873,-2.9887,-3.0181,-2.9953,-3.0087,-3.0621,-3.0154,-3.0034,-3.0274,-3.0034,0.0,-2.9913,-2.986,-2.974,-2.9579,-2.9753,-2.9726,-2.9579,-2.9753,-2.998,-3.0127,-2.9459,-2.9579,-3.0047,-2.9513,-2.9352,-2.9392,-2.9392,-2.9366,-2.9272,-2.9032,-2.9125,-2.9259,-2.8951,-2.8911,0.0,-2.8604,-2.8724,-2.8898,-2.8671,-2.8644,-2.8831,-2.9352,-2.8845,-2.8377,-2.8925,-2.8564,-2.8301,-2.847,-2.831,-2.8382,-2.8778,-2.847,-2.8221,-2.8221,-2.8221,-2.8221,-2.8221,-2.8221,-2.8221,-2.8221,-2.8221,-2.8221,-2.8221,-2.7816,-2.7415,-2.6934,-2.6026,-2.5358,-2.501,-2.5224,-2.5211,-2.4917,-2.497,-2.485,-2.4556,-2.4489,-2.477,-2.5317,-2.4329,-2.4075,0.0,0.0,0.0,0.0,0.0,0.0,0.0,0.0,0.0,0.0,0.0,-2.3639,-2.4499,0.0,-2.637,-2.7696,-2.843,-2.9018,-2.9619,-2.97,-2.97,-2.97,-2.9833,-3.0034,-3.0327,-3.0354,-3.0421,-3.0568,-3.0301,-3.0207,-3.0354,-3.0074,-3.0047,-3.0354,-3.0074,-3.006,-3.0354,-3.006,-2.9993,-3.014,-2.998,-2.9847,-2.97,-2.97,-2.9619,-2.9486,-2.9633,-2.97,-2.9713,-2.986,-3.0087,-3.0314,-2.9873,-2.9967,-3.0287,-2.97,-2.9579,-2.97,-2.97,-2.9606,-2.9459,-2.9312,-2.9366,-2.9432,-2.9125,-2.9138,-2.9165,-2.8724,-2.8818,-2.9005,-2.8858,-2.8818,-2.8938,-2.9379,-2.9032,-2.8631,-2.8791,-2.8698,-2.8591,-2.8604,-2.8604,-2.8684,-2.8991,-2.8791,-2.8591,-2.8591,-2.847,-2.843,-2.8577,-2.847,-2.843,-2.8577,-2.8591,-2.8537,-2.839,-2.7963,-2.7509,-2.7068,-2.6493,-2.6106,-2.5959,-2.5945,-2.5879,-2.5732,-2.5732,-2.5732,-2.5732,-2.5732,-2.5959,-2.6373,-2.5945,-2.5732,0.0,0.0,0.0,0.0,0.0,0.0,0.0,-2.2145,-2.2531,-2.3297,-2.3852,-2.4701,-2.6452,-2.6881,-2.7575,-2.9366,-2.9606,-2.9673,-2.9967,-2.9953,-2.9913,-2.9913,-3.0127,-3.0368,-3.0595,-3.0461,-3.0461,-3.0688,-3.0327,-3.0167,-3.0354,-3.0181,-3.0167,-3.0354,-3.0127,-3.0034,-3.0087,-2.9913,-2.9887,-3.0007,-2.9833,-2.9686,-2.9566,-2.9446,-2.9432,-2.9486,-2.9486,-2.9646,-2.9913,-2.9913,-3.0087,-3.0354,-3.0301,-3.0314,-3.0301,-2.9833,-2.9766,-2.9913,-2.9913,-2.9766,-2.9566,-2.9566,-2.9566,-2.9526,-2.9285,-2.9379,-2.9459,-2.8925,-2.8938,-2.9125,-2.9125,-2.9085,-2.9125,-2.9486,-2.9299,-2.8991,-2.8818,-2.8911,-2.8991,-2.8804,-2.8925,-2.9072,-2.9192,-2.9165,-2.9112,-2.9045,-2.8845,-2.8778,-2.9005,-2.8831,-2.8778,-2.9018,-2.9045,-2.8925,-2.8631,-2.8096,-2.7655,-2.7362,-2.7121,-2.6974,-2.6907,-2.668,-2.656,-2.656,-2.656,-2.668,-2.6907,-2.6907,-2.7068,-2.7348,-2.7348,-2.7188,-2.2286,-2.1727,-2.1498,-2.2181,-2.2362,-2.279,0.0,-2.4747,-2.4888,-2.5523,-2.6492,-2.7403,-2.7939,-2.8604,-2.9379,-3.014,-3.0034,-2.9967,-3.0274,-3.0087,-2.9913,-2.9913,-2.994,-2.998,-3.0007,-3.0221,-3.0381,-3.0408,-3.0581,-3.0595,-3.0368,-3.0568,-3.0595,-3.0368,-3.0327,-3.0434,-3.0688,-2.9927,-2.9793,-3.0301,-2.9513,-2.9392,-2.9847,-2.9325,-2.9232,-2.9486,-2.9486,-2.9646,-2.9913,-2.9913,-3.0087,-3.0341,-3.0074,-3.0127,-3.0354,-3.0287,-3.0114,-2.9913,-2.9913,-2.99,-2.9873,-2.9873,-2.9873,-2.986,-2.9833,-2.9847,-2.9806,-2.9472,-2.9406,-2.9432,-2.9432,-2.9245,-2.9179,-2.974,-2.9446,-2.9098,-2.9339,-2.9205,-2.9112,-2.9339,-2.9205,-2.9205,-2.9726,-2.9606,-2.9339,-2.9085,-2.9005,-2.9005,-2.9032,-2.9005,-2.9005,-2.9032,-2.9045,-2.8925,-2.8631,-2.8297,-2.7963,-2.7669,-2.7615,-2.7482,-2.7228,-2.7188,-2.7161,-2.7161,-2.7161,-2.7188,-2.7215,-2.7215,-2.7362,-2.7655,-2.7655,-2.7495,-2.2327,-2.2048,-2.2005,-2.2421,-2.2984,-2.3717,-2.4628,-2.5127,-2.5644,-2.68,-2.7642,-2.847,-2.9373,-2.974,-3.0074,-3.0314,-3.0261,-3.0154,-3.0114,-2.9993,-2.986,-2.9686,-2.9806,-3.0181,-3.0875,-3.0434,-3.0381,-3.1062,-3.0595,-3.0301,-3.0354,-3.0314,-3.0301,-3.0354,-3.0194,-3.0154,-3.0287,-2.9753,-2.9606,-2.9847,-2.9472,-2.9339,-2.9406,-2.9325,-2.9272,-2.9232,-2.9406,-2.9459,-2.9432,-2.978,-2.9887,-2.986,-2.99,-2.9993,-3.01,-3.01,-2.9913,-2.9686,-2.986,-2.9806,-2.9686,-2.986,-2.9913,-2.9913,-2.9913,-2.9913,-2.986,-2.9566,-2.9486,-2.9486,-2.9486,-2.9259,-2.9152,-2.9566,-2.9472,-2.9285,-2.9232,-2.9392,-2.9539,-2.9499,-2.9526,-2.9686,-3.01,-2.9927,-2.9753,-2.9806,-2.9513,-2.9366,-2.9526,-2.9406,-2.9366,-2.9539,-2.9392,-2.9245,-2.9125,-2.8684,-2.8364,-2.823,-2.8056,-2.7909,-2.7859,-2.7859,-2.7859,-2.7859,-2.7859,-2.7859,-2.7859,-2.7859,-2.7843,-2.7963,-2.7963,-2.7896,-2.201,-2.2175,-2.2535,-2.2727,-2.3741,-2.481,-2.5264,-2.5812,-2.6627,-2.803,-2.8657,-2.9299,-3.0394,-3.0528,-3.0501,-3.0581,-3.0461,-3.0287,-3.0074,-2.99,-2.9713,-2.9513,-2.9593,-3.0074,-3.1089,-3.0421,-3.0274,-3.1116,-3.0394,-3.0007,-3.0221,-3.0034,-3.002,-3.0234,-3.0034,-2.9913,-2.9913,-2.9633,-2.9486,-2.9486,-2.9325,-2.9165,-2.9045,-2.9259,-2.9205,-2.8938,-2.9232,-2.9245,-2.9085,-2.9593,-2.9673,-2.9513,-2.9806,-2.9913,-2.9913,-2.9913,-2.978,-2.9633,-2.9847,-2.978,-2.9633,-2.9847,-2.9913,-2.9913,-2.9913,-2.9913,-2.9873,-2.9659,-2.9606,-2.9619,-2.97,-2.9566,-2.9486,-2.978,-2.978,-2.9686,-2.9553,-2.9726,-2.99,-2.986,-2.9887,-3.0034,-3.0408,-3.0167,-3.002,-3.0314,-2.9927,-2.9673,-2.9887,-2.9726,-2.9686,-2.99,-2.9659,-2.9486,-2.9486,-2.9018,-2.8698,-2.8604,-2.839,-2.8315,-2.8234,-2.8221,-2.8221,-2.8221,-2.8221,-2.8221,-2.8221,-2.8221,-2.8221,-2.8221,-2.8221,-2.8221,-2.1238,-2.1783,-2.2685,-2.3588,-2.4823,-2.6211,-2.6987,-2.7642,-2.8404,-2.9606,-2.986,-3.0154,-3.1036,-3.0969,-3.0875,-3.1156,-3.0728,-3.0354,-3.0354,-2.986,-2.9499,-2.9486,-2.9232,-2.9299,-2.9913,-2.994,-2.9927,-2.9967,-2.994,-2.9913,-2.9927,-2.9927,-2.9913,-2.9927,-2.9927,-2.9913,-2.9913,-2.9633,-2.9486,-2.9472,-2.8911,-2.8778,-2.9045,-2.9045,-2.8898,-2.8631,-2.8925,-2.9045,-2.9058,-2.9366,-2.9486,-2.9513,-2.9806,-2.9913,-2.9913,-2.9913,-2.9913,-2.99,-2.9913,-2.9913,-2.99,-2.9913,-2.9913,-2.9913,-2.9913,-2.9913,-2.9913,-2.99,-2.99,-2.9967,-3.0261,-3.0327,-3.0394,-3.0688,-3.0541,-3.0408,-3.0675,-3.0301,-3.0087,-3.0648,-3.0301,-3.01,-3.0675,-3.0301,-3.002,-3.0314,-3.01,-2.99,-2.9913,-2.9913,-2.99,-2.9913,-2.9659,-2.9486,-2.9486,-2.9205,-2.8911,-2.8631,-2.8604,-2.8457,-2.8234,-2.8221,-2.8221,-2.8221,-2.8221,-2.8221,-2.8221,-2.8221,-2.8221,-2.8221,-2.8221,-2.8221,-2.1622,-2.2754,-2.4179,-2.5211,-2.6172,-2.7054,-2.7949,-2.831,-2.8671,-2.9472,-2.9312,-2.9072,-2.9165,-2.9432,-2.9593,-2.9499,-2.9806,-3.014,-3.0327,-3.002,-2.9633,-2.9232,-2.9272,-2.9259,-2.9072,-2.9406,-2.9793,-3.0181,-3.0034,-2.9913,-2.9913,-2.9913,-2.9913,-2.9913,-2.9726,-2.9633,-2.9633,-2.9152,-2.8898,-2.8898,-2.8698,-2.8657,-2.8751,-2.8751,-2.8591,-2.831,-2.8617,-2.8631,-2.8497,-2.9192,-2.9366,-2.9219,-2.9513,-2.9633,-2.9633,-2.9633,-2.9633,-2.9659,-2.9847,-2.9793,-2.9659,-2.986,-2.9913,-2.9913,-2.9913,-3.006,-3.0167,-2.9967,-3.0194,-3.0434,-3.014,-3.0207,-3.0381,-3.0488,-3.0434,-3.0434,-3.0728,-3.0635,-3.0555,-3.0755,-3.0635,-3.0621,-3.1009,-3.0755,-3.0461,-3.0381,-3.0114,-2.9913,-2.9913,-2.9913,-2.9913,-2.9913,-2.9833,-2.9766,-2.9766,-2.9499,-2.9285,-2.9192,-2.8818,-2.8564,-2.8457,-2.8257,-2.8221,-2.8221,-2.8221,-2.8221,-2.8221,-2.8221,-2.8221,-2.8221,-2.8221,-2.8221,-2.2525,-2.3848,-2.5237,-2.6413,-2.7148,-2.7762,-2.8457,-2.8604,-2.8738,-2.9232,-2.8684,-2.8096,-2.8003,-2.8123,-2.819,-2.8003,-2.8617,-2.9272,-2.9673,-2.9379,-2.9098,-2.9045,-2.9018,-2.8858,-2.8484,-2.8885,-2.9366,-2.9847,-2.9806,-2.9766,-2.9766,-2.986,-2.9913,-2.9913,-2.9633,-2.9486,-2.9486,-2.9005,-2.8711,-2.8604,-2.8497,-2.8444,-2.8444,-2.8444,-2.8337,-2.8234,-2.835,-2.8323,-2.8274,-2.8885,-2.9058,-2.8911,-2.9891,-2.9926,-2.9515,-3.0913,-3.1028,-3.047,-3.0074,-3.0226,-3.0533,-3.0025,-3.0348,-3.0808,-3.0214,-3.0565,-3.1083,-3.0402,-3.0863,-3.1391,-3.0603,-3.0528,-3.0702,-3.0808,-3.0742,-3.0755,-3.1036,-3.0942,-3.0849,-3.1062,-3.0942,-3.0915,-3.1316,-3.1142,-3.0849,-3.0555,-3.0354,-3.0194,-3.0087,-2.998,-2.9953,-3.006,-2.998,-2.9913,-2.9913,-2.9753,-2.9593,-2.9486,-2.9125,-2.8831,-2.8617,-2.8417,-2.8341,-2.8234,-2.8221,-2.8221,-2.8221,-2.8221,-2.8221,-2.8221,-2.8221,-2.8221,-2.3901,-2.4943,-2.5892,-2.7028,-2.7819,-2.8315,-2.8537,-2.8577,-2.8617,-2.8898,-2.7989,-2.7228,-2.7468,-2.7108,-2.6787,-2.6814,-2.7348,-2.7989,-2.8604,-2.819,-2.8123,-2.8965,-2.8564,-2.8288,-2.8248,-2.8444,-2.8738,-2.8991,-2.9312,-2.9486,-2.9499,-2.9766,-2.9913,-2.99,-2.9619,-2.9459,-2.9446,-2.9138,-2.8858,-2.8577,-2.8283,-2.8221,-2.8221,-2.8221,-2.8221,-2.8221,-2.8221,-2.8221,-2.8248,-2.8569,-2.869,-2.8974,-3.1038,-3.0823,-2.9754,-3.3456,-3.3837,-3.2266,-3.0657,-3.1376,-3.2514,-3.0602,-3.1315,-3.2601,-3.0985,-3.1671,-3.2628,-3.1354,-3.2029,-3.2927,-3.1607,-3.1303,-3.1477,-3.1854,-3.1611,-3.1397,-3.1786,-3.133,-3.0996,-3.1557,-3.1223,-3.1022,-3.157,-3.1436,-3.1156,-3.0862,-3.0808,-3.0702,-3.0394,-3.0114,-3.0047,-3.0314,-3.0087,-2.9913,-2.9913,-2.9913,-2.9793,-2.9526,-2.9486,-2.9232,-2.8657,-2.8617,-2.847,-2.8261,-2.8234,-2.8234,-2.8248,-2.8234,-2.8221,-2.8221,-2.8221,-2.8221,-2.517,-2.6306,-2.7268,-2.7872,-2.8114,-2.8315,-2.8537,-2.8083,-2.7629,-2.7709,-2.6613,-2.5531,-2.5157,-2.5692,-2.6319,-2.6747,-2.7883,-2.8978,-2.9793,-2.9593,-2.9352,-2.9366,-2.9232,-2.8965,-2.8524,-2.8751,-2.8871,-2.8724,-2.9192,-2.9579,-2.9793,-2.9873,-2.982,-2.9606,-2.9312,-2.9045,-2.8831,-2.8524,-2.8337,-2.8257,-2.8261,-2.8221,-2.8221,-2.8221,-2.8221,-2.8221,-2.8221,-2.8221,-2.8332,-2.9888,-3.0509,-3.0708,-3.2798,-3.343,-3.3105,-3.4117,-3.4391,-3.4283,-3.3787,-3.4145,-3.4432,-3.2602,-3.3471,-3.4921,-3.3069,-3.4172,-3.5558,-3.3503,-3.3582,-3.409,-3.3234,-3.3243,-3.3799,-3.5348,-3.4566,-3.35,-3.3815,-3.2567,-3.149,-3.1637,-3.1543,-3.149,-3.1637,-3.161,-3.145,-3.1156,-3.1116,-3.0929,-3.0421,-3.0301,-3.0194,-3.0047,-2.9967,-2.9913,-2.9913,-2.9913,-2.9887,-2.9806,-2.9606,-2.9312,-2.8951,-2.8724,-2.8577,-2.8484,-2.8257,-2.8341,-2.8484,-2.8341,-2.8221,-2.8221,-2.8221,-2.8221,-2.6213,-2.7108,-2.7762,-2.8154,-2.8127,-2.7923,-2.7843,-2.7335,-2.6774,-2.6386,-2.5344,-2.4369,-2.3901,-2.4569,-2.5291,-2.5625,-2.7014,-2.8377,-2.9259,-2.9245,-2.9219,-2.9459,-2.9366,-2.9165,-2.8831,-2.8951,-2.9032,-2.8991,-2.9299,-2.9553,-2.9713,-2.9847,-2.978,-2.9499,-2.9192,-2.8918,-2.8659,-2.8399,-2.8318,-2.8487,-2.8305,-2.8221,-2.8221,-2.8964,-2.93,-2.9384,-3.0122,-3.0441,-3.0538,-3.1714,-3.2206,-3.2388,-3.432,-3.4567,-3.4183,-3.6092,-3.6426,-3.6137,-3.7233,-3.7759,-3.7483,-3.4781,-3.5359,-3.6807,-3.5169,-3.6221,-3.755,-3.5926,-3.6158,-3.6725,-3.5685,-3.5593,-3.573,-3.5914,-3.5177,-3.4231,-3.3483,-3.2502,-3.1664,-3.1664,-3.1664,-3.1664,-3.1664,-3.1664,-3.161,-3.145,-3.1423,-3.1249,-3.0795,-3.0635,-3.0541,-3.0501,-3.0261,-3.0114,-3.0114,-2.9993,-2.9913,-2.9913,-2.9766,-2.9539,-2.9245,-2.9072,-2.8938,-2.8804,-2.8497,-2.843,-2.8604,-2.8297,-2.8301,-2.835,-2.835,-2.8417,-2.7068,-2.7562,-2.7816,-2.8167,-2.7883,-2.7495,-2.6947,-2.6507,-2.5972,-2.5144,-2.4302,-2.3607,-2.3273,-2.3728,-2.4195,-2.4356,-2.5758,-2.7175,-2.8177,-2.8408,-2.8717,-2.9446,-2.9312,-2.9138,-2.9098,-2.9138,-2.9245,-2.9472,-2.9601,-2.9628,-2.9539,-2.9829,-2.9789,-2.9542,-2.9159,-2.8928,-2.8908,-2.8571,-2.8642,-2.9146,-2.8571,-2.8473,-2.8964,-3.0205,-3.0954,-3.1188,-3.2741,-3.3397,-3.3397,-3.3642,-3.3724,-3.3887,-3.5672,-3.5463,-3.4605,-3.8408,-3.8894,-3.7979,-4.021,-4.1108,-4.0536,-3.7052,-3.7222,-3.8546,-3.7313,-3.8158,-3.9265,-3.8233,-3.8902,-3.9638,-3.8321,-3.7943,-3.7575,-3.6097,-3.5539,-3.4902,-3.3243,-3.2691,-3.2408,-3.2138,-3.2043,-3.2056,-3.1812,-3.169,-3.1677,-3.1717,-3.169,-3.157,-3.1316,-3.1036,-3.0929,-3.1142,-3.0715,-3.0421,-3.0421,-3.014,-2.998,-2.998,-2.994,-2.978,-2.9499,-2.9486,-2.9366,-2.9098,-2.8818,-2.8684,-2.8724,-2.8417,-2.8404,-2.8671,-2.8671,-2.8804,-2.7819,-2.8114,-2.8167,-2.8221,-2.7736,-2.7255,-2.6907,-2.6039,-2.513,-2.4489,-2.3848,-2.3233,-2.2672,-2.3273,-2.4168,-2.513,-2.6146,-2.7388,-2.9018,-2.9245,-2.9392,-2.9793,-2.9793,-2.9673,-2.9432,-2.9619,-2.9686,-2.9499,-3.0055,-3.028,-2.9833,-3.0001,-2.9986,-2.9868,-2.9223,-2.9017,-2.9398,-2.9314,-2.9802,-3.0939,-2.9398,-3.0053,-3.2494,-3.1354,-3.1602,-3.2987,-3.3233,-3.3397,-3.3479,-3.4944,-3.5591,-3.5753,-3.749,-3.8184,-3.8312,-3.9039,-3.9595,-3.9949,-4.0445,-4.0785,-4.0705,-3.8546,-3.9494,-4.129,-3.9526,-4.0701,-4.2299,-4.0481,-4.0209,-4.0339,-4.0044,-3.997,-4.0351,-4.1634,-4.0713,-3.9408,-3.9043,-3.7667,-3.6097,-3.4435,-3.4075,-3.369,-3.2258,-3.1824,-3.1757,-3.1984,-3.1824,-3.165,-3.1597,-3.133,-3.1076,-3.0889,-3.0782,-3.0715,-3.0715,-3.0448,-3.0287,-3.0287,-3.0047,-2.978,-2.9499,-2.9486,-2.9459,-2.9406,-2.9112,-2.9085,-2.9325,-2.9032,-2.8911,-2.8965,-2.8965,-2.8991,-2.8114,-2.8221,-2.8194,-2.7949,-2.7362,-2.6613,-2.5852,-2.5024,-2.4182,-2.3434,-2.318,-2.2993,-2.2699,-2.338,-2.4128,-2.4543,-2.5464,-2.6653,-2.8123,-2.8457,-2.8898,-2.9806,-2.9913,-2.986,-2.9726,-2.9833,-2.9882,-2.9839,-3.0274,-3.0526,-3.0272,-3.0266,-3.0578,-3.1186,-3.0782,-3.0705,-3.1188,-3.1835,-3.2165,-3.2083,-3.1918,-3.2479,-3.3708,-3.4034,-3.4359,-3.4863,-3.5994,-3.6333,-3.6172,-3.6992,-3.7312,-3.7428,-3.854,-3.9061,-3.9281,-3.9722,-4.0125,-4.0492,-4.0712,-4.0895,-4.1013,-4.0279,-4.0944,-4.186,-4.1457,-4.2205,-4.3029,-4.2228,-4.2102,-4.2102,-4.2102,-4.2102,-4.2012,-4.1922,-4.0441,-3.8968,-3.8968,-3.8456,-3.7241,-3.5025,-3.4885,-3.455,-3.2475,-3.2118,-3.2118,-3.2104,-3.2118,-3.2011,-3.1704,-3.1677,-3.157,-3.1276,-3.1102,-3.1022,-3.1022,-3.0755,-3.0581,-3.0581,-3.0448,-3.0247,-2.9953,-2.994,-2.9873,-2.9713,-2.9419,-2.9339,-2.9486,-2.9179,-2.9125,-2.9272,-2.9272,-2.9352,-2.8127,-2.8181,-2.8154,-2.7776,-2.6987,-2.6012,-2.489,-2.4142,-2.3434,-2.2592,-2.2659,-2.2914,-2.2779,-2.334,-2.3808,-2.3781,-2.4543,-2.5638,-2.7068,-2.7509,-2.823,-2.9659,-2.982,-2.982,-2.982,-2.982,-2.9878,-3.0008,-3.0464,-3.069,-3.069,-3.0775,-3.1405,-3.2662,-3.2386,-3.2577,-3.3381,-3.4115,-3.4197,-3.3789,-3.4506,-3.4992,-3.5332,-3.67,-3.7117,-3.6815,-3.8603,-3.9193,-3.8719,-3.8719,-3.8719,-3.8756,-3.908,-3.9226,-3.9336,-4.0162,-4.0473,-4.0529,-4.0914,-4.106,-4.1152,-4.1647,-4.1812,-4.1941,-4.2656,-4.2931,-4.3078,-4.3408,-4.3499,-4.3499,-4.3499,-4.3499,-4.3124,-4.1544,-3.997,-3.8876,-3.8876,-3.909,-3.8558,-3.5786,-3.5737,-3.5316,-3.2693,-3.2385,-3.2492,-3.2318,-3.2438,-3.2358,-3.1824,-3.1957,-3.1984,-3.1704,-3.1463,-3.1316,-3.1316,-3.1049,-3.0889,-3.0889,-3.0822,-3.0662,-3.0368,-3.0354,-3.0221,-2.9927,-2.9686,-2.9579,-2.9579,-2.9339,-2.9352,-2.9579,-2.9579,-2.97,-2.7736,-2.7936,-2.8154,-2.7776,-2.6841,-2.5758,-2.485,-2.3981,-2.318,-2.2552,-2.2659,-2.2779,-2.2512,-2.2525,-2.2846,-2.3647,-2.3861,-2.4716,-2.6947,-2.7509,-2.815,-2.9379,-2.9526,-2.9526,-2.9526,-2.9526,-2.9568,-2.9694,-3.0576,-3.1023,-3.1023,-3.1845,-3.2662,-3.3328,-3.2839,-3.3626,-3.5672,-3.4229,-3.4799,-3.7374,-3.5897,-3.6717,-3.9333,-3.7914,-3.7932,-3.9017,-3.9588,-3.9588,-3.9272,-3.9272,-3.9272,-3.9231,-3.924,-3.9226,-3.9336,-4.0162,-4.0473,-4.0529,-4.0914,-4.106,-4.1273,-4.1977,-4.2216,-4.2307,-4.2729,-4.3133,-4.3444,-4.3481,-4.3499,-4.3499,-4.3499,-4.3499,-4.3499,-4.3303,-4.3124,-4.2945,-4.2945,-4.2963,-4.1867,-3.8051,-3.7599,-3.6643,-3.3132,-3.2629,-3.2625,-3.2866,-3.2692,-3.2425,-3.2104,-3.2078,-3.1984,-3.1704,-3.1637,-3.1623,-3.1623,-3.1356,-3.1183,-3.1183,-3.0942,-3.0662,-3.0368,-3.0354,-3.0221,-2.9927,-2.9887,-2.9873,-2.9873,-2.9847,-2.9847,-2.9873,-2.9873,-2.9887,-2.7335,-2.7789,-2.8114,-2.7562,-2.6426,-2.5197,-2.4315,-2.342,-2.2605,-2.2017,-2.2418,-2.2766,-2.2472,-2.2565,-2.2686,-2.2699,-2.2699,-2.3207,-2.469,-2.5144,-2.6039,-2.7923,-2.831,-2.8617,-2.9165,-2.9468,-2.9863,-3.052,-3.1756,-3.2533,-3.2746,-3.3113,-3.434,-3.6494,-3.6379,-3.67,-3.7596,-3.7932,-3.817,-3.8329,-3.8645,-3.9393,-4.0294,-3.9864,-3.9629,-3.9666,-4.0137,-4.0059,-3.9666,-3.9666,-3.9666,-3.9625,-3.9658,-3.9647,-3.9677,-4.0244,-4.0473,-4.0529,-4.0914,-4.106,-4.1189,-4.2014,-4.2124,-4.2087,-4.2968,-4.3371,-4.3499,-4.3499,-4.3499,-4.3499,-4.3499,-4.3499,-4.3499,-4.3499,-4.3499,-4.3499,-4.3499,-4.3683,-4.2946,-3.993,-3.8942,-3.7737,-3.4832,-3.3598,-3.2986,-3.2759,-3.2919,-3.2772,-3.1944,-3.2144,-3.2185,-3.1717,-3.1664,-3.1664,-3.1664,-3.1557,-3.149,-3.149,-3.1383,-3.1183,-3.0889,-3.0715,-3.0488,-3.0194,-3.0007,-2.9913,-2.9913,-2.9913,-2.9913,-2.9913,-3.01,-3.0181,-2.672,-2.7457,-2.7846,-2.7255,-2.6026,-2.4743,-2.3955,-2.3073,-2.2271,-2.1777,-2.2378,-2.2806,-2.2592,-2.2645,-2.2619,-2.2298,-2.2098,-2.2365,-2.3434,-2.3688,-2.4516,-2.6507,-2.6921,-2.7402,-2.8297,-2.9131,-3.001,-3.0881,-3.2449,-3.3704,-3.4521,-3.5015,-3.6268,-3.8487,-3.8645,-3.8882,-3.9374,-4.0118,-4.0099,-3.9374,-4.0607,-4.0997,-4.0763,-4.1094,-4.0782,-4.0137,-4.0529,-4.0451,-4.0059,-4.0059,-4.0059,-4.0116,-4.0109,-4.0154,-4.0229,-4.0464,-4.0556,-4.0676,-4.0869,-4.0877,-4.1024,-4.1831,-4.1922,-4.1886,-4.2986,-4.3316,-4.3334,-4.3463,-4.3499,-4.3499,-4.3499,-4.3499,-4.3499,-4.3499,-4.3499,-4.3499,-4.3499,-4.3719,-4.3289,-4.1084,-3.9731,-3.8273,-3.6038,-3.4436,-3.328,-3.2866,-3.3146,-3.3053,-3.2051,-3.2388,-3.2415,-3.173,-3.1664,-3.1664,-3.1664,-3.1664,-3.1664,-3.1664,-3.1664,-3.153,-3.1236,-3.0942,-3.0662,-3.0368,-3.0154,-3.0007,-2.9913,-3.0007,-3.0007,-2.9927,-3.0221,-3.0314,-2.5889,-2.6693,-2.7201,-2.6907,-2.5732,-2.4489,-2.3901,-2.3073,-2.2338,-2.2044,-2.2445,-2.2928,-2.2928,-2.2619,-2.2512,-2.2806,-2.2365,-2.2498,-2.3981,-2.3955,-2.4209,-2.5384,-2.5531,-2.5879,-2.676,-2.8455,-2.979,-3.0538,-3.2312,-3.4148,-3.5914,-3.7596,-3.8566,-3.8645,-3.8645,-3.9453,-4.1172,-3.9453,-3.9453,-4.1172,-4.1172,-4.1172,-4.1172,-4.1172,-4.0919,-4.0509,-4.0997,-4.0919,-4.0509,-4.0509,-4.0509,-4.0508,-4.0489,-4.0728,-4.1009,-4.0639,-4.0787,-4.1016,-4.0639,-4.0473,-4.062,-4.1427,-4.1702,-4.1831,-4.2637,-4.2876,-4.2968,-4.3371,-4.3499,-4.3499,-4.3499,-4.3499,-4.3499,-4.3499,-4.3499,-4.3499,-4.3499,-4.3499,-4.3054,-4.1378,-3.9698,-3.7975,-3.64,-3.4589,-3.3414,-3.34,-3.3414,-3.32,-3.271,-3.2643,-3.2415,-3.173,-3.1664,-3.1664,-3.1664,-3.1664,-3.1664,-3.1664,-3.1664,-3.153,-3.1236,-3.0942,-3.0662,-3.0368,-3.0354,-3.0207,-2.9913,-3.0207,-3.0207,-2.9927,-3.0221,-3.0207,-2.5384,-2.5676,-2.5611,-2.4903,-2.4235,-2.3581,-2.2979,-2.2472,-2.2044,-2.175,-2.2151,-2.2498,-2.2298,-2.2512,-2.2552,-2.211,-2.1977,-2.2004,-2.2071,-2.2886,-2.3821,-2.4796,-2.6333,-2.7661,-2.8524,-2.9147,-3.0346,-3.2364,-3.4213,-3.5914,-3.7675,-3.9453,-4.0353,-4.0353,-4.0353,-4.0607,-4.1172,-4.0685,-4.0685,-4.1172,-4.1172,-4.1172,-4.1172,-4.1172,-4.1094,-4.0997,-4.1172,-4.1094,-4.0997,-4.0997,-4.0997,-4.0958,-4.066,-4.0769,-4.1075,-4.0703,-4.0793,-4.1054,-4.0934,-4.0877,-4.0969,-4.1519,-4.15,-4.1464,-4.2546,-4.2858,-4.2949,-4.3371,-4.3499,-4.3499,-4.3499,-4.3499,-4.3499,-4.3499,-4.3499,-4.3499,-4.3499,-4.3499,-4.343,-4.3162,-4.1758,-4.0059,-3.8413,-3.6726,-3.5012,-3.3345,-3.328,-3.32,-3.2625,-3.2643,-3.2398,-3.2011,-3.1784,-3.1664,-3.1664,-3.1664,-3.1664,-3.1664,-3.1664,-3.1623,-3.153,-3.1249,-3.1049,-3.0955,-3.0755,-3.0608,-3.0515,-3.0608,-3.0715,-3.0808,-3.0902,-3.0902,-2.4303,-2.4394,-2.4422,-2.3768,-2.3207,-2.2726,-2.2338,-2.1857,-2.147,-2.1403,-2.167,-2.1897,-2.183,-2.2031,-2.2098,-2.1764,-2.1683,-2.1683,-2.1764,-2.2565,-2.3567,-2.4676,-2.6386,-2.7934,-2.8867,-2.9936,-3.1286,-3.3265,-3.5591,-3.7436,-3.8566,-4.0275,-4.1172,-4.1172,-4.1172,-4.1172,-4.1172,-4.1172,-4.1172,-4.1172,-4.1172,-4.1172,-4.1172,-4.1172,-4.1172,-4.1172,-4.1172,-4.1172,0.0,-4.1172,-4.1172,-4.1191,-4.0859,-4.1089,-4.1573,-4.0957,-4.1091,-4.1568,-4.1397,-4.124,-4.1147,-4.1553,-4.1652,-4.1666,-4.2417,-4.2858,-4.3151,-4.3426,-4.3499,-4.3499,-4.3499,-4.3499,-4.3499,-4.3499,-4.3499,-4.3499,-4.3499,-4.3609,-4.3793,-4.4031,-4.2838,-4.1467,-4.0454,-3.8744,-3.6726,-3.4618,-3.4363,-3.3984,-3.2857,-3.2612,-3.2425,-3.2131,-3.1944,-3.1837,-3.1837,-3.173,-3.1664,-3.1664,-3.1664,-3.1664,-3.1664,-3.1383,-3.1223,-3.1223,-3.1049,-3.0902,-3.0795,-3.0795,-3.0942,-3.1223,-3.1223,-3.1169,0.0,-2.3063,-2.3527,-2.3193,-2.2525,-2.1937,-2.1897,-2.1283,0.0,-2.1029,-2.1082,-2.1162,-2.1534,-2.1309,-2.1309,-2.1844,-2.1483,-2.151,-2.2592,-2.2954,-2.3541,-2.5024,-2.5972,-2.6998,-2.8095,-3.0528,-3.2479,-3.351,-3.6682,-3.8609,-3.8803,-4.0353,-4.1172,-4.1172,-4.1172,-4.1172,-4.1172,-4.1172,-4.1172,-4.1172,-4.1172,-4.1172,-4.1172,-4.1172,-4.1172,-4.1172,-4.1172,-4.1172,-4.1172,-4.1172,-4.1172,-4.1211,-4.1129,-4.1614,-4.2222,-4.1399,-4.1704,-4.2452,-4.1922,-4.153,-4.1294,-4.1584,-4.1933,-4.2271,-4.2271,-4.2839,-4.3499,-4.3499,-4.3499,-4.3499,-4.3499,-4.3499,-4.3499,-4.3499,-4.3499,-4.3499,-4.3536,-4.3829,-4.4105,-4.416,-4.3253,-4.2322,-4.2227,-4.0598,-3.8682,-3.6731,-3.6163,-3.5221,-3.3269,-3.2746,-3.2465,-3.2198,-3.2144,-3.2131,-3.2131,-3.1864,-3.1704,-3.1704,-3.1677,-3.1664,-3.1664,-3.1396,-3.1263,-3.1263,-3.1263,-3.1129,-3.0849,-3.0849,-3.0996,-3.1263,-3.1263,-3.1116,-2.4145,0.0,-2.1963,-2.1149,-2.1309,-2.1601,0.0,-2.1002,-2.0962,-2.0815,-2.0775,-2.0869,-2.1162,-2.1336,-2.1416,-2.1323,-2.139,-2.147,-2.151,-2.3073,-2.477,-2.6239,-2.7188,-2.7907,-2.8165,-3.0241,-3.2623,-3.517,-3.7072,-3.8803,-4.049,-4.1016,-4.1172,-4.1172,-4.1172,-4.1172,-4.1172,-4.1172,-4.1172,-4.1172,-4.1172,-4.1172,-4.1172,-4.1172,-4.1172,-4.1172,-4.1172,-4.1172,-4.1172,-4.1172,-4.1172,-4.1191,-4.1211,-4.1503,-4.1874,-4.1298,-4.1618,-4.2351,-4.1859,-4.1903,-4.2019,-4.176,-4.1933,-4.2271,-4.2271,-4.2839,-4.3499,-4.3499,-4.3499,-4.3499,-4.3499,-4.3499,-4.3499,-4.3499,-4.3499,-4.3573,-4.3884,-4.4013,-4.427,-4.4893,-4.4779,-4.4048,-4.2416,-4.207,-4.0541,-3.6349,-3.6075,-3.5576,-3.3296,-3.2919,-3.2853,-3.2786,-3.2572,-3.2438,-3.2438,-3.2171,-3.1998,-3.1998,-3.1797,-3.1664,-3.1664,-3.1597,-3.157,-3.157,-3.157,-3.153,-3.1463,-3.1463,-3.1503,-3.157,-3.157,-3.153,-2.3885,-2.2608,-2.1888,-2.1046,-2.0815,-2.0668,-2.0347,-2.0294,-2.0307,-2.0281,-2.0174,-2.0201,-2.0628,-2.0735,-2.0828,-2.1069,-2.1243,-2.1577,-2.2231,-2.409,-2.5758,-2.6707,-2.8042,-2.9122,-2.9946,-3.178,-3.4128,-3.7002,-3.8356,-3.9739,-4.1152,-4.1172,-4.1172,-4.1172,-4.1172,-4.1172,-4.1172,-4.1172,-4.1172,-4.1172,-4.1172,-4.1172,-4.1172,-4.1172,-4.1172,-4.1172,-4.1172,-4.1172,-4.1172,-4.1172,-4.1172,-4.1172,-4.1172,-4.1426,-4.1797,-4.1481,-4.1943,-4.2678,-4.2433,-4.2373,-4.2318,-4.1863,-4.1933,-4.2252,-4.2069,-4.2711,-4.3499,-4.3499,-4.3499,-4.3499,-4.3499,-4.3499,-4.3499,-4.3499,-4.3499,-4.3554,-4.3774,-4.3958,-4.416,-4.4416,-4.4911,-4.4852,-4.3612,-4.3709,-4.2829,-3.9324,-3.8214,-3.699,-3.4844,-3.3647,-3.2973,-3.2973,-3.2839,-3.2746,-3.2746,-3.2599,-3.2385,-3.2118,-3.1824,-3.1664,-3.1664,-3.1664,-3.1664,-3.1664,-3.1664,-3.1664,-3.1664,-3.1664,-3.1664,-3.1664,-3.1664,-3.1664,-2.3634,-2.2826,-2.2555,-2.1568,-2.0583,-1.9853,-1.9813,-1.9613,-1.9492,-1.9693,-1.9533,-1.9533,-2.0067,-2.0,-2.012,-2.0909,-2.1189,-2.1951,-2.3781,-2.5335,-2.6503,-2.7105,-2.8528,-3.0209,-3.2042,-3.3692,-3.5701,-3.828,-3.9643,-4.0547,-4.1055,-4.1074,-4.1074,-4.1074,-4.1133,-4.1172,-4.1172,-4.1172,-4.1172,-4.1172,-4.1172,-4.1172,-4.1172,-4.1172,-4.1172,-4.1172,-4.1172,-4.1172,-4.1172,-4.1172,-4.1172,-4.1172,-4.1172,-4.1387,-4.1699,-4.1699,-4.2207,-4.291,-4.3027,-4.2746,-4.2224,-4.1946,-4.1981,-4.2124,-4.1794,-4.2491,-4.3408,-4.3408,-4.3444,-4.3499,-4.3499,-4.3499,-4.3499,-4.3499,-4.3499,-4.3518,-4.3646,-4.3884,-4.4031,-4.3884,-4.4636,-4.5187,-4.4838,-4.5058,-4.4717,-4.2855,-4.0921,-3.8859,-3.6731,-3.4731,-3.3435,-3.304,-3.304,-3.304,-3.304,-3.2959,-3.2719,-3.2265,-3.1917,-3.1717,-3.1677,-3.1664,-3.1664,-3.1664,-3.1664,-3.1664,-3.1664,-3.1664,-3.1664,-3.1664,-3.1664,-3.1664,-2.6109,-2.4795,-2.3225,-2.0698,-2.0107,-2.0107,-1.9853,-1.976,-1.9679,-1.9479,-1.9457,-1.9466,-1.98,-2.0027,-2.0294,-2.0681,-2.1577,-2.2926,-2.4957,-2.572,-2.6813,-2.8856,-2.9027,-2.9876,-3.2349,-3.3503,-3.5148,-3.7782,-3.8842,-3.9766,-4.0586,-4.0625,-4.0625,-4.0625,-4.0976,-4.1172,-4.1172,-4.1172,-4.1172,-4.1172,-4.1172,-4.1172,-4.1172,-4.1172,-4.1172,-4.1172,-4.1172,-4.1172,-4.1172,-4.1172,-4.1172,-4.1172,-4.1172,-4.1211,-4.1269,-4.1269,-4.1582,-4.2109,-4.2832,-4.2553,-4.1846,-4.2205,-4.2068,-4.1776,-4.1702,-4.2289,-4.2968,-4.2968,-4.3224,-4.3499,-4.3499,-4.3499,-4.3499,-4.3499,-4.3499,-4.3683,-4.4343,-4.427,-4.4361,-4.5333,-4.5407,-4.5278,-4.5223,-4.526,-4.4518,-4.2225,-4.1757,-4.0424,-3.6631,-3.6054,-3.5309,-3.3547,-3.3347,-3.3347,-3.3347,-3.2893,-3.2679,-3.2826,-3.2332,-3.1931,-3.1677,-3.1664,-3.1664,-3.1664,-3.1664,-3.1664,-3.1664,-3.1664,-3.1664,-3.1664,-3.1664,-3.1664,-2.526,-2.3891,-2.2347,-2.0301,-1.9907,-1.992,-1.9639,-1.9559,-1.9573,-1.9599,-1.9479,-1.9546,-2.016,-2.0388,-2.0828,-2.1924,-2.2699,-2.3594,-2.4863,-2.5821,-2.7145,-2.9037,-2.9486,-3.0957,-3.4426,-3.4545,-3.5634,-3.8726,-3.9101,-3.9492,-4.0156,-4.0195,-4.0293,-4.0508,-4.0723,-4.0937,-4.1172,-4.0937,-4.082,-4.082,-4.1055,-4.1055,-4.084,-4.1074,-4.1172,-4.1172,-4.1172,-4.1172,-4.1172,-4.1172,-4.1172,-4.1172,-4.1172,-4.1172,-4.1211,-4.1426,-4.1777,-4.2226,-4.2851,-4.265,-4.2137,-4.2345,-4.2097,-4.1647,-4.1409,-4.2069,-4.2821,-4.2601,-4.3004,-4.3499,-4.3499,-4.3499,-4.3499,-4.3499,-4.3499,-4.3591,-4.3958,-4.3884,-4.394,-4.449,-4.4801,-4.4966,-4.4966,-4.5333,-4.5254,-4.4102,-4.3173,-4.1469,-3.8466,-3.7154,-3.5663,-3.3614,-3.3414,-3.3414,-3.3414,-3.316,-3.2799,-3.2305,-3.2171,-3.1971,-3.1677,-3.1824,-3.1904,-3.1904,-3.2064,-3.2144,-3.2144,-3.1984,-3.1904,-3.1904,-3.1744,-3.1664,-2.4392,-2.3142,-2.1876,-2.0555,-1.9983,-1.9693,-1.9679,-1.9626,-1.9653,-1.9947,-1.9826,-1.9853,-2.0454,-2.0802,-2.1496,-2.3073,-2.3754,-2.4448,-2.5466,-2.6276,-2.765,-3.0097,-3.0336,-3.2063,-3.651,-3.5772,-3.6308,-3.9501,-3.9316,-3.9258,-3.9707,-3.9844,-4.0039,-4.0371,-4.0566,-4.0781,-4.1016,-4.0781,-4.0625,-4.0527,-4.0859,-4.084,-4.0547,-4.0976,-4.1172,-4.1172,-4.1172,-4.1172,-4.1172,-4.1172,-4.1172,-4.1172,-4.1172,-4.1172,-4.1211,-4.1543,-4.1855,-4.2207,-4.2734,-4.2573,-4.2137,-4.2345,-4.2041,-4.15,-4.128,-4.1849,-4.2564,-4.2454,-4.2858,-4.3371,-4.3463,-4.3499,-4.3499,-4.3499,-4.3499,-4.3518,-4.3609,-4.3628,-4.3683,-4.3884,-4.4398,-4.4856,-4.4948,-4.5388,-4.5773,-4.5883,-4.4453,-4.269,-4.0642,-3.8601,-3.6455,-3.4399,-3.37,-3.3387,-3.332,-3.3374,-3.2973,-3.1944,-3.2011,-3.1998,-3.1784,-3.2051,-3.2211,-3.2211,-3.2425,-3.2643,-3.2643,-3.2251,-3.2104,-3.2104,-3.1877,-3.177,-2.5496,-2.449,-2.2964,-2.1759,-2.045,-1.9671,-2.0401,-2.0374,-2.0254,-2.0548,-2.0601,-2.0521,-2.0307,-2.1162,-2.2205,-2.3166,-2.4262,-2.5882,-2.8284,-2.7574,-2.8676,-3.3809,-3.1999,-3.2363,-3.7445,-3.6767,-3.6881,-3.909,-3.8867,-3.8809,-3.9238,-3.9668,-3.9902,-3.9941,-4.0723,-4.0957,-4.0566,-4.0937,-4.0918,-4.0527,-4.0547,-4.0547,-4.0547,-4.0976,-4.1172,-4.1172,-4.1172,-4.1172,-4.1172,-4.1172,-4.1172,-4.1172,-4.1172,-4.1172,-4.1172,-4.1211,-4.123,-4.1387,-4.2187,-4.1856,-4.1298,-4.2156,-4.1835,-4.117,-4.1537,-4.1702,-4.1922,-4.2619,-4.2858,-4.3004,-4.3389,-4.3499,-4.3499,-4.3499,-4.3499,-4.3591,-4.3958,-4.405,-4.427,-4.5021,-4.5223,-4.537,-4.5737,-4.5553,-4.5462,-4.5828,-4.5478,-4.4508,-4.2837,-4.0739,-3.8601,-3.6553,-3.4599,-3.3307,-3.3026,-3.3253,-3.3146,-3.2519,-3.2238,-3.2091,-3.2078,-3.2358,-3.2519,-3.2519,-3.2629,-3.2643,-3.2643,-3.2251,-3.2104,-3.2104,-3.2078,-3.2064,-2.4896,-2.3089,-2.1003,-2.1482,-2.0494,-1.9546,-2.0241,-2.0454,-2.0588,-2.0882,-2.1096,-2.1243,-2.1309,-2.2138,-2.3113,-2.3995,-2.497,-2.603,-2.7158,-2.7965,-2.9527,-3.2657,-3.2395,-3.3558,-3.7596,-3.6863,-3.6884,-3.8681,-3.8672,-3.8652,-3.8809,-3.8984,-3.9199,-3.9453,-4.0059,-4.0293,-4.0137,-4.0293,-4.0293,-4.0137,-4.0684,-4.0781,-4.0547,-4.0976,-4.1172,-4.1172,-4.1172,-4.1172,-4.1172,-4.1172,-4.1172,-4.1172,-4.1172,-4.1172,-4.1172,-4.1172,-4.1348,-4.1641,-4.2226,-4.2195,-4.2034,-4.2627,-4.2402,-4.1891,-4.2048,-4.2092,-4.2173,-4.2725,-4.2858,-4.2968,-4.3389,-4.3499,-4.3499,-4.3499,-4.3499,-4.3536,-4.3683,-4.3719,-4.3884,-4.4435,-4.4746,-4.504,-4.5462,-4.5608,-4.5718,-4.5865,-4.5755,-4.4948,-4.3045,-4.1029,-3.8894,-3.6751,-3.4684,-3.3374,-3.3253,-3.3187,-3.3053,-3.2826,-3.2706,-3.2572,-3.2385,-3.2666,-3.2812,-3.2812,-3.2986,-3.308,-3.308,-3.2786,-3.2652,-3.2639,-3.2465,-3.2385,-2.3999,-2.2127,-2.0211,-2.122,-2.0785,-2.0137,-2.0408,-2.0735,-2.1056,-2.1443,-2.1617,-2.1842,-2.2071,-2.2779,-2.3581,-2.4369,-2.5317,-2.6286,-2.7042,-2.8339,-3.0028,-3.2223,-3.29,-3.4359,-3.7315,-3.6979,-3.7017,-3.8302,-3.8501,-3.8574,-3.8574,-3.8691,-3.8906,-3.9199,-3.9648,-3.9824,-3.9668,-3.9824,-3.9824,-3.9687,-4.041,-4.0684,-4.0527,-4.0703,-4.0918,-4.1172,-4.1035,-4.1035,-4.1172,-4.1172,-4.1172,-4.1172,-4.1172,-4.1172,-4.1172,-4.1172,-4.1348,-4.166,-4.209,-4.2101,-4.2125,-4.2683,-4.2525,-4.2224,-4.2265,-4.2236,-4.2244,-4.2775,-4.2784,-4.2803,-4.3353,-4.3499,-4.3499,-4.3499,-4.3499,-4.3499,-4.3499,-4.3591,-4.3793,-4.4196,-4.46,-4.5003,-4.5407,-4.5718,-4.5883,-4.5883,-4.5883,-4.5394,-4.3937,-4.2008,-3.9575,-3.6849,-3.4684,-3.3414,-3.3414,-3.3227,-3.312,-3.312,-3.312,-3.2986,-3.2692,-3.2959,-3.312,-3.312,-3.3307,-3.3414,-3.3414,-3.312,-3.2973,-3.2973,-3.2772,-3.2679,-2.2974,-2.2142,-2.1174,-2.1174,-2.1408,-2.1491,-2.1159,-2.1336,-2.1724,-2.2311,-2.2191,-2.2084,-2.2378,-2.2926,-2.3527,-2.4102,-2.5184,-2.6662,-2.8579,-2.892,-3.0145,-3.3373,-3.3827,-3.4597,-3.6571,-3.7181,-3.7549,-3.7936,-3.8355,-3.8574,-3.8574,-3.8965,-3.9199,-3.9199,-3.9648,-3.9668,-3.9199,-3.9668,-3.9668,-3.9199,-3.9668,-4.0098,-4.0508,-4.0078,-4.0351,-4.1152,-4.0703,-4.0781,-4.1172,-4.1172,-4.1172,-4.1172,-4.1172,-4.1172,-4.1172,-4.1172,-4.1172,-4.123,-4.166,-4.1481,-4.1238,-4.2144,-4.2105,-4.1763,-4.2171,-4.205,-4.1891,-4.2683,-4.2582,-4.2472,-4.3279,-4.3499,-4.3499,-4.3499,-4.3499,-4.3499,-4.3499,-4.3793,-4.4196,-4.46,-4.5003,-4.5425,-4.5828,-4.5883,-4.5883,-4.5883,-4.5883,-4.5883,-4.5883,-4.4032,-4.1125,-3.6948,-3.4684,-3.3414,-3.3414,-3.3414,-3.3414,-3.3414,-3.3414,-3.328,-3.2986,-3.3253,-3.3414,-3.3414,-3.3414,-3.3414,-3.3414,-3.312,-3.2986,-3.2986,-3.2986,-3.2986,-2.3094,-2.1517,-2.0153,-2.122,-2.0883,-2.0506,-2.0971,-2.1336,-2.1844,-2.2846,-2.2819,-2.2699,-2.3006,-2.338,-2.3768,-2.4142,-2.4836,-2.5734,-2.6699,-2.8635,-3.0304,-3.1448,-3.3448,-3.5121,-3.6292,-3.6748,-3.7166,-3.7547,-3.818,-3.8437,-3.8125,-3.8535,-3.8769,-3.8769,-3.918,-3.9199,-3.8769,-3.9199,-3.9336,-3.9199,-3.9043,-3.9355,-4.0078,-3.9961,-4.0195,-4.0703,-4.0586,-4.0781,-4.1172,-4.1172,-4.1172,-4.1172,-4.1172,-4.1172,-4.1172,-4.1172,-4.1172,-4.123,-4.166,-4.1913,-4.2084,-4.2728,-4.3036,-4.3137,-4.3258,-4.2998,-4.2612,-4.2858,-4.2826,-4.2747,-4.2986,-4.3279,-4.3499,-4.3499,-4.3499,-4.3499,-4.3499,-4.3591,-4.3866,-4.4545,-4.4765,-4.5077,-4.5773,-4.5883,-4.5883,-4.5883,-4.5883,-4.5394,-4.3937,-4.1912,-3.9575,-3.6849,-3.4684,-3.3414,-3.3414,-3.3414,-3.3414,-3.3414,-3.3414,-3.3374,-3.328,-3.336,-3.3414,-3.3414,-3.3414,-3.3414,-3.3414,-3.332,-3.328,-3.328,-3.328,-3.328,-2.1789,-2.05,-1.9672,-2.0648,-2.0497,-2.0374,-2.1256,-2.1871,-2.2565,-2.3621,-2.3514,-2.3313,-2.3621,-2.3728,-2.3901,-2.4302,-2.5275,-2.6204,-2.6613,-2.9288,-3.1252,-3.1465,-3.3541,-3.5191,-3.5665,-3.6099,-3.6588,-3.7119,-3.7576,-3.7942,-3.8184,-3.8262,-3.8398,-3.8574,-3.8652,-3.8574,-3.832,-3.8574,-3.8691,-3.8691,-3.8613,-3.8867,-3.9375,-3.9375,-3.9707,-4.0273,-4.0449,-4.0781,-4.1172,-4.1172,-4.1172,-4.1172,-4.1172,-4.1172,-4.1172,-4.1172,-4.1172,-4.1211,-4.1465,-4.1719,-4.1992,-4.2441,-4.2851,-4.3199,-4.3214,-4.2964,-4.2772,-4.2676,-4.2654,-4.2674,-4.2821,-4.3188,-4.3499,-4.3499,-4.3499,-4.3499,-4.3499,-4.3628,-4.3921,-4.4545,-4.4801,-4.5132,-4.5773,-4.5883,-4.5883,-4.5883,-4.5883,-4.5488,-4.424,-4.22,-4.0158,-3.8013,-3.5861,-3.43,-3.3514,-3.3414,-3.3414,-3.3414,-3.3414,-3.3414,-3.3414,-3.3414,-3.3414,-3.3414,-3.3414,-3.3414,-3.3414,-3.3414,-3.3414,-3.3414,-3.3414,-3.3414,-1.972,-1.9444,-1.9479,-1.9773,-2.0321,-2.1015,-2.183,-2.2699,-2.3554,-2.4356,-2.4115,-2.3933,-2.4286,-2.404,-2.4013,-2.4755,-2.6248,-2.7452,-2.7834,-3.0557,-3.2497,-3.2531,-3.391,-3.4935,-3.4972,-3.5312,-3.589,-3.6626,-3.6699,-3.719,-3.8359,-3.8105,-3.8086,-3.8457,-3.8105,-3.791,-3.7871,-3.7871,-3.7891,-3.793,-3.832,-3.8535,-3.8574,-3.8574,-3.9062,-3.9922,-4.0332,-4.0781,-4.1172,-4.1172,-4.1172,-4.1172,-4.1172,-4.1172,-4.1172,-4.1172,-4.1172,-4.1172,-4.1172,-4.1191,-4.1289,-4.168,-4.209,-4.242,-4.2403,-4.2373,-4.2394,-4.2293,-4.2266,-4.2399,-4.2729,-4.3151,-4.3499,-4.3499,-4.3499,-4.3499,-4.3499,-4.3774,-4.416,-4.4581,-4.4948,-4.5333,-4.581,-4.5865,-4.5847,-4.5883,-4.5883,-4.5883,-4.5883,-4.405,-4.2008,-3.9964,-3.7817,-3.5678,-3.3614,-3.3414,-3.3414,-3.3414,-3.3414,-3.3414,-3.3414,-3.3414,-3.3414,-3.3414,-3.3414,-3.3414,-3.3414,-3.3414,-3.3414,-3.3414,-3.3414,-3.3414,-1.9833,-1.9533,-1.9773,-2.0067,-2.0922,-2.1817,-2.2231,-2.2846,-2.338,-2.3567,-2.3701,-2.4205,-2.5612,-2.4729,-2.4577,-2.6854,-2.6941,-2.7197,-2.8614,-3.0535,-3.1867,-3.2087,-3.3251,-3.4202,-3.4513,-3.4885,-3.5276,-3.5722,-3.6374,-3.6804,-3.709,-3.7617,-3.7812,-3.7578,-3.7793,-3.7773,-3.7441,-3.7441,-3.7598,-3.793,-3.8027,-3.8242,-3.8574,-3.8574,-3.9062,-3.9922,-4.0332,-4.0781,-4.1172,-4.1172,-4.1172,-4.1172,-4.1172,-4.1172,-4.1172,-4.1172,-4.1172,-4.1172,-4.1172,-4.1387,-4.168,-4.1777,-4.209,-4.2361,-4.2378,-4.237,-4.2345,-4.1952,-4.2281,-4.2692,-4.2472,-4.2949,-4.3499,-4.3499,-4.3499,-4.3499,-4.3499,-4.3554,-4.3829,-4.4526,-4.449,-4.4673,-4.57,-4.5627,-4.5535,-4.5847,-4.5883,-4.5883,-4.5883,-4.405,-4.2008,-3.9964,-3.7817,-3.5678,-3.3614,-3.3414,-3.3414,-3.3414,-3.3414,-3.3414,-3.3414,-3.3414,-3.3414,-3.3414,-3.3414,-3.3414,-3.3414,-3.3414,-3.3414,-3.3414,-3.3414,-3.3414,-2.0485,-2.0436,-2.0635,-2.0631,-2.1216,-2.1897,-2.2325,-2.2659,-2.2979,-2.326,-2.3567,-2.4293,-2.5839,-2.4832,-2.4734,-2.7563,-2.7633,-2.7889,-2.9465,-3.1201,-3.2384,-3.2526,-3.333,-3.389,-3.4092,-3.4338,-3.4762,-3.5527,-3.5756,-3.6201,-3.6973,-3.7187,-3.7324,-3.7305,-3.7324,-3.7226,-3.6992,-3.6992,-3.7207,-3.7637,-3.7832,-3.8164,-3.8574,-3.8574,-3.8945,-3.959,-4.0039,-4.0469,-4.0879,-4.1094,-4.1172,-4.1172,-4.1172,-4.1172,-4.1172,-4.1172,-4.1172,-4.1172,-4.1172,-4.1308,-4.1504,-4.1504,-4.1777,-4.2129,-4.2129,-4.2087,-4.1978,-4.1751,-4.2012,-4.2307,-4.2289,-4.2601,-4.3004,-4.3408,-4.3499,-4.3499,-4.3499,-4.3793,-4.4123,-4.4343,-4.4691,-4.5095,-4.5535,-4.559,-4.5645,-4.5865,-4.5883,-4.5883,-4.5883,-4.4921,-4.3062,-4.0061,-3.8698,-3.6736,-3.37,-3.3414,-3.3414,-3.3414,-3.3414,-3.3414,-3.3414,-3.3414,-3.3414,-3.3414,-3.3414,-3.3414,-3.3414,-3.3414,-3.3414,-3.3414,-3.3414,-3.3414,-2.1517,-2.1626,-2.1579,-2.114,-2.1296,-2.1748,-2.2164,-2.2352,-2.2565,-2.306,-2.3407,-2.4186,-2.5871,-2.482,-2.4722,-2.8079,-2.8333,-2.8708,-3.0343,-3.2015,-3.3138,-3.3211,-3.3505,-3.3743,-3.3798,-3.3817,-3.4223,-3.5344,-3.5111,-3.5501,-3.6891,-3.6816,-3.6797,-3.707,-3.6816,-3.6641,-3.6562,-3.6562,-3.6777,-3.7187,-3.7695,-3.8164,-3.8574,-3.8574,-3.8809,-3.9219,-3.9687,-4.0137,-4.0566,-4.0996,-4.1172,-4.1172,-4.1172,-4.1172,-4.1172,-4.1172,-4.1172,-4.1172,-4.1172,-4.1172,-4.1172,-4.1172,-4.1406,-4.1699,-4.1699,-4.1606,-4.1487,-4.1562,-4.1621,-4.1684,-4.2161,-4.2326,-4.2564,-4.3316,-4.3499,-4.3499,-4.3499,-4.4013,-4.4398,-4.4123,-4.5003,-4.5663,-4.526,-4.5572,-4.5883,-4.5883,-4.5883,-4.5883,-4.5883,-4.5883,-4.4335,-4.0158,-3.9673,-3.8013,-3.38,-3.3414,-3.3414,-3.3414,-3.3414,-3.3414,-3.3414,-3.3414,-3.3414,-3.3414,-3.3414,-3.3414,-3.3414,-3.3414,-3.3414,-3.3414,-3.3414,-3.3414,-2.2749,-2.2354,-2.1735,-2.0937,-2.1212,-2.1641,-2.1722,-2.2058,-2.2445,-2.2525,-2.2779,-2.3942,-2.6808,-2.4987,-2.4732,-3.0075,-2.9144,-2.8672,-3.1396,-3.229,-3.2808,-3.3175,-3.3266,-3.3431,-3.378,-3.3817,-3.3974,-3.4514,-3.4734,-3.5184,-3.5712,-3.6366,-3.6523,-3.6191,-3.6504,-3.6484,-3.6113,-3.6113,-3.6328,-3.6758,-3.7539,-3.8164,-3.8574,-3.8574,-3.8809,-3.9219,-3.9687,-4.0137,-4.0566,-4.0996,-4.1172,-4.1172,-4.1172,-4.1172,-4.1172,-4.1172,-4.1172,-4.1172,-4.1172,-4.1172,-4.1172,-4.1172,-4.1211,-4.125,-4.125,-4.0952,-4.0754,-4.1052,-4.1173,-4.1317,-4.2087,-4.2527,-4.2913,-4.3389,-4.3499,-4.3499,-4.3499,-4.3573,-4.3738,-4.4031,-4.4783,-4.5242,-4.4838,-4.5388,-4.5883,-4.5883,-4.5883,-4.5883,-4.5883,-4.5883,-4.4335,-4.0158,-3.9673,-3.8013,-3.38,-3.3414,-3.3414,-3.3414,-3.3414,-3.3414,-3.3414,-3.3414,-3.3414,-3.3414,-3.3414,-3.3414,-3.3414,-3.3414,-3.3414,-3.3414,-3.3414,-3.3414,-2.3383,-2.2501,-2.1622,-2.0855,-2.0869,-2.1212,-2.1534,-2.175,-2.1977,-2.2138,-2.2871,-2.4251,-2.6546,-2.4564,-2.4463,-3.0116,-2.8646,-2.7965,-3.119,-3.1799,-3.2074,-3.2496,-3.2955,-3.3303,-3.3468,-3.3688,-3.4024,-3.4646,-3.4853,-3.5196,-3.5743,-3.5908,-3.5976,-3.6016,-3.5976,-3.5976,-3.6016,-3.6016,-3.6367,-3.7031,-3.7637,-3.8164,-3.8574,-3.8574,-3.8672,-3.8887,-3.959,-4.0,-4.0215,-4.0898,-4.1172,-4.1172,-4.1172,-4.1172,-4.1172,-4.1172,-4.1172,-4.1172,-4.1172,-4.1172,-4.1172,-4.1172,-4.1172,-4.1172,-4.1172,-4.1072,-4.0842,-4.1038,-4.1096,-4.123,-4.1824,-4.2069,-4.2362,-4.2986,-4.3151,-4.3206,-4.3444,-4.3664,-4.394,-4.4343,-4.471,-4.4966,-4.5021,-4.5498,-4.5883,-4.5883,-4.5883,-4.5883,-4.5883,-4.5883,-4.4714,-4.172,-4.0352,-3.8503,-3.538,-3.41,-3.3414,-3.3414,-3.3414,-3.3414,-3.3414,-3.3414,-3.3414,-3.3414,-3.3414,-3.3414,-3.3414,-3.3414,-3.3414,-3.3414,-3.3414,-3.3414,-2.4031,-2.2902,-2.1877,-2.111,-2.0808,-2.0788,-2.1293,-2.1507,-2.1681,-2.183,-2.2776,-2.4036,-2.5923,-2.4335,-2.4525,-2.9788,-2.8069,-2.7338,-3.0737,-3.1231,-3.1414,-3.1946,-3.2551,-3.2955,-3.3065,-3.3321,-3.3779,-3.4395,-3.4626,-3.5024,-3.5656,-3.5499,-3.5586,-3.6016,-3.5605,-3.5586,-3.6016,-3.6016,-3.6406,-3.7148,-3.7461,-3.7891,-3.8418,-3.8418,-3.8476,-3.8613,-3.9394,-3.9785,-3.9961,-4.0703,-4.1074,-4.1172,-4.1172,-4.1172,-4.1172,-4.1172,-4.1172,-4.1172,-4.1172,-4.1172,-4.1172,-4.1172,-4.1172,-4.1172,-4.1172,-4.1073,-4.0947,-4.11,-4.1053,-4.1109,-4.1659,-4.1831,-4.2051,-4.2839,-4.3023,-4.3114,-4.3426,-4.3719,-4.4013,-4.4306,-4.4453,-4.4655,-4.5077,-4.548,-4.5773,-4.5865,-4.5883,-4.5883,-4.5883,-4.5883,-4.5111,-4.2967,-4.0932,-3.8796,-3.6652,-3.4585,-3.3414,-3.3414,-3.3414,-3.3414,-3.3414,-3.3414,-3.3414,-3.3414,-3.3414,-3.3414,-3.3414,-3.3414,-3.3414,-3.3414,-3.3334,-3.3334,-2.5034,-2.4039,-2.3037,-2.1862,-2.1087,-2.0681,-2.0722,-2.1212,-2.1614,-2.1641,-2.1856,-2.28,-2.5123,-2.4638,-2.5301,-2.952,-2.7899,-2.7192,-3.0375,-3.0827,-3.1121,-3.1909,-3.2038,-3.2221,-3.2588,-3.2643,-3.2795,-3.3177,-3.3887,-3.4518,-3.4874,-3.519,-3.5586,-3.6016,-3.5605,-3.5586,-3.6016,-3.6016,-3.625,-3.6699,-3.6719,-3.7168,-3.7969,-3.7969,-3.8184,-3.8594,-3.9043,-3.9492,-3.9922,-4.0371,-4.0801,-4.1172,-4.1172,-4.1172,-4.1172,-4.1172,-4.1172,-4.1172,-4.1172,-4.1172,-4.1172,-4.1172,-4.1172,-4.1172,-4.1172,-4.086,-4.0642,-4.1005,-4.0846,-4.083,-4.2002,-4.2252,-4.2454,-4.3261,-4.3463,-4.3463,-4.3499,-4.3518,-4.3536,-4.3554,-4.3866,-4.4233,-4.4636,-4.5058,-4.5462,-4.5828,-4.5883,-4.5883,-4.5883,-4.5883,-4.5111,-4.2967,-4.0932,-3.8796,-3.6652,-3.4585,-3.3414,-3.3414,-3.3414,-3.3414,-3.3414,-3.3414,-3.3414,-3.3414,-3.3414,-3.3414,-3.3414,-3.3414,-3.3414,-3.34,-3.3133,-3.3146,-2.511,-2.453,-2.4062,-2.3032,-2.1994,-2.1515,-2.2482,-2.2454,-2.2199,-2.2213,-2.3756,-2.5202,-2.52,-2.4338,-2.5059,-2.9169,-2.8079,-2.7576,-3.0065,-3.0406,-3.0607,-3.1157,-3.1689,-3.2056,-3.2203,-3.2441,-3.2855,-3.3454,-3.3719,-3.4146,-3.4743,-3.4622,-3.4746,-3.5156,-3.5019,-3.5293,-3.6016,-3.6016,-3.623,-3.668,-3.668,-3.7109,-3.793,-3.793,-3.8164,-3.8574,-3.873,-3.9043,-3.9512,-4.0234,-4.0625,-4.0781,-4.1074,-4.1172,-4.1172,-4.1172,-4.1172,-4.1172,-4.1172,-4.1172,-4.1172,-4.1172,-4.1172,-4.1172,-4.1172,-4.1269,-4.1285,-4.1162,-4.1178,-4.1346,-4.145,-4.1886,-4.2491,-4.3298,-4.3499,-4.3499,-4.3499,-4.3499,-4.3499,-4.3499,-4.3811,-4.4123,-4.427,-4.4856,-4.5352,-4.548,-4.5737,-4.5883,-4.5883,-4.5883,-4.5601,-4.4921,-4.172,-3.9381,-3.8601,-3.5366,-3.3414,-3.3414,-3.3414,-3.3414,-3.3414,-3.3414,-3.3414,-3.3414,-3.3414,-3.3414,-3.3414,-3.3414,-3.3414,-3.3414,-3.3307,-3.3213,-2.5624,-2.511,-2.4663,-2.3999,-2.3001,-2.246,-2.3434,-2.3035,-2.2401,-2.2457,-2.4099,-2.54,-2.504,-2.4797,-2.57,-2.8877,-2.8041,-2.773,-2.9708,-2.9984,-3.0185,-3.0717,-3.1267,-3.1653,-3.1781,-3.2038,-3.2448,-3.3058,-3.3368,-3.3707,-3.4296,-3.4154,-3.4199,-3.4473,-3.4766,-3.5215,-3.5801,-3.5957,-3.6172,-3.6445,-3.6445,-3.6894,-3.7715,-3.7715,-3.8027,-3.8574,-3.8574,-3.8809,-3.9258,-4.0,-4.0391,-4.0566,-4.0996,-4.1172,-4.1172,-4.1172,-4.1172,-4.1172,-4.1172,-4.1172,-4.1172,-4.1172,-4.1172,-4.1172,-4.1172,-4.1367,-4.1561,-4.1162,-4.1279,-4.1492,-4.135,-4.1867,-4.2656,-4.3334,-4.3499,-4.3499,-4.3499,-4.3499,-4.3499,-4.3499,-4.3701,-4.3976,-4.4233,-4.4728,-4.5187,-4.5462,-4.5718,-4.5883,-4.5883,-4.5883,-4.5883,-4.5883,-4.22,-3.9673,-3.9673,-3.5861,-3.3414,-3.3414,-3.3414,-3.3414,-3.3414,-3.3414,-3.3414,-3.3414,-3.3414,-3.3414,-3.3414,-3.3414,-3.3414,-3.3414,-3.3307,-3.316,0.0,0.0,0.0,-2.4834,-2.4135,-2.3483,-2.3483,-2.2744,-2.2198,-2.2506,-2.2701,-2.3231,-2.4731,-2.6156,-2.7504,-2.8797,-2.7942,-2.7643,-2.9307,-2.9562,-2.9874,-3.0681,-3.0791,-3.0937,-3.1341,-3.1377,-3.1506,-3.1846,-3.2607,-3.3222,-3.3546,-3.3934,-3.4062,-3.4082,-3.4902,-3.5351,-3.5371,-3.5801,-3.5996,-3.5996,-3.6016,-3.6465,-3.7285,-3.7285,-3.7754,-3.8555,-3.8555,-3.8789,-3.9219,-3.9687,-4.0117,-4.0547,-4.0976,-4.1172,-4.1172,-4.1172,-4.1172,-4.1172,-4.1172,-4.1172,-4.1172,-4.1172,-4.1172,-4.1172,-4.1172,-4.1191,-4.123,-4.1105,-4.1109,-4.1248,-4.1626,-4.2271,-4.2949,-4.3371,-4.3481,-4.3499,-4.3499,-4.3499,-4.3499,-4.3499,-4.3499,-4.3738,-4.4526,-4.4673,-4.4948,-4.5755,-4.5883,-4.5883,-4.5883,-4.5883,-4.5883,-4.5883,-4.22,-3.9673,-3.9673,-3.5861,-3.3414,-3.3414,-3.3414,-3.3414,-3.3414,-3.3414,-3.3414,-3.3414,-3.3414,-3.3414,-3.3414,-3.3414,-3.3414,-3.34,-3.3106,-3.2973,-2.6881,0.0,0.0,0.0,0.0,0.0,-2.5506,-2.5037,-2.4466,-2.4449,-2.5712,-2.6668,-2.61,-2.7372,-2.8558,-2.8916,-2.8677,-2.8594,-2.9122,-2.9397,-2.9764,-3.0296,-3.0626,-3.0937,-3.1341,-3.1377,-3.1506,-3.1846,-3.2343,-3.272,-3.3104,-3.3403,-3.375,-3.4062,-3.4316,-3.459,-3.4883,-3.5332,-3.5566,-3.5566,-3.5879,-3.6309,-3.6836,-3.6836,-3.7305,-3.8105,-3.8105,-3.834,-3.8789,-3.9219,-3.9668,-4.0117,-4.0547,-4.0898,-4.1172,-4.1172,-4.1172,-4.1172,-4.1172,-4.1172,-4.1172,-4.1172,-4.1172,-4.1172,-4.1172,-4.1601,-4.189,-4.1257,-4.1525,-4.1963,-4.1774,-4.2069,-4.2546,-4.2949,-4.3279,-4.3499,-4.3499,-4.3499,-4.3499,-4.3499,-4.3499,-4.3646,-4.416,-4.449,-4.4856,-4.5388,-4.57,-4.5883,-4.5883,-4.5883,-4.5883,-4.5883,-4.22,-3.9673,-3.9673,-3.5861,-3.3414,-3.3414,-3.3414,-3.3414,-3.3414,-3.3414,-3.3414,-3.3414,-3.3414,-3.3414,-3.3414,-3.3414,-3.3414,-3.34,-3.3106,-3.2973,0.0,-2.6899,-2.6736,-2.6646,0.0,0.0,-2.6427,-2.5732,-2.4949,-2.5145,-2.6079,-2.6739,-2.6265,-2.7463,-2.8535,-2.8718,-2.8737,-2.8792,-2.8957,-2.9177,-2.947,-2.9892,-3.0296,-3.0699,-3.1102,-3.1286,-3.1506,-3.1653,-3.2102,-3.2613,-3.3102,-3.3292,-3.3535,-3.3789,-3.3984,-3.4199,-3.4434,-3.5078,-3.5391,-3.5391,-3.582,-3.625,-3.668,-3.6855,-3.7305,-3.793,-3.8125,-3.834,-3.8594,-3.8828,-3.9316,-3.9941,-4.0351,-4.0781,-4.1172,-4.1172,-4.1172,-4.1172,-4.1172,-4.1172,-4.1172,-4.1172,-4.1172,-4.1172,-4.1172,-4.1523,-4.1775,-4.109,-4.1248,-4.1584,-4.1487,-4.1721,-4.2179,-4.2729,-4.3059,-4.3279,-4.3463,-4.3499,-4.3499,-4.3499,-4.3499,-4.3664,-4.4233,-4.4526,-4.4875,-4.5462,-4.5737,-4.5883,-4.5883,-4.5883,-4.5883,-4.5883,-4.22,-3.9673,-3.9673,-3.5861,-3.3414,-3.3414,-3.3414,-3.3414,-3.3414,-3.3414,-3.3414,-3.3414,-3.3414,-3.3414,-3.3414,-3.3414,-3.3414,-3.3414,-3.324,-3.316,0.0,0.0,0.0,-2.6682,-2.6646,0.0,-2.6591,-2.5522,-2.4617,-2.525,-2.5203,-2.5276,-2.5875,-2.6968,-2.795,-2.826,-2.837,-2.8535,-2.892,-2.8975,-2.914,-2.958,-2.9929,-3.0296,-3.0754,-3.1102,-3.1304,-3.1304,-3.2001,-3.2676,-3.3355,-3.3418,-3.3418,-3.3418,-3.3789,-3.4004,-3.4004,-3.4883,-3.5312,-3.5332,-3.5801,-3.623,-3.6621,-3.7031,-3.7441,-3.7812,-3.8301,-3.8496,-3.8496,-3.8555,-3.9062,-3.9863,-4.0293,-4.0723,-4.1113,-4.1152,-4.1172,-4.1172,-4.1172,-4.1172,-4.1172,-4.1172,-4.1172,-4.1172,-4.1172,-4.1211,-4.1172,-4.0709,-4.0603,-4.063,-4.0979,-4.1335,-4.1867,-4.2619,-4.2839,-4.2986,-4.3408,-4.3499,-4.3499,-4.3499,-4.3499,-4.3738,-4.4471,-4.4636,-4.493,-4.57,-4.5865,-4.5883,-4.5883,-4.5883,-4.5883,-4.5883,-4.2392,-3.9964,-3.9673,-3.6059,-3.3614,-3.3414,-3.3414,-3.3414,-3.3414,-3.3414,-3.3414,-3.3414,-3.3414,-3.3414,-3.3414,-3.3414,-3.3414,-3.3414,-3.3374,-3.3374,-2.7745,-2.753,-2.726,-2.6989,-2.6935,0.0,-2.6646,-2.6354,-2.6173,-2.6281,-2.6553,-2.6752,-2.6915,-2.7432,-2.7858,-2.7875,-2.8168,-2.8535,-2.892,-2.8975,-2.925,-2.9984,-2.9855,-2.9984,-3.0717,-3.0864,-3.0901,-3.0901,-3.1851,-3.2676,-3.3355,-3.3418,-3.3418,-3.3418,-3.3496,-3.3555,-3.3555,-3.4394,-3.4824,-3.4844,-3.5644,-3.6074,-3.6152,-3.6601,-3.6836,-3.6953,-3.7715,-3.8047,-3.8086,-3.8437,-3.8887,-3.9375,-3.9844,-4.0273,-4.0684,-4.1035,-4.1172,-4.1172,-4.1172,-4.1172,-4.1172,-4.1172,-4.1172,-4.1172,-4.1172,-4.1406,-4.16,-4.1128,-4.0971,-4.0971,-4.0648,-4.1134,-4.1812,-4.2289,-4.2637,-4.2986,-4.3408,-4.3499,-4.3499,-4.3499,-4.3499,-4.3646,-4.4123,-4.4471,-4.4838,-4.5333,-4.5682,-4.5883,-4.5883,-4.5883,-4.5883,-4.5883,-4.3652,-4.1511,-3.9867,-3.7326,-3.5182,-3.3514,-3.3414,-3.3414,-3.3414,-3.3414,-3.3414,-3.3414,-3.3414,-3.3414,-3.3414,-3.3414,-3.3414,-3.34,-3.3173,-3.3187,-2.796,-2.7799,-2.7584,-2.726,-2.7206,0.0,0.0,-2.6643,-2.6496,-2.6591,-2.6573,-2.6628,-2.6848,-2.705,-2.7306,-2.7748,-2.7783,-2.8058,-2.8865,-2.8975,-2.914,-2.9544,-2.958,-2.9819,-3.0442,-3.0497,-3.0696,-3.1258,-3.1797,-3.2447,-3.3355,-3.3223,-3.3203,-3.3418,-3.3418,-3.3418,-3.3418,-3.4062,-3.4492,-3.4707,-3.5391,-3.582,-3.6035,-3.668,-3.6992,-3.7031,-3.7891,-3.8242,-3.8262,-3.8476,-3.8691,-3.8965,-3.9629,-4.0156,-4.0586,-4.1016,-4.1172,-4.1172,-4.1172,-4.1172,-4.1172,-4.1172,-4.1172,-4.1172,-4.1172,-4.1152,-4.1032,-4.061,-4.064,-4.0719,-4.0326,-4.0767,-4.1519,-4.2142,-4.2417,-4.2747,-4.3371,-4.3499,-4.3499,-4.3499,-4.3499,-4.3683,-4.427,-4.4545,-4.4875,-4.5498,-4.5755,-4.5883,-4.5883,-4.5883,-4.5883,-4.5883,-4.3062,-4.0836,-3.977,-3.6751,-3.4485,-3.3514,-3.3414,-3.3414,-3.3414,-3.3414,-3.3414,-3.3414,-3.3414,-3.3414,-3.3414,-3.3414,-3.3334,-3.3187,-3.3053,-3.3053,-2.8246,-2.8211,-2.8138,-2.7736,-2.7609,-2.7536,0.0,0.0,0.0,-2.6735,-2.6478,-2.6277,-2.6626,-2.6646,-2.6793,-2.7435,-2.7454,-2.7693,-2.8608,-2.8883,-2.9012,-2.9085,-2.9305,-2.9617,-3.0039,-3.0075,-3.0606,-3.1791,-3.1759,-3.2205,-3.3335,-3.3027,-3.2988,-3.3418,-3.3418,-3.3418,-3.3418,-3.3848,-3.4277,-3.4707,-3.5176,-3.5605,-3.6055,-3.6816,-3.7168,-3.7226,-3.8086,-3.8457,-3.8457,-3.8535,-3.8574,-3.8672,-3.9551,-4.0098,-4.0469,-4.0976,-4.1172,-4.1172,-4.1172,-4.1172,-4.1172,-4.1172,-4.1172,-4.1172,-4.1172,-4.0841,-4.0451,-4.0075,-4.0245,-4.044,-4.0105,-4.0593,-4.1244,-4.1996,-4.2216,-4.2472,-4.3224,-4.3444,-4.3499,-4.3499,-4.3499,-4.3719,-4.4435,-4.4618,-4.493,-4.5663,-4.5847,-4.5883,-4.5883,-4.5883,-4.5883,-4.5883,-4.2584,-4.0158,-3.977,-3.6158,-3.38,-3.3414,-3.3414,-3.3414,-3.3414,-3.3414,-3.3414,-3.3414,-3.3414,-3.3414,-3.3414,-3.3414,-3.3293,-3.3066,-3.3,-3.3013,-2.9316,-2.9414,-2.9225,-2.8526,-2.8394,-2.8224,-2.7517,0.0,-2.7257,-2.7314,0.0,-2.6879,-2.6935,0.0,0.0,-2.6701,-2.727,-2.7803,-2.7932,-2.8535,-2.9104,-2.947,-2.9232,-2.9214,-2.9599,-2.9654,-3.0421,-3.2188,-3.1664,-3.188,-3.3316,-3.3027,-3.2988,-3.3418,-3.3418,-3.3418,-3.3418,-3.3848,-3.4277,-3.4707,-3.5176,-3.5605,-3.6035,-3.6523,-3.6738,-3.6797,-3.7637,-3.7988,-3.8027,-3.8418,-3.8574,-3.8672,-3.9551,-3.9922,-4.0059,-4.0879,-4.1172,-4.1172,-4.1172,-4.1172,-4.1172,-4.1172,-4.1172,-4.1172,-4.1172,-4.0841,-4.0508,-4.0417,-4.0471,-4.0514,-4.0474,-4.073,-4.117,-4.1647,-4.2014,-4.2399,-4.2839,-4.3224,-4.3499,-4.3499,-4.3499,-4.3628,-4.4068,-4.4435,-4.4838,-4.5297,-4.5663,-4.5883,-4.5883,-4.5883,-4.5883,-4.5883,-4.3842,-4.172,-3.9867,-3.7523,-3.538,-3.3514,-3.3414,-3.3414,-3.3414,-3.3414,-3.3414,-3.3414,-3.3414,-3.3414,-3.3414,-3.3414,-3.3387,-3.336,-3.3093,-3.312,-2.9531,-2.9626,-2.9473,-2.8878,-2.8707,-2.8555,-2.7841,-2.7691,-2.7638,-2.7422,0.0,0.0,0.0,0.0,0.0,0.0,-2.7753,-2.8015,-2.8031,-2.8085,-2.8434,-2.9182,-2.9085,-2.9048,-2.9214,-2.9654,-3.0365,-3.1262,-3.1001,-3.1478,-3.2945,-3.2656,-3.2734,-3.3398,-3.3418,-3.3418,-3.3418,-3.3613,-3.4043,-3.4707,-3.4902,-3.5351,-3.6035,-3.6465,-3.6797,-3.707,-3.7676,-3.8066,-3.832,-3.8496,-3.8574,-3.8633,-3.9258,-3.9668,-3.9961,-4.0566,-4.0957,-4.1172,-4.1172,-4.1172,-4.1172,-4.1172,-4.1172,-4.1172,-4.1172,-4.0841,-4.0527,-4.0474,-4.0508,-4.0514,-4.0529,-4.0767,-4.117,-4.1592,-4.1996,-4.2381,-4.2784,-4.3206,-4.3499,-4.3499,-4.3499,-4.3628,-4.4013,-4.4215,-4.4636,-4.5517,-4.559,-4.5627,-4.5865,-4.5883,-4.5883,-4.5883,-4.2967,-4.0642,-3.977,-3.6637,-3.43,-3.3414,-3.3414,-3.3414,-3.3414,-3.3414,-3.3414,-3.3414,-3.3414,-3.3414,-3.3414,-3.3414,-3.3414,-3.3414,-3.328,-3.3293,-2.9746,-2.9844,-2.9805,-2.9238,-2.9101,-2.8891,-2.8203,-2.811,-2.8134,-2.7864,-2.785,0.0,0.0,0.0,0.0,0.0,0.0,-2.8445,-2.8521,-2.8258,-2.8237,-2.8777,-2.9012,-2.9255,-2.9425,-2.9867,-3.0432,-3.1028,-3.0686,-3.1098,-3.2578,-3.2344,-3.25,-3.3223,-3.3359,-3.3418,-3.3418,-3.3418,-3.3848,-3.4707,-3.4707,-3.5156,-3.6035,-3.6348,-3.6719,-3.7148,-3.7578,-3.8008,-3.8398,-3.8535,-3.8574,-3.8613,-3.8906,-3.9316,-3.9766,-4.0312,-4.0723,-4.1016,-4.1133,-4.1172,-4.1172,-4.1172,-4.1172,-4.1172,-4.1172,-4.0841,-4.0546,-4.0626,-4.0583,-4.0551,-4.0658,-4.084,-4.1134,-4.1445,-4.1904,-4.2362,-4.2637,-4.3114,-4.3499,-4.3499,-4.3499,-4.3646,-4.416,-4.416,-4.4453,-4.5572,-4.548,-4.5443,-4.5847,-4.5883,-4.5883,-4.5883,-4.268,-4.0352,-3.977,-3.6356,-3.4,-3.3414,-3.3414,-3.3414,-3.3414,-3.3414,-3.3414,-3.3414,-3.3414,-3.3414,-3.3414,-3.3414,-3.3414,-3.3414,-3.3414,-3.3454,-3.0176,-3.0508,-3.0644,-2.9766,-2.9607,-2.9336,-2.8476,-2.8613,-2.8832,-2.8852,-2.8962,-2.9028,-2.9028,0.0,0.0,0.0,0.0,0.0,0.0,-2.9259,-2.9066,-2.8465,-2.9085,-2.9891,-3.0605,-3.0307,-3.0663,-3.2138,-3.1103,-3.0895,-3.2148,-3.2229,-3.2363,-3.2793,-3.3203,-3.3418,-3.3418,-3.3418,-3.3848,-3.4707,-3.4707,-3.5156,-3.6016,-3.6035,-3.6289,-3.6719,-3.7129,-3.7559,-3.7969,-3.8398,-3.8574,-3.8574,-3.8594,-3.8848,-3.9336,-4.0195,-4.0527,-4.0605,-4.1035,-4.1172,-4.1172,-4.1172,-4.1172,-4.1172,-4.1172,-4.0841,-4.0604,-4.0986,-4.0828,-4.0607,-4.1008,-4.1042,-4.106,-4.1163,-4.1702,-4.2289,-4.2289,-4.2931,-4.3499,-4.3499,-4.3499,-4.3738,-4.4508,-4.4343,-4.4361,-4.5205,-4.5315,-4.5443,-4.5847,-4.5883,-4.5883,-4.5883,-4.3937,-4.1912,-3.9867,-3.7621,-3.5579,-3.3514,-3.3414,-3.3414,-3.3414,-3.3414,-3.3414,-3.3414,-3.3414,-3.3414,-3.3414,-3.3414,-3.3414,-3.3414,-3.3414,-3.3574,-3.0644,-3.0762,-3.0742,-3.0137,-2.998,-2.9844,-2.9277,-2.9023,-2.9004,-2.9297,-2.9128,-2.9053,-2.9344,0.0,0.0,0.0,0.0,0.0,0.0,-2.9222,-2.9126,-2.8633,-2.9327,-2.9889,-3.0159,-3.0111,-3.0385,-3.0986,-3.0464,-3.0583,-3.1699,-3.2012,-3.2363,-3.2793,-3.3203,-3.3418,-3.3418,-3.3711,-3.4004,-3.4297,-3.4883,-3.5312,-3.5605,-3.5898,-3.625,-3.6699,-3.7109,-3.7383,-3.7559,-3.8281,-3.8398,-3.8164,-3.8457,-3.8652,-3.8887,-3.9785,-4.0273,-4.0586,-4.1016,-4.1172,-4.1172,-4.1172,-4.1172,-4.1172,-4.1172,-4.0685,-4.023,-4.0925,-4.0584,-4.028,-4.0924,-4.106,-4.106,-4.106,-4.1684,-4.2271,-4.2271,-4.2913,-4.3499,-4.3499,-4.3499,-4.3664,-4.4196,-4.4178,-4.4453,-4.5535,-4.5462,-4.5443,-4.5847,-4.5883,-4.5883,-4.5883,-4.2775,-4.0449,-3.977,-3.6455,-3.42,-3.3414,-3.3414,-3.3414,-3.3414,-3.3414,-3.3414,-3.3414,-3.3414,-3.3414,-3.3414,-3.3627,-3.3614,-3.3414,-3.3627,-3.3881,-3.0684,-3.0762,-3.0781,-3.0312,-3.0195,-3.0078,-2.9668,-2.9355,-2.9277,-2.9707,-2.9453,-2.9277,-2.9707,0.0,0.0,0.0,0.0,0.0,0.0,-2.9468,-2.947,-2.9048,-2.9659,-3.0092,-2.9941,-3.026,-3.0376,-3.043,-3.0274,-3.0585,-3.1269,-3.1855,-3.2285,-3.2559,-3.3125,-3.3418,-3.3418,-3.3848,-3.4141,-3.4297,-3.5039,-3.5469,-3.5625,-3.5898,-3.6172,-3.6465,-3.7051,-3.7305,-3.7363,-3.8223,-3.8418,-3.8184,-3.8457,-3.8574,-3.8672,-3.9375,-4.0019,-4.0586,-4.1016,-4.1172,-4.1172,-4.1172,-4.1094,-4.0919,-4.0919,-4.0451,-3.9975,-4.0513,-4.0391,-4.0243,-4.0759,-4.095,-4.106,-4.106,-4.1684,-4.2271,-4.2271,-4.2913,-4.3499,-4.3499,-4.3499,-4.3664,-4.4196,-4.4288,-4.4618,-4.5535,-4.5462,-4.5443,-4.5847,-4.5883,-4.5883,-4.5883,-4.2871,-4.0158,-3.8698,-3.5366,-3.3414,-3.3414,-3.3414,-3.3414,-3.3414,-3.3414,-3.3614,-3.4042,-3.3627,-3.3668,-3.4202,-3.3988,-3.3841,-3.3734,-3.3948,-3.4135]},{"header":{"parameterUnit":"m.s-1","parameterCategory":1,"la1":30.6,"la2":29.2853,"lo1":-89.7004,"lo2":-87.6739,"dy":0.0162,"dx":0.0183,"nx":112,"ny":82,"refTime":"2023-10-23T18:00:00:Z","depth":0,"parameterNumber":3,"parameterNumberName":"V-component_of_WINDS"},"data":[0.0,0.0,0.0,0.0,0.0,0.0,0.0,0.0,0.0,0.0,0.0,0.0,0.0,0.0,0.0,0.0,0.0,0.0,0.0,0.0,0.0,0.0,0.0,0.0,0.0,0.0,0.0,0.0,0.0,0.0,0.0,0.0,0.0,0.0,0.0,0.0,0.0,0.0,0.0,0.0,0.0,0.0,0.0,0.0,0.0,0.0,0.0,0.0,0.0,0.0,0.0,0.0,0.0,0.0,0.0,0.0,0.0,0.0,0.0,0.0,0.0,0.0,0.0,0.0,0.0,0.0,0.0,0.0,0.0,0.0,0.0,0.0,0.0,0.0,0.0,0.0,0.0,0.0,0.0,0.0,0.0,0.0,0.0,0.0,0.0,0.0,0.0,0.0,0.0,0.0,5.6561,5.8316,6.1612,6.3571,6.3364,6.3325,6.2045,5.9145,0.0,0.0,0.0,0.0,0.0,0.0,0.0,0.0,0.0,0.0,0.0,0.0,0.0,0.0,0.0,0.0,0.0,0.0,0.0,0.0,0.0,0.0,0.0,0.0,0.0,0.0,0.0,0.0,0.0,0.0,0.0,0.0,0.0,0.0,0.0,0.0,0.0,0.0,0.0,0.0,0.0,0.0,0.0,0.0,0.0,0.0,0.0,0.0,0.0,0.0,0.0,0.0,0.0,0.0,0.0,0.0,0.0,0.0,0.0,0.0,0.0,0.0,0.0,0.0,0.0,0.0,0.0,0.0,0.0,0.0,0.0,0.0,0.0,0.0,0.0,0.0,0.0,0.0,0.0,0.0,0.0,0.0,0.0,0.0,0.0,0.0,0.0,0.0,0.0,0.0,0.0,0.0,0.0,0.0,0.0,0.0,0.0,0.0,0.0,0.0,0.0,0.0,0.0,0.0,5.8527,6.1406,6.3075,6.4392,6.528,6.3806,6.2047,6.0244,0.0,0.0,0.0,0.0,0.0,0.0,0.0,0.0,0.0,0.0,0.0,0.0,0.0,0.0,0.0,0.0,0.0,0.0,0.0,0.0,0.0,0.0,0.0,0.0,0.0,0.0,0.0,0.0,0.0,0.0,0.0,0.0,0.0,0.0,0.0,0.0,0.0,0.0,0.0,0.0,0.0,0.0,0.0,0.0,0.0,0.0,0.0,0.0,0.0,0.0,0.0,0.0,0.0,0.0,0.0,0.0,0.0,0.0,0.0,0.0,0.0,0.0,0.0,0.0,0.0,0.0,0.0,0.0,0.0,0.0,0.0,0.0,0.0,0.0,0.0,0.0,0.0,0.0,0.0,0.0,0.0,0.0,0.0,0.0,0.0,0.0,0.0,0.0,0.0,0.0,0.0,0.0,0.0,0.0,0.0,0.0,0.0,0.0,0.0,0.0,0.0,0.0,0.0,5.8346,6.0242,6.2694,6.4202,6.5315,6.6021,6.4022,6.2299,6.1315,5.9682,0.0,0.0,0.0,0.0,0.0,0.0,0.0,0.0,0.0,0.0,0.0,0.0,0.0,0.0,0.0,0.0,0.0,0.0,0.0,0.0,0.0,0.0,0.0,0.0,0.0,0.0,0.0,0.0,0.0,0.0,0.0,0.0,0.0,0.0,0.0,0.0,0.0,0.0,0.0,0.0,0.0,0.0,0.0,0.0,0.0,0.0,0.0,0.0,0.0,0.0,0.0,0.0,0.0,0.0,0.0,0.0,0.0,0.0,0.0,0.0,0.0,0.0,0.0,0.0,0.0,0.0,0.0,0.0,0.0,0.0,0.0,0.0,0.0,0.0,0.0,0.0,0.0,0.0,0.0,0.0,0.0,0.0,0.0,0.0,0.0,0.0,0.0,0.0,0.0,0.0,0.0,0.0,0.0,0.0,0.0,0.0,0.0,0.0,0.0,0.0,0.0,0.0,5.9957,6.1564,6.3703,6.5117,6.6025,6.6269,6.4315,6.273,6.1797,5.9832,0.0,0.0,0.0,0.0,0.0,0.0,0.0,0.0,0.0,0.0,0.0,0.0,0.0,0.0,0.0,0.0,0.0,0.0,0.0,0.0,0.0,0.0,0.0,0.0,0.0,0.0,0.0,0.0,0.0,0.0,0.0,0.0,0.0,0.0,0.0,0.0,0.0,0.0,0.0,0.0,0.0,0.0,0.0,0.0,0.0,0.0,0.0,0.0,0.0,0.0,0.0,0.0,0.0,0.0,0.0,0.0,0.0,0.0,0.0,0.0,0.0,0.0,0.0,0.0,0.0,0.0,0.0,0.0,0.0,0.0,0.0,0.0,0.0,0.0,0.0,0.0,0.0,0.0,0.0,0.0,0.0,0.0,0.0,0.0,0.0,0.0,0.0,0.0,0.0,0.0,0.0,0.0,0.0,0.0,0.0,0.0,0.0,0.0,0.0,0.0,0.0,0.0,6.0813,6.2241,6.5304,6.6016,6.6269,6.63,6.5062,6.3317,6.1,6.0013,0.0,0.0,0.0,0.0,0.0,0.0,0.0,0.0,0.0,0.0,0.0,0.0,0.0,0.0,0.0,0.0,0.0,0.0,0.0,0.0,0.0,0.0,0.0,0.0,0.0,0.0,0.0,0.0,0.0,0.0,0.0,0.0,0.0,0.0,0.0,0.0,0.0,0.0,0.0,0.0,0.0,0.0,0.0,0.0,0.0,0.0,0.0,0.0,0.0,0.0,0.0,0.0,0.0,0.0,0.0,0.0,0.0,0.0,0.0,0.0,0.0,0.0,0.0,0.0,0.0,0.0,0.0,0.0,0.0,0.0,0.0,0.0,0.0,0.0,0.0,0.0,0.0,0.0,0.0,0.0,0.0,0.0,0.0,0.0,0.0,0.0,0.0,0.0,0.0,0.0,0.0,0.0,0.0,0.0,0.0,0.0,0.0,0.0,0.0,0.0,0.0,0.0,6.1722,6.3017,6.5425,6.6259,6.6608,6.6608,6.5243,6.378,6.2404,0.0,0.0,0.0,0.0,0.0,0.0,0.0,0.0,0.0,0.0,0.0,0.0,0.0,0.0,0.0,0.0,0.0,0.0,0.0,0.0,0.0,0.0,0.0,0.0,0.0,0.0,0.0,0.0,0.0,0.0,0.0,0.0,0.0,0.0,0.0,0.0,0.0,0.0,0.0,0.0,0.0,0.0,0.0,0.0,0.0,0.0,0.0,0.0,0.0,0.0,0.0,0.0,0.0,0.0,0.0,0.0,0.0,0.0,0.0,0.0,0.0,0.0,0.0,0.0,0.0,0.0,0.0,0.0,0.0,0.0,0.0,0.0,0.0,0.0,0.0,0.0,0.0,0.0,0.0,0.0,0.0,0.0,0.0,0.0,0.0,0.0,0.0,0.0,0.0,0.0,0.0,0.0,0.0,0.0,0.0,0.0,0.0,0.0,0.0,0.0,0.0,0.0,6.1731,6.2501,6.3661,6.5743,6.646,6.6786,6.6786,6.5084,6.378,6.32,0.0,0.0,0.0,0.0,0.0,0.0,0.0,0.0,0.0,0.0,0.0,0.0,0.0,0.0,0.0,0.0,0.0,0.0,0.0,0.0,0.0,0.0,0.0,0.0,0.0,0.0,0.0,0.0,0.0,0.0,0.0,0.0,0.0,0.0,0.0,0.0,0.0,0.0,0.0,0.0,0.0,0.0,0.0,0.0,0.0,0.0,0.0,0.0,0.0,0.0,0.0,0.0,0.0,0.0,0.0,0.0,0.0,0.0,0.0,0.0,0.0,0.0,0.0,0.0,0.0,0.0,0.0,0.0,0.0,0.0,0.0,0.0,0.0,0.0,0.0,0.0,0.0,0.0,0.0,0.0,0.0,0.0,0.0,0.0,0.0,0.0,0.0,0.0,0.0,0.0,0.0,0.0,0.0,0.0,0.0,0.0,0.0,0.0,0.0,0.0,0.0,0.0,6.2515,6.306,6.4106,6.6533,6.6786,6.6786,6.6786,6.4577,6.32,0.0,0.0,0.0,0.0,0.0,0.0,0.0,0.0,0.0,0.0,0.0,0.0,0.0,0.0,0.0,0.0,0.0,0.0,0.0,0.0,0.0,0.0,0.0,0.0,0.0,0.0,0.0,0.0,0.0,0.0,0.0,0.0,0.0,0.0,0.0,0.0,0.0,0.0,0.0,0.0,0.0,0.0,0.0,0.0,0.0,0.0,0.0,0.0,0.0,0.0,0.0,0.0,0.0,0.0,0.0,0.0,0.0,0.0,0.0,0.0,0.0,0.0,0.0,0.0,0.0,0.0,0.0,0.0,0.0,0.0,0.0,0.0,0.0,0.0,0.0,0.0,0.0,0.0,0.0,0.0,0.0,0.0,0.0,0.0,0.0,0.0,0.0,0.0,0.0,0.0,0.0,0.0,0.0,0.0,0.0,0.0,0.0,0.0,0.0,0.0,0.0,0.0,0.0,6.3631,6.3498,6.4106,6.6533,6.6786,6.6786,6.6786,6.512,6.378,6.3265,0.0,0.0,0.0,0.0,0.0,0.0,0.0,0.0,0.0,0.0,0.0,0.0,0.0,0.0,0.0,0.0,0.0,0.0,0.0,0.0,0.0,0.0,0.0,0.0,0.0,0.0,0.0,0.0,0.0,0.0,0.0,0.0,0.0,0.0,0.0,0.0,0.0,0.0,0.0,0.0,0.0,0.0,0.0,0.0,0.0,0.0,0.0,0.0,0.0,0.0,0.0,0.0,0.0,0.0,0.0,0.0,0.0,0.0,0.0,0.0,0.0,0.0,0.0,0.0,0.0,0.0,0.0,0.0,0.0,0.0,0.0,0.0,0.0,0.0,0.0,0.0,0.0,0.0,0.0,0.0,0.0,0.0,0.0,0.0,0.0,0.0,0.0,0.0,0.0,0.0,0.0,0.0,0.0,0.0,0.0,0.0,0.0,0.0,0.0,0.0,0.0,0.0,6.4178,6.4541,6.5301,6.7112,6.7583,6.7619,6.7329,6.5808,6.4541,6.3708,0.0,0.0,0.0,0.0,0.0,0.0,0.0,0.0,0.0,0.0,0.0,0.0,0.0,0.0,0.0,0.0,0.0,0.0,0.0,0.0,0.0,0.0,0.0,0.0,0.0,0.0,0.0,0.0,0.0,0.0,0.0,0.0,0.0,0.0,0.0,0.0,0.0,0.0,0.0,0.0,0.0,0.0,0.0,0.0,0.0,0.0,0.0,0.0,0.0,0.0,0.0,0.0,0.0,0.0,0.0,0.0,0.0,0.0,0.0,0.0,0.0,0.0,0.0,0.0,0.0,0.0,0.0,0.0,0.0,0.0,0.0,0.0,0.0,0.0,0.0,0.0,0.0,0.0,0.0,0.0,0.0,0.0,0.0,0.0,0.0,0.0,0.0,0.0,0.0,0.0,0.0,0.0,0.0,0.0,0.0,0.0,0.0,0.0,0.0,0.0,0.0,0.0,6.4396,6.5844,6.7148,6.8017,6.8814,6.8995,6.8199,6.6714,6.541,6.4468,0.0,0.0,0.0,0.0,0.0,0.0,0.0,0.0,0.0,0.0,0.0,0.0,0.0,0.0,0.0,0.0,0.0,0.0,0.0,0.0,0.0,0.0,0.0,0.0,0.0,0.0,0.0,0.0,0.0,0.0,0.0,0.0,0.0,0.0,0.0,0.0,0.0,0.0,0.0,0.0,0.0,0.0,0.0,0.0,0.0,0.0,0.0,0.0,0.0,0.0,0.0,0.0,0.0,0.0,0.0,0.0,0.0,0.0,0.0,0.0,6.1534,6.1923,0.0,0.0,0.0,0.0,0.0,0.0,0.0,0.0,0.0,0.0,0.0,0.0,0.0,0.0,0.0,0.0,0.0,0.0,0.0,0.0,0.0,0.0,0.0,0.0,0.0,0.0,0.0,0.0,0.0,0.0,0.0,0.0,0.0,0.0,0.0,0.0,0.0,0.0,0.0,0.0,6.5156,6.6207,6.7366,6.8778,6.9678,6.9823,6.8995,6.8054,6.6605,6.4504,6.215,0.0,0.0,0.0,0.0,0.0,0.0,0.0,0.0,0.0,0.0,0.0,0.0,0.0,0.0,0.0,0.0,0.0,0.0,0.0,0.0,0.0,0.0,0.0,0.0,0.0,0.0,0.0,0.0,0.0,0.0,0.0,0.0,0.0,0.0,0.0,0.0,0.0,0.0,0.0,0.0,0.0,0.0,0.0,0.0,0.0,0.0,0.0,0.0,0.0,0.0,0.0,0.0,0.0,0.0,0.0,0.0,0.0,0.0,0.0,6.2304,6.1978,0.0,0.0,0.0,0.0,0.0,0.0,0.0,0.0,0.0,0.0,0.0,0.0,0.0,0.0,0.0,0.0,0.0,0.0,0.0,0.0,0.0,0.0,0.0,0.0,0.0,0.0,0.0,0.0,0.0,0.0,0.0,0.0,0.0,0.0,0.0,0.0,0.0,0.0,0.0,0.0,6.5482,6.7293,6.885,6.9714,7.0444,7.077,7.0335,6.9249,6.7873,6.6243,6.3546,0.0,0.0,0.0,0.0,0.0,0.0,0.0,0.0,0.0,0.0,0.0,0.0,0.0,0.0,0.0,0.0,0.0,0.0,0.0,0.0,0.0,0.0,0.0,0.0,0.0,0.0,0.0,0.0,0.0,0.0,0.0,0.0,0.0,0.0,0.0,0.0,0.0,0.0,0.0,0.0,0.0,0.0,0.0,0.0,0.0,0.0,0.0,0.0,0.0,0.0,0.0,0.0,0.0,6.3961,6.4359,6.5011,6.5156,6.5591,6.6098,6.4142,6.3019,6.2593,6.2476,0.0,0.0,0.0,0.0,0.0,0.0,0.0,0.0,0.0,0.0,0.0,0.0,0.0,0.0,0.0,0.0,0.0,0.0,0.0,0.0,0.0,0.0,6.8706,6.8997,6.9544,6.9231,6.6351,0.0,0.0,0.0,0.0,0.0,0.0,0.0,0.0,0.0,0.0,0.0,6.5772,6.8488,7.0444,7.0553,7.1277,7.1675,7.1562,7.0506,6.9346,6.818,6.5573,6.3548,0.0,0.0,0.0,0.0,0.0,0.0,0.0,0.0,0.0,0.0,0.0,0.0,0.0,0.0,0.0,0.0,0.0,0.0,0.0,0.0,0.0,0.0,0.0,0.0,0.0,0.0,0.0,0.0,0.0,0.0,0.0,0.0,5.7087,5.7138,0.0,0.0,0.0,0.0,0.0,0.0,0.0,0.0,0.0,0.0,0.0,0.0,0.0,6.4432,6.512,6.5808,6.6243,6.6351,6.704,6.7438,6.7547,6.8235,6.8627,6.8736,6.841,0.0,6.5084,6.4359,0.0,0.0,0.0,0.0,0.0,0.0,0.0,0.0,0.0,0.0,0.0,0.0,0.0,0.0,0.0,0.0,0.0,0.0,0.0,0.0,0.0,0.0,7.0711,7.1434,7.1689,7.1623,7.1192,6.883,6.6361,6.4729,6.3857,6.3294,0.0,0.0,0.0,0.0,0.0,0.0,6.6569,6.8814,7.0625,7.1277,7.2074,7.2355,7.1791,7.2185,7.1302,6.8502,6.7356,6.546,6.2506,6.162,0.0,0.0,0.0,0.0,0.0,0.0,0.0,0.0,0.0,0.0,0.0,0.0,0.0,0.0,0.0,0.0,0.0,0.0,0.0,0.0,0.0,0.0,0.0,0.0,0.0,0.0,0.0,0.0,0.0,5.7695,5.8202,5.7297,5.7985,5.8202,0.0,0.0,0.0,0.0,0.0,0.0,0.0,0.0,0.0,6.3454,6.4975,6.6134,6.6931,6.7293,6.7945,6.8814,6.9176,6.9575,7.0009,7.0806,7.1168,7.1205,7.2237,7.1542,6.9582,6.744,6.5807,6.4646,0.0,0.0,0.0,0.0,6.5004,6.5077,6.6007,6.629,6.618,6.6107,0.0,0.0,0.0,0.0,0.0,0.0,0.0,6.8866,7.0654,7.1735,7.2459,7.2914,7.3317,7.3537,7.3127,7.1853,7.0185,6.794,6.6397,6.5204,6.4276,6.3412,0.0,0.0,0.0,6.712,6.8895,7.0787,7.2247,7.3047,7.3447,7.3733,7.3905,7.3026,7.2036,7.1149,6.9193,6.724,6.534,6.414,6.2859,0.0,0.0,0.0,0.0,0.0,0.0,0.0,0.0,0.0,0.0,0.0,0.0,0.0,0.0,0.0,0.0,0.0,0.0,0.0,0.0,0.0,0.0,0.0,0.0,0.0,0.0,0.0,0.0,5.8383,5.9253,5.7406,5.8999,5.9506,0.0,0.0,0.0,0.0,0.0,0.0,6.2912,6.3755,6.4916,6.6606,6.7534,6.841,6.9274,6.9491,7.018,7.1407,7.1837,7.2309,7.289,7.3905,7.4341,7.4413,7.5774,7.5584,7.4056,7.0817,6.8561,6.7069,6.6818,6.6436,6.618,6.7258,6.755,6.755,6.8783,6.8958,6.8556,6.8154,6.7724,6.7185,6.6126,0.0,0.0,0.0,0.0,7.0719,7.2512,7.353,7.4249,7.4558,7.5102,7.5359,7.4735,7.4441,7.3538,7.0858,6.9193,6.7741,6.629,6.5414,0.0,6.5378,6.6983,6.8807,7.0668,7.2456,7.3738,7.4353,7.4426,7.4645,7.5296,7.394,7.2991,7.3021,7.1128,6.9319,6.7927,6.6606,6.5102,6.3387,0.0,0.0,0.0,0.0,0.0,0.0,0.0,0.0,0.0,0.0,0.0,0.0,0.0,0.0,0.0,0.0,0.0,0.0,0.0,0.0,0.0,0.0,0.0,0.0,0.0,0.0,0.0,0.0,0.0,5.7478,5.9977,0.0,0.0,0.0,0.0,6.1957,6.2891,6.4137,6.5816,6.6486,6.7622,6.9464,7.0665,7.177,7.2725,7.3525,7.3924,7.4033,7.5685,7.6514,7.6587,7.8154,7.8847,7.8883,7.8989,7.8552,7.7567,7.4389,7.2091,7.0485,6.8953,6.8807,6.9383,6.8832,6.9583,7.0865,7.1089,7.1623,7.2357,7.3054,7.2197,7.0572,6.8998,6.8446,0.0,0.0,7.0945,7.2548,7.4308,7.5365,7.6166,7.6943,7.7127,7.7163,7.7127,7.6533,7.5189,7.2658,7.1458,7.0587,6.9631,0.0,6.8005,6.7303,6.9172,7.0741,7.0887,7.293,7.4389,7.4426,7.4426,7.4488,7.472,7.5336,7.4775,7.2687,7.312,7.2055,6.8944,6.8017,6.6806,6.5202,6.442,0.0,0.0,0.0,0.0,0.0,0.0,0.0,0.0,0.0,0.0,0.0,0.0,0.0,0.0,0.0,0.0,0.0,0.0,0.0,0.0,0.0,0.0,0.0,0.0,0.0,0.0,0.0,0.0,6.1986,6.3911,0.0,6.3493,6.3911,6.463,6.5432,6.629,6.7704,6.9829,7.0171,7.1046,7.2674,7.3135,7.4051,7.543,7.5211,7.5867,7.7397,7.7498,7.7823,7.837,7.9464,7.9682,7.9245,8.0436,8.0177,7.8967,7.8441,7.6611,7.4025,7.3017,7.2497,7.2314,7.2592,7.2731,7.2915,7.4008,7.4258,7.4001,7.378,7.2944,7.1896,7.1309,7.1097,7.1362,7.2739,7.3545,7.4352,7.6026,7.665,7.6937,7.7237,7.7273,7.7273,7.7273,7.7053,7.6613,7.5672,7.4022,7.2482,7.1655,7.0849,7.0409,7.0629,7.1398,7.2497,7.4036,7.4988,7.569,7.6203,7.6276,7.6307,7.6368,7.5672,7.5115,7.4845,7.3634,7.2422,7.1248,6.9449,6.7944,6.688,6.5558,6.3906,0.0,0.0,0.0,0.0,0.0,0.0,0.0,0.0,0.0,0.0,0.0,0.0,0.0,0.0,0.0,0.0,0.0,0.0,0.0,0.0,0.0,0.0,0.0,0.0,0.0,6.2277,6.502,6.5095,6.7243,6.8255,6.7047,6.7468,6.8089,6.893,6.9754,7.1209,7.3337,7.3386,7.4117,7.5786,7.5661,7.6286,7.7701,7.719,7.7737,7.9307,7.9117,7.9296,7.9811,8.0615,8.0689,8.0283,8.148,8.1399,8.0447,8.0869,7.9663,7.7547,7.654,7.5836,7.5359,7.5616,7.5395,7.5065,7.613,7.6166,7.5579,7.4771,7.4147,7.367,7.3413,7.3303,7.3597,7.4955,7.5322,7.5616,7.6943,7.7273,7.7347,7.7671,7.7494,7.7384,7.7708,7.7494,7.7273,7.7273,7.6019,7.4661,7.3854,7.3266,7.301,7.3266,7.356,7.4294,7.5909,7.635,7.6717,7.7237,7.7273,7.7273,7.7273,7.6093,7.5432,7.5689,7.345,7.1982,7.1688,6.9633,6.8238,6.7714,6.5852,6.409,6.2401,0.0,0.0,0.0,0.0,0.0,0.0,0.0,0.0,0.0,0.0,0.0,0.0,0.0,0.0,0.0,0.0,0.0,0.0,0.0,0.0,0.0,0.0,0.0,6.1354,6.556,6.8041,6.6573,6.9858,7.1318,6.9047,7.0331,7.1633,7.2431,7.3355,7.4551,7.613,7.6051,7.6783,7.8589,7.8236,7.8504,7.9507,7.954,7.9507,7.9613,8.0548,8.1012,8.1048,8.1819,8.2186,8.2186,8.2186,8.2186,8.215,8.1379,8.1048,8.0901,7.9286,7.8626,7.8516,7.7708,7.7347,7.7347,7.7347,7.7347,7.72,7.6387,7.6166,7.6019,7.5212,7.4992,7.5139,7.5909,7.6166,7.635,7.709,7.731,7.753,7.8405,7.7928,7.7561,7.8405,7.7928,7.7273,7.7273,7.7273,7.7053,7.6276,7.613,7.5873,7.5102,7.5652,0.0,7.613,7.6827,7.7273,7.7273,7.7273,7.7273,7.7273,7.6533,7.5726,7.4918,7.2577,7.0917,7.011,6.8531,6.7687,6.765,6.5338,6.3319,6.163,0.0,0.0,0.0,0.0,0.0,0.0,0.0,0.0,0.0,0.0,0.0,0.0,0.0,0.0,0.0,0.0,0.0,0.0,0.0,0.0,0.0,6.2369,6.4636,6.4748,6.7923,7.0982,7.2965,7.4172,7.5117,7.5751,7.6289,7.6619,7.6839,7.709,7.7708,7.8736,7.7573,7.7683,7.9396,7.8788,7.9123,8.058,7.9993,8.0287,8.1461,8.1126,8.1305,8.1893,8.2113,8.2186,8.2186,8.2186,8.2186,8.2186,8.1966,8.1856,8.1709,8.0094,7.9103,7.8626,7.8993,7.8736,7.8259,7.8259,7.8259,7.8112,7.7268,7.7414,7.7745,7.69,7.6613,7.6686,7.6937,7.7451,7.7818,7.7384,7.7781,7.8295,7.8552,7.7928,7.7561,7.8405,7.7928,7.7273,7.7273,7.7273,7.7237,7.698,7.6974,7.687,7.665,7.6833,7.6974,7.6974,7.7163,7.7273,7.7273,7.7273,7.7273,7.7273,7.6056,7.4882,7.4074,7.1762,7.033,7.011,6.8531,6.743,6.6843,6.5595,6.4163,0.0,0.0,0.0,0.0,0.0,0.0,0.0,0.0,0.0,0.0,0.0,0.0,0.0,0.0,0.0,0.0,0.0,0.0,0.0,0.0,0.0,0.0,6.6673,6.9347,7.058,7.2116,7.4049,7.6741,7.762,7.8312,7.9029,7.9396,7.947,7.914,7.9103,7.9286,7.9764,7.8883,7.8956,8.0241,7.9837,8.0204,8.1489,8.1048,8.1269,8.2186,8.1746,8.1746,8.2186,8.1856,8.1893,8.2186,8.1819,8.1893,8.215,8.1819,8.1709,8.1636,0.0,0.0,0.0,0.0,7.9213,7.9103,7.9103,7.8883,7.8516,7.8002,7.8185,7.8442,7.753,7.753,7.7781,7.7384,7.7928,7.8479,7.8002,7.8479,7.9176,7.9543,7.8699,7.8075,7.8919,7.8148,7.7273,7.7273,7.7273,0.0,7.7273,7.7273,7.7273,7.7273,7.7273,7.7273,7.7273,7.7273,7.7273,7.7273,7.7273,7.7273,7.7273,7.5806,0.0,0.0,0.0,6.9779,6.9119,6.8201,0.0,0.0,0.0,6.5668,6.4347,6.3539,0.0,0.0,6.1447,6.1263,0.0,0.0,0.0,0.0,0.0,0.0,0.0,0.0,0.0,0.0,0.0,0.0,0.0,0.0,0.0,0.0,7.1338,7.4147,7.7273,7.7121,7.7194,7.8699,8.0131,8.0755,8.0131,8.0791,8.0975,8.0241,8.0204,8.0204,8.0204,8.0094,0.0,0.0,0.0,8.1562,8.2443,8.2296,8.226,8.2333,8.2223,8.2186,8.2186,8.1452,8.1489,8.2039,8.1415,8.1489,8.2003,8.1379,8.1195,8.1305,8.1746,8.1195,8.0094,7.9176,7.9323,7.991,7.991,0.0,0.0,7.8772,7.8809,7.8699,7.7855,7.8112,7.8552,7.7708,7.8075,7.8699,7.8626,7.914,7.9874,8.0791,7.969,7.8699,7.958,7.8479,7.731,7.742,7.7347,7.7347,7.753,7.742,7.7273,7.7273,7.7273,7.7273,7.7273,7.7273,7.7273,7.7273,7.7273,0.0,7.7273,7.5909,7.4955,7.4808,7.1835,6.9412,6.7907,6.7907,6.7577,6.6806,6.7467,6.743,6.6623,6.5925,6.6402,6.7871,6.398,6.3392,0.0,0.0,0.0,0.0,0.0,0.0,0.0,0.0,0.0,0.0,0.0,0.0,0.0,0.0,0.0,7.1228,7.4338,7.7273,7.9947,8.0167,8.0167,8.0498,8.0828,8.1195,8.1672,8.248,8.2884,8.2737,8.27,8.27,8.27,8.2076,8.2113,8.292,8.2296,8.2663,8.4132,8.2847,8.2517,8.3177,8.2517,0.0,8.2186,8.2039,8.1709,8.1269,8.1746,8.1672,8.1269,8.1746,8.237,8.2774,8.0938,8.1269,8.2553,8.1085,8.0645,8.0755,8.0755,8.0681,8.0424,7.9764,8.0021,8.0388,7.9543,7.9433,0.0,7.8589,7.8919,7.9396,7.8772,7.8699,7.9213,8.0645,7.925,7.7965,7.947,7.8479,7.7494,7.8222,7.7781,7.7714,7.9066,7.8222,7.7273,7.7273,7.7273,7.7273,7.7273,7.7273,7.7273,7.7273,7.7273,7.7273,7.7273,7.6423,7.5322,7.4001,7.1505,6.9669,6.8715,6.9302,6.9265,6.8458,6.8605,6.8274,6.7467,6.7283,6.8054,6.9559,6.6843,6.6145,0.0,0.0,0.0,0.0,0.0,0.0,0.0,0.0,0.0,0.0,0.0,6.3017,6.6406,0.0,7.1961,7.6093,7.8112,7.9727,8.1379,8.1599,8.1599,8.1599,8.1966,8.2517,8.3324,8.3398,8.3581,8.3985,8.3251,8.2994,8.3398,8.2627,8.2553,8.3398,8.2627,8.259,8.3398,8.259,8.2406,8.281,8.237,8.2003,8.1599,8.1599,8.1379,8.1012,8.1415,8.1599,8.1636,8.2039,8.2663,8.3287,8.2076,8.2333,8.3214,8.1599,8.1269,8.1599,8.1599,8.1342,8.0938,8.0534,8.0681,8.0865,8.0021,8.0057,8.0131,7.8919,7.9176,7.969,7.9286,7.9176,7.9507,8.0718,7.9764,7.8662,7.9103,7.8846,7.8552,7.8589,7.8589,7.8809,7.9653,7.9103,7.8552,7.8552,7.8222,7.8112,7.8516,7.8222,7.8112,7.8516,7.8552,7.8405,7.8002,7.6827,7.5579,7.4368,7.2789,7.1725,7.1321,7.1284,7.1101,7.0697,7.0697,7.0697,7.0697,7.0697,7.1321,7.2459,7.1284,7.0697,0.0,0.0,0.0,0.0,0.0,0.0,0.0,5.8069,5.9469,6.2727,6.4438,6.6956,7.243,7.3854,7.5763,8.0681,8.1342,8.1525,8.2333,8.2296,8.2186,8.2186,8.2774,8.3434,8.4058,8.3691,8.3691,8.4315,8.3324,8.2884,8.3398,8.292,8.2884,8.3398,8.2774,8.2517,8.2663,8.2186,8.2113,8.2443,8.1966,8.1562,8.1232,8.0901,8.0865,8.1012,8.1012,8.1452,8.2186,8.2186,8.2663,8.3398,8.3251,8.3287,8.3251,8.1966,8.1782,8.2186,8.2186,8.1782,8.1232,8.1232,8.1232,8.1122,8.0461,8.0718,8.0938,7.947,7.9507,8.0021,8.0021,7.991,8.0021,8.1012,8.0498,7.9653,7.9176,7.9433,7.9653,7.914,7.947,7.9874,8.0204,8.0131,7.9984,7.98,7.925,7.9066,7.969,7.9213,7.9066,7.9727,7.98,7.947,7.8662,7.7194,7.5983,7.5175,7.4515,7.4111,7.3927,7.3303,7.2973,7.2973,7.2973,7.3303,7.3927,7.3927,7.4368,7.5139,7.5139,7.4698,5.516,5.4459,5.4927,5.7595,5.8446,5.9955,0.0,6.6189,6.7012,6.965,7.254,7.5035,7.6503,7.8589,8.0718,8.281,8.2517,8.2333,8.3177,8.2663,8.2186,8.2186,8.226,8.237,8.2443,8.303,8.3471,8.3544,8.4022,8.4058,8.3434,8.3985,8.4058,8.3434,8.3324,8.3618,8.4315,8.2223,8.1856,8.3251,8.1085,8.0755,8.2003,8.0571,8.0314,8.1012,8.1012,8.1452,8.2186,8.2186,8.2663,8.3361,8.2627,8.2774,8.3398,8.3214,8.2737,8.2186,8.2186,8.215,8.2076,8.2076,8.2076,8.2039,8.1966,8.2003,8.1893,8.0975,8.0791,8.0865,8.0865,8.0351,8.0167,8.1709,8.0901,7.9947,8.0608,8.0241,7.9984,8.0608,8.0241,8.0241,8.1672,8.1342,8.0608,7.991,7.969,7.969,7.9764,7.969,7.969,7.9764,7.98,7.947,7.8662,7.7745,7.6827,7.6019,7.5873,7.5506,7.4808,7.4698,7.4625,7.4625,7.4625,7.4698,7.4771,7.4771,7.5175,7.5983,7.5983,7.5542,5.7413,5.7437,5.8081,5.9969,6.1885,6.4072,6.6983,6.8339,6.9981,7.3384,7.5946,7.8222,8.0429,8.1709,8.2627,8.3287,8.3141,8.2847,8.2737,8.2406,8.2039,8.1562,8.1893,8.292,8.4829,8.3618,8.3471,8.5343,8.4058,8.3251,8.3398,8.3287,8.3251,8.3398,8.2957,8.2847,8.3214,8.1746,8.1342,8.2003,8.0975,8.0608,8.0791,8.0571,8.0424,8.0314,8.0791,8.0938,8.0865,8.1819,8.2113,8.2039,8.215,8.2406,8.27,8.27,8.2186,8.1562,8.2039,8.1893,8.1562,8.2039,8.2186,8.2186,8.2186,8.2186,8.2039,8.1232,8.1012,8.1012,8.1012,8.0388,8.0094,8.1232,8.0975,8.0461,8.0314,8.0755,8.1158,8.1048,8.1122,8.1562,8.27,8.2223,8.1746,8.1893,8.1085,8.0681,8.1122,8.0791,8.0681,8.1158,8.0755,8.0351,8.0021,7.8809,7.7928,7.7561,7.7084,7.668,7.6283,7.6283,7.6283,7.6283,7.6283,7.6283,7.6283,7.6283,7.6497,7.6827,7.6827,7.6644,5.8287,5.931,6.0677,6.223,6.5228,6.8164,6.9412,7.0917,7.3156,7.7011,7.8736,8.0498,8.3508,8.3875,8.3801,8.4022,8.3691,8.3214,8.2627,8.215,8.1636,8.1085,8.1305,8.2627,8.5416,8.3581,8.3177,8.549,8.3508,8.2443,8.303,8.2517,8.248,8.3067,8.2517,8.2186,8.2186,8.1415,8.1012,8.1012,8.0571,8.0131,7.98,8.0388,8.0241,7.9507,8.0314,8.0351,7.991,8.1305,8.1525,8.1085,8.1893,8.2186,8.2186,8.2186,8.1819,8.1415,8.2003,8.1819,8.1415,8.2003,8.2186,8.2186,8.2186,8.2186,8.2076,8.1489,8.1342,8.1379,8.1599,8.1232,8.1012,8.1819,8.1819,8.1562,8.1195,8.1672,8.215,8.2039,8.2113,8.2517,8.3544,8.2884,8.248,8.3287,8.2223,8.1525,8.2113,8.1672,8.1562,8.215,8.1489,8.1012,8.1012,7.9727,7.8846,7.8589,7.8002,7.753,7.731,7.7273,7.7273,7.7273,7.7273,7.7273,7.7273,7.7273,7.7273,7.7273,7.7273,7.7273,5.6616,5.8456,6.108,6.4369,6.8201,7.177,7.4147,7.5946,7.8038,8.1342,8.2039,8.2847,8.527,8.5086,8.4829,8.56,8.4425,8.3398,8.3398,8.2039,8.1048,8.1012,8.0314,8.0498,8.2186,8.226,8.2223,8.2333,8.226,8.2186,8.2223,8.2223,8.2186,8.2223,8.2223,8.2186,8.2186,8.1415,8.1012,8.0975,7.9433,7.9066,7.98,7.98,7.9396,7.8662,7.947,7.98,7.9837,8.0681,8.1012,8.1085,8.1893,8.2186,8.2186,8.2186,8.2186,8.215,8.2186,8.2186,8.215,8.2186,8.2186,8.2186,8.2186,8.2186,8.2186,8.215,8.215,8.2333,8.3141,8.3324,8.3508,8.4315,8.3911,8.3544,8.4278,8.3251,8.2663,8.4205,8.3251,8.27,8.4278,8.3251,8.248,8.3287,8.27,8.215,8.2186,8.2186,8.215,8.2186,8.1489,8.1012,8.1012,8.0241,7.9433,7.8662,7.8589,7.8185,7.731,7.7273,7.7273,7.7273,7.7273,7.7273,7.7273,7.7273,7.7273,7.7273,7.7273,7.7273,5.8807,6.2095,6.5983,6.9265,7.1908,7.4331,7.679,7.7781,7.8772,8.0975,8.0534,7.9874,8.0131,8.0865,8.1305,8.1048,8.1893,8.281,8.3324,8.248,8.1415,8.0314,8.0424,8.0388,7.9874,8.0791,8.1856,8.292,8.2517,8.2186,8.2186,8.2186,8.2186,8.2186,8.1672,8.1415,8.1415,8.0094,7.9396,7.9396,7.8846,7.8736,7.8993,7.8993,7.8552,7.7781,7.8626,7.8662,7.8295,8.0204,8.0681,8.0277,8.1085,8.1415,8.1415,8.1415,8.1415,8.1489,8.2003,8.1856,8.1489,8.2039,8.2186,8.2186,8.2186,8.259,8.2884,8.2333,8.2957,8.3618,8.281,8.2994,8.3471,8.3765,8.3618,8.3618,8.4425,8.4168,8.3948,8.4499,8.4168,8.4132,8.5196,8.4499,8.3691,8.3471,8.2737,8.2186,8.2186,8.2186,8.2186,8.2186,8.1966,8.1782,8.1782,8.1048,8.0461,8.0204,7.9176,7.8479,7.8185,7.7635,7.7273,7.7273,7.7273,7.7273,7.7273,7.7273,7.7273,7.7273,7.7273,7.7273,6.1887,6.5521,6.9339,7.2569,7.4588,7.6276,7.8185,7.8589,7.8956,8.0314,7.8809,7.7194,7.6937,7.7268,7.7451,7.6937,7.8626,8.0424,8.1525,8.0718,7.9947,7.98,7.9727,7.9286,7.8259,7.936,8.0681,8.2003,8.1893,8.1782,8.1782,8.2039,8.2186,8.2186,8.1415,8.1012,8.1012,7.969,7.8883,7.8589,7.8295,7.8148,7.8148,7.8148,7.7855,7.731,7.7892,7.7818,7.742,7.936,7.9837,7.9433,7.9946,8.0308,8.0544,8.0269,8.0308,8.0689,8.1795,8.1656,8.1124,8.1937,8.1985,8.1855,8.2451,8.2571,8.2586,8.2964,8.3377,8.3681,8.3514,8.3875,8.4352,8.4646,8.4462,8.4499,8.527,8.5013,8.4756,8.5343,8.5013,8.4939,8.604,8.5563,8.4756,8.3948,8.3398,8.2957,8.2663,8.237,8.2296,8.259,8.237,8.2186,8.2186,8.1746,8.1305,8.1012,8.0021,7.9213,7.8626,7.8075,7.7604,7.731,7.7273,7.7273,7.7273,7.7273,7.7273,7.7273,7.7273,7.7273,6.5668,6.8531,7.1138,7.4258,7.6173,7.753,7.8405,7.8516,7.8626,7.9396,7.69,7.4808,7.5469,7.4478,7.3597,7.367,7.5139,7.69,7.8589,7.7451,7.7268,7.958,7.8479,7.7457,7.7347,7.8148,7.8956,7.9653,8.0534,8.1012,8.1048,8.1782,8.2186,8.215,8.1379,8.0938,8.0901,8.0057,7.9286,7.8516,7.7708,7.7273,7.7273,7.7273,7.7273,7.7273,7.7273,7.7273,7.7347,7.8227,7.8558,7.8537,7.8543,7.9005,7.958,7.8818,7.8995,7.9861,8.1453,8.1472,8.0982,8.1849,8.1579,8.12,8.2873,8.2237,8.1525,8.3861,8.3439,8.2794,8.5101,8.5713,8.5899,8.6634,8.6265,8.5969,8.6742,8.5786,8.5159,8.6701,8.5783,8.5233,8.6738,8.6371,8.56,8.4792,8.4646,8.4352,8.3508,8.2737,8.2553,8.3287,8.2663,8.2186,8.2186,8.2186,8.1856,8.1122,8.1012,8.0314,7.8736,7.8626,7.8222,7.7384,7.731,7.731,7.7347,7.731,7.7273,7.7273,7.7273,7.7273,6.9155,7.2275,7.4918,7.6319,7.698,7.753,7.8405,7.7157,7.5909,7.613,7.312,7.0146,6.9119,7.0587,7.2312,7.3487,7.6607,7.9617,8.1856,8.1305,8.0645,8.0681,8.0314,7.958,7.8369,7.8993,7.9323,7.8919,8.0204,8.1269,8.1856,8.2076,8.1929,8.1342,8.0534,7.98,7.9213,7.8369,7.7855,7.7635,7.7384,7.7273,7.7273,7.7273,7.7273,7.7273,7.7273,7.7273,7.7316,7.7608,7.7701,7.7707,7.7739,7.781,7.7991,7.7767,7.8159,7.8845,7.9357,7.9714,8.0143,8.0947,8.1056,8.1038,8.2106,8.2499,8.2763,8.3447,8.4173,8.4643,8.4101,8.4392,8.4717,8.4295,8.4492,8.5046,8.5845,8.6243,8.6518,8.6921,8.6664,8.6518,8.6921,8.6848,8.6407,8.56,8.549,8.4976,8.3581,8.3251,8.2957,8.2553,8.2333,8.2186,8.2186,8.2186,8.2113,8.1893,8.1342,8.0534,7.9543,7.8919,7.8516,7.8259,7.7635,7.7604,7.8259,7.7604,7.7273,7.7273,7.7273,7.7273,7.2018,7.4478,7.6276,7.709,7.7017,7.6717,7.6497,7.5102,7.356,7.2496,6.9633,6.6953,6.5668,6.7504,6.9486,7.0403,7.4221,7.7965,8.0388,8.0351,8.0277,8.0938,8.0681,8.0131,7.9213,7.9543,7.9764,7.9653,8.0498,8.1195,8.1636,8.2003,8.1819,8.1048,8.0204,7.9181,7.7945,7.7499,7.7279,7.7217,7.7243,7.7273,7.7273,7.6956,7.6829,7.6797,7.6469,7.63,7.6303,7.633,7.6336,7.6301,7.5966,7.6069,7.6328,7.6309,7.6799,7.7496,7.7842,7.8283,7.8805,7.9992,8.0123,8.007,8.1612,8.1834,8.1921,8.337,8.3908,8.396,8.3813,8.4107,8.443,8.4352,8.4662,8.526,8.6101,8.6643,8.6995,8.6995,8.6995,8.6995,8.6995,8.6995,8.6848,8.6407,8.6334,8.5857,8.4609,8.4168,8.3911,8.3801,8.3141,8.2737,8.2737,8.2406,8.2186,8.2186,8.1782,8.1158,8.0351,7.9874,7.9507,7.914,7.8295,7.8112,7.8589,7.7745,7.7494,7.7892,7.7892,7.8075,7.4368,7.5726,7.6423,7.7127,7.6607,7.5542,7.4037,7.2826,7.1358,6.9082,6.6769,6.4861,6.3943,6.5191,6.6476,6.6916,7.077,7.4661,7.7414,7.7787,7.8631,8.0901,8.0534,8.0057,7.9947,8.0057,8.0351,8.0975,8.1053,8.1126,8.1158,8.1677,8.1566,8.0617,7.9842,7.8678,7.7061,7.7186,7.7118,7.6929,7.7186,7.7181,7.6956,7.6436,7.6135,7.5998,7.5299,7.501,7.501,7.4901,7.4864,7.479,7.3956,7.4142,7.4848,7.4775,7.5316,7.6174,7.6833,7.7109,7.7456,7.9009,7.9145,7.903,8.117,8.0906,8.0505,8.3413,8.3189,8.2408,8.3845,8.4231,8.4396,8.5039,8.5273,8.5578,8.632,8.6572,8.6679,8.6821,8.6856,8.6892,8.7107,8.7068,8.7031,8.7142,8.7068,8.6738,8.604,8.527,8.4976,8.5563,8.4389,8.3581,8.3581,8.281,8.237,8.237,8.226,8.1819,8.1048,8.1012,8.0681,7.9947,7.9176,7.8809,7.8919,7.8075,7.8038,7.8772,7.8772,7.914,7.6173,7.698,7.7127,7.7273,7.6203,7.4882,7.3927,7.1541,6.9045,6.7283,6.5521,6.3833,6.2291,6.3943,6.6402,6.9045,7.1835,7.5249,7.9727,8.0351,8.0755,8.1856,8.1856,8.1525,8.0865,8.1379,8.1562,8.1048,8.1469,8.1802,8.1966,8.1322,8.0202,7.8577,7.7902,7.7353,7.6834,7.6866,7.6636,7.6099,7.6834,7.6538,7.5406,7.5929,7.5826,7.5192,7.5083,7.501,7.4974,7.4302,7.3994,7.3917,7.3183,7.3351,7.399,7.4006,7.4861,7.6132,7.6267,7.6706,7.7367,7.8378,7.8998,7.9529,8.0595,8.1189,8.169,8.2998,8.313,8.2937,8.3253,8.3331,8.3191,8.26,8.3015,8.3556,8.3727,8.4355,8.5039,8.5767,8.5953,8.6356,8.7734,8.7435,8.7252,8.7876,8.7435,8.6958,8.6811,8.6077,8.538,8.4866,8.4572,8.4389,8.4389,8.3654,8.3214,8.3214,8.2553,8.1819,8.1048,8.1012,8.0938,8.0791,7.9984,7.991,8.0571,7.9764,7.9433,7.958,7.958,7.9653,7.698,7.7273,7.72,7.679,7.5175,7.312,7.1027,6.8752,6.6439,6.4383,6.3686,6.3172,6.2365,6.4237,6.6292,6.743,6.9963,7.323,7.7268,7.8185,7.9396,8.1893,8.2186,8.2039,8.1672,8.1966,8.1823,8.0882,8.1513,8.1919,8.2055,8.0682,7.9142,7.7432,7.6668,7.6236,7.5998,7.5686,7.5547,7.5582,7.5652,7.537,7.4828,7.4681,7.4531,7.434,7.3799,7.3677,7.3756,7.3392,7.3229,7.3258,7.3253,7.3464,7.3878,7.4705,7.5464,7.6154,7.6568,7.6913,7.7337,7.8206,7.8653,7.9143,8.0279,8.0859,8.1353,8.2211,8.2407,8.2407,8.2407,8.2407,8.2453,8.2498,8.3147,8.3805,8.3805,8.4384,8.5141,8.5612,8.6344,8.7151,8.8029,8.8243,8.8243,8.8206,8.8243,8.7949,8.7105,8.7031,8.6738,8.593,8.5453,8.5233,8.5233,8.4499,8.4022,8.4022,8.3654,8.3104,8.2296,8.226,8.2076,8.1636,8.0828,8.0608,8.1012,8.0167,8.0021,8.0424,8.0424,8.0645,7.7017,7.7163,7.709,7.6313,7.4147,7.1468,6.8385,6.6329,6.4383,6.2071,6.2254,6.2743,6.2585,6.4127,6.5411,6.5338,6.743,7.044,7.4368,7.5579,7.7561,8.1489,8.1929,8.1929,8.1929,8.1929,8.1534,8.0528,8.0941,8.1273,8.1273,7.9652,7.7976,7.6482,7.5835,7.537,7.4975,7.4643,7.4606,7.4792,7.4421,7.4193,7.4075,7.3407,7.3241,7.3437,7.2602,7.2373,7.2628,7.2628,7.2628,7.2697,7.3498,7.3774,7.3981,7.5533,7.612,7.6223,7.6947,7.7223,7.7396,7.8327,7.8637,7.8879,8.0224,8.0741,8.1017,8.1638,8.181,8.181,8.181,8.181,8.1965,8.2646,8.3331,8.3847,8.3847,8.4308,8.4853,8.5339,8.6544,8.7686,8.8323,8.8977,8.9271,8.8793,8.9124,8.8904,8.7435,8.7802,8.7876,8.7105,8.6444,8.604,8.604,8.5306,8.4866,8.4866,8.4682,8.4242,8.3434,8.3398,8.303,8.2223,8.1562,8.1269,8.1269,8.0608,8.0645,8.1269,8.1269,8.1599,7.6203,7.6754,7.709,7.6313,7.3744,7.077,6.8274,6.5888,6.3686,6.1961,6.2254,6.2585,6.1851,6.1887,6.2768,6.4971,6.5558,6.7907,7.4037,7.5579,7.7341,8.0718,8.1122,8.1122,8.1122,8.1122,8.069,7.9686,7.9394,7.9262,7.9262,7.7839,7.6482,7.5297,7.5299,7.4865,7.3956,7.4677,7.4414,7.3154,7.3803,7.3442,7.2253,7.2832,7.2866,7.2424,7.2159,7.2159,7.2331,7.2331,7.2331,7.2442,7.3413,7.3774,7.3981,7.5533,7.612,7.6223,7.6947,7.7223,7.742,7.8948,7.9396,7.9569,8.0362,8.1121,8.1707,8.1776,8.181,8.181,8.181,8.181,8.181,8.1871,8.1965,8.2059,8.2059,8.2093,8.2614,8.4225,8.5197,8.6589,8.891,8.9345,8.9638,9.0298,8.9821,8.9087,8.8206,8.8133,8.7876,8.7105,8.6921,8.6885,8.6885,8.6151,8.5673,8.5673,8.5013,8.4242,8.3434,8.3398,8.303,8.2223,8.2113,8.2076,8.2076,8.2003,8.2003,8.2076,8.2076,8.2113,7.5102,7.635,7.698,7.5726,7.2606,6.9229,6.6806,6.4347,6.2108,6.0493,6.1594,6.2548,6.1741,6.1998,6.2328,6.2365,6.2365,6.3759,6.7834,6.9082,7.1541,7.6717,7.7781,7.8626,8.0131,8.0145,7.9873,7.9248,7.7622,7.6876,7.738,7.6841,7.5571,7.3597,7.3567,7.3407,7.2996,7.2866,7.2742,7.2658,7.249,7.2176,7.1766,7.1917,7.2047,7.2115,7.1854,7.1898,7.2115,7.2115,7.2115,7.2227,7.3232,7.3594,7.3843,7.5489,7.612,7.6223,7.6947,7.7223,7.7465,7.9017,7.9224,7.9155,8.081,8.1569,8.181,8.181,8.181,8.181,8.181,8.181,8.181,8.181,8.181,8.181,8.181,8.2155,8.2719,8.3481,8.5451,8.7311,8.8426,8.9862,9.0629,9.0005,9.0445,9.0041,8.7766,8.8316,8.8426,8.7142,8.6995,8.6995,8.6995,8.6701,8.6518,8.6518,8.6224,8.5673,8.4866,8.4389,8.3765,8.2957,8.2443,8.2186,8.2186,8.2186,8.2186,8.2186,8.27,8.292,7.3413,7.5182,7.6246,7.4882,7.1505,6.7981,6.5815,6.3392,6.119,5.9832,6.1276,6.2658,6.2071,6.2218,6.2144,6.1263,6.0713,6.1447,6.4383,6.5081,6.7357,7.2826,7.3964,7.5285,7.7745,7.8437,7.869,7.8647,7.6445,7.5258,7.5532,7.5304,7.4361,7.2575,7.249,7.2364,7.2142,7.182,7.1786,7.2142,7.159,7.1367,7.1501,7.1356,7.1535,7.1854,7.1634,7.1678,7.1898,7.1898,7.1898,7.2,7.3298,7.3763,7.39,7.5505,7.6075,7.61,7.6661,7.6878,7.7154,7.8672,7.8844,7.8775,8.0845,8.1466,8.15,8.1741,8.181,8.181,8.181,8.181,8.181,8.181,8.181,8.181,8.181,8.2224,8.2716,8.3311,8.569,8.7759,8.8363,9.0297,9.1436,9.0298,9.1069,9.0812,8.8059,8.8685,8.8758,8.7178,8.6995,8.6995,8.6995,8.6995,8.6995,8.6995,8.6995,8.6628,8.582,8.5013,8.4242,8.3434,8.2847,8.2443,8.2186,8.2443,8.2443,8.2223,8.303,8.3287,7.0889,7.3091,7.4735,7.3927,7.0697,6.7283,6.5668,6.3392,6.1374,6.0566,6.1667,6.278,6.278,6.2144,6.1851,6.2658,6.1447,6.1814,6.5888,6.5815,6.6512,6.9743,7.0146,7.1101,7.3523,7.5603,7.7101,7.7774,7.6121,7.4715,7.3838,7.2996,7.2533,7.249,7.249,7.2099,7.1312,7.2099,7.2099,7.1312,7.1312,7.1312,7.1312,7.1312,7.1412,7.16,7.1367,7.1412,7.16,7.16,7.16,7.178,7.3802,7.4429,7.4364,7.5633,7.5908,7.574,7.6031,7.612,7.6395,7.7913,7.843,7.8672,8.0189,8.0638,8.081,8.1569,8.181,8.181,8.181,8.181,8.181,8.181,8.181,8.181,8.181,8.181,8.2266,8.3906,8.5619,8.7335,8.8975,9.0698,9.1803,9.1767,9.1803,9.1216,8.9565,8.9382,8.8758,8.7178,8.6995,8.6995,8.6995,8.6995,8.6995,8.6995,8.6995,8.6628,8.582,8.5013,8.4242,8.3434,8.3398,8.2994,8.2186,8.2994,8.2994,8.2223,8.303,8.2994,6.5487,6.8219,7.0367,6.8421,6.6586,6.4787,6.3135,6.1741,6.0566,5.9758,6.086,6.1814,6.1263,6.1851,6.1961,6.0542,6.0382,6.0456,6.0639,6.2879,6.5448,6.8128,7.2349,7.5232,7.5786,7.6428,7.6548,7.6014,7.4857,7.3838,7.2955,7.2099,7.1688,7.1688,7.1688,7.159,7.1312,7.1546,7.1546,7.1312,7.1312,7.1312,7.1312,7.1312,7.1356,7.1367,7.1312,7.1356,7.1367,7.1367,7.1367,7.148,7.2233,7.2799,7.3344,7.4576,7.5327,7.5808,7.6582,7.6878,7.7051,7.8085,7.8051,7.7982,8.0017,8.0603,8.0776,8.1569,8.181,8.181,8.181,8.181,8.181,8.181,8.181,8.181,8.181,8.181,8.2112,8.3135,8.4677,8.6399,8.8082,8.977,9.0913,9.0997,9.1436,9.1216,8.9638,8.9382,8.9014,8.7949,8.7325,8.6995,8.6995,8.6995,8.6995,8.6995,8.6995,8.6885,8.6628,8.5857,8.5306,8.5049,8.4499,8.4095,8.3838,8.4095,8.4389,8.4646,8.4903,8.4903,6.2093,6.5028,6.71,6.5301,6.3759,6.2438,6.1374,6.0052,5.8988,5.8804,5.9538,6.0162,5.9979,6.0529,6.0713,5.9795,5.9575,5.9575,5.9795,6.1998,6.4751,6.7797,7.2496,7.5464,7.5447,7.5996,7.6,7.5155,7.3994,7.3078,7.2533,7.1732,7.1312,7.1312,7.1312,7.1312,7.1312,7.1312,7.1312,7.1312,7.1312,7.1312,7.1312,7.1312,7.1312,7.1312,7.1312,7.1312,0.0,7.1312,7.1312,7.1345,7.1851,7.2439,7.3108,7.408,7.4898,7.5572,7.6244,7.6551,7.6779,7.7536,7.7926,7.8361,7.9776,8.0603,8.1155,8.1672,8.181,8.181,8.181,8.181,8.181,8.181,8.181,8.181,8.181,8.2017,8.2362,8.2811,8.453,8.621,8.725,8.8577,8.977,9.0478,9.0701,9.0593,8.9969,8.9601,8.9087,8.828,8.7766,8.7472,8.7472,8.7178,8.6995,8.6995,8.6995,8.6995,8.6995,8.6224,8.5783,8.5783,8.5306,8.4903,8.4609,8.4609,8.5013,8.5783,8.5783,8.5637,0.0,6.2938,6.464,6.3723,6.1887,6.0272,6.0162,5.8474,0.0,5.7776,5.7923,5.8143,5.8964,5.8547,5.8547,6.0015,5.9024,5.9098,6.2071,6.2853,6.4677,6.8752,7.1358,7.2937,7.3191,7.4622,7.537,7.5045,7.3372,7.2422,7.2406,7.1688,7.1312,7.1312,7.1312,7.1312,7.1312,7.1312,7.1312,7.1312,7.1312,7.1312,7.1312,7.1312,7.1312,7.1312,7.1312,7.1312,7.1312,7.1312,7.1312,7.1379,7.2327,7.2994,7.3501,7.3923,7.4469,7.5034,7.5242,7.5504,7.5856,7.6587,7.8041,7.95,7.95,8.0569,8.181,8.181,8.181,8.181,8.181,8.181,8.181,8.181,8.181,8.181,8.1879,8.2431,8.2949,8.3052,8.4889,8.6533,8.6579,8.7312,8.8433,9.0063,8.9788,8.97,9.0484,8.9968,8.9197,8.8463,8.8316,8.828,8.828,8.7545,8.7105,8.7105,8.7031,8.6995,8.6995,8.6261,8.5894,8.5894,8.5894,8.5527,8.4756,8.4756,8.5159,8.5894,8.5894,8.549,5.5695,0.0,6.0138,5.8107,5.8547,5.9148,0.0,5.7703,5.7593,5.7189,5.7079,5.7336,5.8143,5.8621,5.8841,5.8584,5.8767,5.8988,5.9098,6.3392,6.8054,7.2092,7.4698,7.5391,7.3373,7.4148,7.4583,7.4152,7.2563,7.1652,7.1566,7.1401,7.1312,7.1312,7.1312,7.1312,7.1312,7.1312,7.1312,7.1312,7.1312,7.1312,7.1312,7.1312,7.1312,7.1312,7.1312,7.1312,7.1312,7.1312,7.1312,7.1345,7.156,7.2067,7.271,7.2994,7.3935,7.5046,7.5322,7.5789,7.6394,7.6713,7.8041,7.95,7.95,8.0569,8.181,8.181,8.181,8.181,8.181,8.181,8.181,8.181,8.181,8.1948,8.2535,8.2776,8.3259,8.4432,8.5111,8.5755,8.6487,8.722,8.7941,8.8573,8.957,9.0316,9.0557,9.0445,9.0262,9.0078,8.9491,8.9124,8.9124,8.839,8.7912,8.7912,8.7362,8.6995,8.6995,8.6811,8.6738,8.6738,8.6738,8.6628,8.6444,8.6444,8.6554,8.6738,8.6738,8.6628,5.4444,5.5957,5.7206,5.5186,5.5857,5.6785,5.5904,5.5757,5.5794,5.5721,5.5427,5.55,5.6675,5.6969,5.7226,5.7886,5.8364,5.9281,6.108,6.4433,6.8438,7.3127,7.4507,7.4888,7.4352,7.397,7.3606,7.3212,7.1759,7.0958,7.1278,7.1312,7.1312,7.1312,7.1312,7.1312,7.1312,7.1312,7.1312,7.1312,7.1312,7.1312,7.1312,7.1312,7.1312,7.1312,7.1312,7.1312,7.1312,7.1312,7.1312,7.1312,7.1312,7.1751,7.2394,7.2576,7.3571,7.4861,7.5,7.5662,7.6541,7.6702,7.8041,7.9465,7.912,8.0327,8.181,8.181,8.181,8.181,8.181,8.181,8.181,8.181,8.181,8.1914,8.2328,8.2673,8.3052,8.3535,8.4466,8.5249,8.5364,8.6016,8.6849,8.7807,8.8679,8.9577,9.0475,9.0594,9.0592,9.0592,9.0225,8.9968,8.9968,8.9564,8.8977,8.8243,8.7435,8.6995,8.6995,8.6995,8.6995,8.6995,8.6995,8.6995,8.6995,8.6995,8.6995,8.6995,8.6995,8.6995,5.4681,5.5108,5.5304,5.4059,5.415,5.4546,5.4436,5.3885,5.3555,5.4106,5.3665,5.3665,5.5133,5.495,5.528,5.7446,5.8217,6.0309,6.5338,6.6217,6.8153,7.2981,7.3359,7.3612,7.458,7.3505,7.2594,7.2375,7.0788,7.0229,7.1109,7.1142,7.1142,7.1142,7.1244,7.1312,7.1312,7.1312,7.1312,7.1312,7.1312,7.1312,7.1312,7.1312,7.1312,7.1312,7.1312,7.1312,7.1312,7.1312,7.1312,7.1312,7.1312,7.1684,7.2225,7.2225,7.3105,7.4322,7.4525,7.5361,7.637,7.6656,7.7927,7.9224,7.8603,7.9913,8.1638,8.1638,8.1707,8.181,8.181,8.181,8.181,8.181,8.181,8.1845,8.2086,8.2535,8.2811,8.2535,8.3949,8.4984,8.4328,8.4742,8.5672,8.7141,8.7506,8.8313,9.0063,9.0477,9.0631,9.0776,9.0776,9.0776,9.0776,9.0555,8.9895,8.8647,8.7692,8.7142,8.7031,8.6995,8.6995,8.6995,8.6995,8.6995,8.6995,8.6995,8.6995,8.6995,8.6995,8.6995,5.3978,5.4251,5.422,5.4273,5.4869,5.5244,5.4546,5.4289,5.4069,5.3518,5.3277,5.3482,5.4399,5.5023,5.5757,5.6822,5.9281,6.2989,6.8568,6.9953,7.1004,7.2558,7.4883,7.4885,7.0984,7.144,7.1865,7.1622,6.9535,6.8876,7.0297,7.0364,7.0364,7.0364,7.0973,7.1312,7.1312,7.1312,7.1312,7.1312,7.1312,7.1312,7.1312,7.1312,7.1312,7.1312,7.1312,7.1312,7.1312,7.1312,7.1312,7.1312,7.1312,7.1379,7.1481,7.1481,7.2022,7.2935,7.4187,7.5022,7.5686,7.6336,7.748,7.8568,7.843,7.9534,8.081,8.081,8.1293,8.181,8.181,8.181,8.181,8.181,8.181,8.2155,8.3397,8.3259,8.3431,8.5259,8.5397,8.5156,8.5052,8.5121,8.5291,8.5623,8.633,8.7435,8.926,9.0084,9.0798,9.1547,9.162,9.162,9.162,9.0372,8.9784,9.0188,8.883,8.7729,8.7031,8.6995,8.6995,8.6995,8.6995,8.6995,8.6995,8.6995,8.6995,8.6995,8.6995,8.6995,5.3258,5.3502,5.3784,5.4298,5.4693,5.473,5.3959,5.3739,5.3775,5.3849,5.3518,5.3702,5.539,5.6014,5.7226,6.0236,6.2365,6.4824,6.8311,6.8832,6.958,7.1644,7.3442,7.3598,7.1174,7.142,7.1276,7.0225,6.8761,6.8402,6.9553,6.962,6.9789,7.0161,7.0534,7.0906,7.1312,7.0906,7.0703,7.0703,7.1109,7.1109,7.0737,7.1142,7.1312,7.1312,7.1312,7.1312,7.1312,7.1312,7.1312,7.1312,7.1312,7.1312,7.1379,7.1751,7.236,7.3138,7.4221,7.5192,7.6017,7.6392,7.7331,7.8327,7.7879,7.912,8.0534,8.012,8.0879,8.181,8.181,8.181,8.181,8.181,8.181,8.1983,8.2673,8.2535,8.2638,8.3673,8.4259,8.457,8.457,8.5259,8.5787,8.5859,8.6592,8.768,8.8996,8.9974,9.0827,9.173,9.1803,9.1803,9.1803,9.1106,9.0115,8.8757,8.839,8.7839,8.7031,8.7435,8.7655,8.7655,8.8096,8.8316,8.8316,8.7876,8.7655,8.7655,8.7215,8.6995,5.2759,5.3064,5.3472,5.4077,5.4166,5.4106,5.4069,5.3922,5.3995,5.4803,5.4473,5.4546,5.6198,5.7152,5.9061,6.3392,6.5264,6.6716,6.8339,6.845,6.9086,7.112,7.2122,7.2226,7.127,7.1163,7.0496,6.8938,6.8098,6.7996,6.8774,6.9011,6.935,6.9925,7.0263,7.0635,7.1041,7.0635,7.0364,7.0195,7.077,7.0737,7.0229,7.0973,7.1312,7.1312,7.1312,7.1312,7.1312,7.1312,7.1312,7.1312,7.1312,7.1312,7.1379,7.1954,7.2496,7.3105,7.4018,7.5056,7.6017,7.6392,7.7228,7.8051,7.7637,7.8706,8.0051,7.9844,8.0603,8.1569,8.1741,8.181,8.181,8.181,8.181,8.1845,8.2017,8.2052,8.2155,8.2535,8.35,8.4363,8.4535,8.5363,8.6087,8.6294,8.6776,8.7527,8.8668,8.9576,9.0512,9.1397,9.1657,9.173,9.1546,9.1693,9.0592,8.7766,8.7949,8.7912,8.7325,8.8059,8.85,8.85,8.9087,8.9382,8.9382,8.861,8.8206,8.8206,8.7582,8.7288,5.2712,5.2972,5.2971,5.3519,5.3448,5.3864,5.6051,5.5978,5.5647,5.6455,5.6602,5.6381,5.5794,5.8143,6.1006,6.3649,6.6659,6.9226,7.0894,7.2303,7.2798,7.1685,7.2724,7.2264,6.9145,6.9331,6.9181,6.8048,6.732,6.7218,6.7963,6.8707,6.9113,6.918,7.0534,7.0939,7.0263,7.0906,7.0872,7.0195,7.0229,7.0229,7.0229,7.0973,7.1312,7.1312,7.1312,7.1312,7.1312,7.1312,7.1312,7.1312,7.1312,7.1312,7.1312,7.1379,7.1413,7.1684,7.3071,7.398,7.4695,7.6051,7.6851,7.743,7.812,7.843,7.8844,8.0155,8.0603,8.0879,8.1603,8.181,8.181,8.181,8.181,8.1983,8.2673,8.2845,8.3259,8.4673,8.5052,8.5328,8.6018,8.5673,8.5501,8.6191,8.5757,8.5957,8.7586,8.8624,8.9576,9.0473,9.1322,9.151,9.0739,9.1363,9.1069,8.9344,8.8573,8.8169,8.8133,8.8904,8.9344,8.9344,8.9345,8.9382,8.9382,8.861,8.8206,8.8206,8.8133,8.8096,5.1614,5.2319,5.3149,5.3505,5.3389,5.3702,5.5611,5.6198,5.6565,5.7373,5.796,5.8364,5.8547,6.0823,6.3503,6.5925,6.8605,7.0796,7.1918,7.2614,7.2625,7.1659,7.2335,7.176,6.8885,6.9147,6.8825,6.7337,6.6981,6.6948,6.7218,6.7523,6.7895,6.8335,6.9383,6.9789,6.9519,6.9789,6.9789,6.9519,7.0466,7.0635,7.0229,7.0973,7.1312,7.1312,7.1312,7.1312,7.1312,7.1312,7.1312,7.1312,7.1312,7.1312,7.1312,7.1312,7.1616,7.2124,7.3138,7.4012,7.4866,7.5922,7.6495,7.6954,7.7846,7.8133,7.8489,8.0143,8.0603,8.081,8.1603,8.181,8.181,8.181,8.181,8.1879,8.2155,8.2224,8.2535,8.3569,8.4156,8.4708,8.5501,8.5777,8.5984,8.626,8.6053,8.6345,8.7527,8.849,8.9449,9.0393,9.1247,9.1693,9.1363,9.1179,9.0812,9.0188,8.9858,8.9491,8.8977,8.9748,9.0152,9.0152,9.0629,9.0886,9.0886,9.0078,8.9711,8.9674,8.9197,8.8977,5.1175,5.197,5.2996,5.3189,5.3276,5.3859,5.5882,5.6969,5.785,5.8914,5.9391,5.9808,6.0639,6.2585,6.4787,6.6953,6.9559,7.1492,7.2087,7.2174,7.1827,7.0912,7.1161,7.0642,6.8548,6.8641,6.8355,6.7014,6.6854,6.6812,6.6812,6.7015,6.7387,6.7895,6.8673,6.8977,6.8707,6.8977,6.8977,6.8741,6.9992,7.0466,7.0195,7.05,7.0872,7.1312,7.1075,7.1075,7.1312,7.1312,7.1312,7.1312,7.1312,7.1312,7.1312,7.1312,7.1616,7.2157,7.2902,7.3661,7.4456,7.5442,7.5934,7.637,7.764,7.7789,7.8007,8.0027,8.0465,8.05,8.1535,8.181,8.181,8.181,8.181,8.181,8.181,8.1983,8.2362,8.3121,8.388,8.4639,8.5397,8.5984,8.6294,8.6294,8.6294,8.6509,8.717,8.8072,8.9149,9.0353,9.1247,9.1803,9.1803,9.1289,9.0996,9.0996,9.0996,9.0629,8.9821,9.0555,9.0996,9.0996,9.151,9.1803,9.1803,9.0996,9.0592,9.0592,9.0041,8.9784,5.1601,5.2006,5.2408,5.2408,5.2987,5.4384,5.7354,5.8621,5.9685,6.13,6.097,6.0676,6.1484,6.2989,6.464,6.6219,6.9192,7.1311,7.1407,7.1354,7.0803,6.9383,6.9163,6.8825,6.7885,6.7597,6.7394,6.7222,6.6938,6.6812,6.6812,6.7489,6.7895,6.7895,6.8673,6.8707,6.7895,6.8707,6.8707,6.7895,6.8707,6.9451,7.0161,6.9417,6.9891,7.1278,7.05,7.0635,7.1312,7.1312,7.1312,7.1312,7.1312,7.1312,7.1312,7.1312,7.1312,7.1413,7.2157,7.2576,7.3073,7.449,7.5184,7.5732,7.7468,7.7446,7.7354,7.9855,8.0086,7.9879,8.1397,8.181,8.181,8.181,8.181,8.181,8.181,8.2362,8.3121,8.388,8.4639,8.5432,8.6191,8.6294,8.6294,8.6294,8.6294,8.6294,8.6294,8.7122,8.8445,9.0312,9.1247,9.1803,9.1803,9.1803,9.1803,9.1803,9.1803,9.1436,9.0629,9.1363,9.1803,9.1803,9.1803,9.1803,9.1803,9.0996,9.0629,9.0629,9.0629,9.0629,5.1719,5.2268,5.3018,5.3189,5.37,5.4846,5.7423,5.8621,6.0015,6.2768,6.2695,6.2365,6.3209,6.4237,6.5301,6.6329,6.8238,6.9989,7.1172,6.9994,6.9075,6.9205,6.7826,6.6931,6.7015,6.681,6.6534,6.6364,6.6633,6.6576,6.6034,6.6745,6.7151,6.7151,6.7861,6.7895,6.7151,6.7895,6.8132,6.7895,6.7624,6.8166,6.9417,6.9214,6.962,7.05,7.0297,7.0635,7.1312,7.1312,7.1312,7.1312,7.1312,7.1312,7.1312,7.1312,7.1312,7.1413,7.2157,7.2778,7.3446,7.4382,7.5106,7.5858,7.7046,7.737,7.7672,7.914,7.9912,8.0396,8.0845,8.1397,8.181,8.181,8.181,8.181,8.181,8.1983,8.25,8.3776,8.419,8.4777,8.6087,8.6294,8.6294,8.6294,8.6294,8.6509,8.717,8.8118,8.9149,9.0353,9.1247,9.1803,9.1803,9.1803,9.1803,9.1803,9.1803,9.1693,9.1436,9.1657,9.1803,9.1803,9.1803,9.1803,9.1803,9.1546,9.1436,9.1436,9.1436,9.1436,5.2282,5.2717,5.3323,5.379,5.4641,5.5978,5.84,6.0089,6.1998,6.4897,6.4604,6.4053,6.4897,6.5191,6.5668,6.6769,6.7826,6.8938,7.0245,6.879,6.7791,6.8252,6.6907,6.601,6.6376,6.6141,6.6006,6.6112,6.6079,6.605,6.6136,6.6271,6.6508,6.6812,6.6948,6.6812,6.6373,6.6812,6.7015,6.7015,6.688,6.732,6.8199,6.8199,6.8774,6.9755,7.006,7.0635,7.1312,7.1312,7.1312,7.1312,7.1312,7.1312,7.1312,7.1312,7.1312,7.1379,7.1819,7.2259,7.2732,7.351,7.4221,7.5012,7.5994,7.6718,7.7362,7.8395,7.9383,8.0258,8.0534,8.1224,8.181,8.181,8.181,8.181,8.181,8.2052,8.2604,8.3776,8.4259,8.488,8.6087,8.6294,8.6294,8.6294,8.6294,8.6459,8.706,8.7981,8.8888,8.9826,9.0749,9.1434,9.1767,9.1803,9.1803,9.1803,9.1803,9.1803,9.1803,9.1803,9.1803,9.1803,9.1803,9.1803,9.1803,9.1803,9.1803,9.1803,9.1803,9.1803,5.3097,5.324,5.3518,5.4326,5.5831,5.774,5.9979,6.2365,6.4714,6.6916,6.6256,6.5532,6.6276,6.5826,6.5752,6.7103,6.7498,6.7945,6.8675,6.7636,6.6813,6.6883,6.6195,6.5704,6.5773,6.5546,6.5588,6.6075,6.5363,6.54,6.644,6.6,6.5967,6.6609,6.6,6.5662,6.5595,6.5595,6.5628,6.5696,6.6373,6.6745,6.6812,6.6812,6.7658,6.9147,6.9857,7.0635,7.1312,7.1312,7.1312,7.1312,7.1312,7.1312,7.1312,7.1312,7.1312,7.1312,7.1312,7.1345,7.1515,7.2191,7.2902,7.3658,7.4568,7.5662,7.6678,7.7491,7.8661,7.9741,8.0362,8.1155,8.181,8.181,8.181,8.181,8.181,8.2328,8.3052,8.3845,8.4535,8.5259,8.6156,8.626,8.6225,8.6294,8.6294,8.6294,8.6294,8.7157,8.8072,8.8976,8.9909,9.0864,9.173,9.1803,9.1803,9.1803,9.1803,9.1803,9.1803,9.1803,9.1803,9.1803,9.1803,9.1803,9.1803,9.1803,9.1803,9.1803,9.1803,9.1803,5.3222,5.3665,5.4326,5.5133,5.7483,5.9942,6.108,6.2768,6.4237,6.4751,6.5118,6.539,6.5649,6.5486,6.5084,6.4433,6.5242,6.6066,6.6402,6.567,6.5338,6.597,6.4908,6.4324,6.491,6.4755,6.4633,6.461,6.4784,6.472,6.4241,6.5155,6.5493,6.5087,6.5459,6.5425,6.485,6.485,6.5121,6.5696,6.5865,6.6237,6.6812,6.6812,6.7658,6.9147,6.9857,7.0635,7.1312,7.1312,7.1312,7.1312,7.1312,7.1312,7.1312,7.1312,7.1312,7.1312,7.1312,7.1684,7.2191,7.236,7.2902,7.3557,7.3772,7.508,7.6392,7.6074,7.8075,8.0293,7.9879,8.0776,8.181,8.181,8.181,8.181,8.181,8.1914,8.2431,8.3742,8.3673,8.4018,8.5949,8.5811,8.5639,8.6225,8.6294,8.6294,8.6294,8.7157,8.8072,8.8976,8.9909,9.0864,9.173,9.1803,9.1803,9.1803,9.1803,9.1803,9.1803,9.1803,9.1803,9.1803,9.1803,9.1803,9.1803,9.1803,9.1803,9.1803,9.1803,9.1803,5.2848,5.3411,5.4464,5.63,5.829,6.0162,6.1337,6.2254,6.3135,6.3906,6.4751,6.5191,6.4972,6.5113,6.4858,6.3579,6.3932,6.4332,6.4099,6.3794,6.3728,6.4182,6.3856,6.3738,6.4117,6.4074,6.4023,6.4093,6.4011,6.3985,6.4038,6.441,6.4647,6.4613,6.4647,6.4478,6.4072,6.4072,6.4444,6.5189,6.5527,6.6102,6.6812,6.6812,6.7455,6.8571,6.935,7.0094,7.0804,7.1176,7.1312,7.1312,7.1312,7.1312,7.1312,7.1312,7.1312,7.1312,7.1312,7.1548,7.1887,7.1887,7.236,7.2969,7.2969,7.4388,7.5926,7.5516,7.7377,7.9569,7.9534,8.012,8.0879,8.1638,8.181,8.181,8.181,8.2362,8.2983,8.3397,8.4052,8.4811,8.5639,8.5742,8.5846,8.626,8.6294,8.6294,8.6294,8.6755,8.7562,8.8932,8.9534,9.0357,9.1657,9.1803,9.1803,9.1803,9.1803,9.1803,9.1803,9.1803,9.1803,9.1803,9.1803,9.1803,9.1803,9.1803,9.1803,9.1803,9.1803,9.1803,5.2268,5.3025,5.4433,5.7111,5.851,5.9551,6.0896,6.141,6.1998,6.3356,6.431,6.4689,6.4033,6.4448,6.4402,6.2883,6.2897,6.2813,6.204,6.2162,6.2324,6.2461,6.3013,6.3462,6.3565,6.36,6.3692,6.3927,6.3341,6.3392,6.422,6.3768,6.3734,6.4208,6.3768,6.3463,6.3328,6.3328,6.37,6.441,6.529,6.6102,6.6812,6.6812,6.7218,6.7929,6.8741,6.9519,7.0263,7.1007,7.1312,7.1312,7.1312,7.1312,7.1312,7.1312,7.1312,7.1312,7.1312,7.1312,7.1312,7.1312,7.1718,7.2225,7.2225,7.3538,7.5037,7.5174,7.6656,7.8396,7.9293,7.9603,8.0051,8.1466,8.181,8.181,8.181,8.2776,8.35,8.2983,8.4639,8.588,8.5121,8.5708,8.6294,8.6294,8.6294,8.6294,8.6294,8.6294,8.7012,8.8888,8.9106,8.9826,9.162,9.1803,9.1803,9.1803,9.1803,9.1803,9.1803,9.1803,9.1803,9.1803,9.1803,9.1803,9.1803,9.1803,9.1803,9.1803,9.1803,9.1803,5.1701,5.3146,5.5002,5.6562,5.8084,5.9258,5.9478,6.0603,6.1667,6.1887,6.2585,6.2986,6.2586,6.2831,6.2386,5.9993,6.1101,6.184,6.0635,6.1049,6.1703,6.2393,6.2565,6.2875,6.3531,6.36,6.356,6.3402,6.3148,6.2987,6.296,6.3306,6.326,6.2685,6.3226,6.3193,6.255,6.255,6.2922,6.3666,6.5019,6.6102,6.6812,6.6812,6.7218,6.7929,6.8741,6.9519,7.0263,7.1007,7.1312,7.1312,7.1312,7.1312,7.1312,7.1312,7.1312,7.1312,7.1312,7.1312,7.1312,7.1312,7.1379,7.1447,7.1447,7.2382,7.3523,7.4251,7.5832,7.7706,7.9155,7.9982,8.0707,8.1603,8.181,8.181,8.181,8.1948,8.2259,8.2811,8.4225,8.5087,8.4328,8.5363,8.6294,8.6294,8.6294,8.6294,8.6294,8.6294,8.7012,8.8888,8.9106,8.9826,9.162,9.1803,9.1803,9.1803,9.1803,9.1803,9.1803,9.1803,9.1803,9.1803,9.1803,9.1803,9.1803,9.1803,9.1803,9.1803,9.1803,9.1803,5.206,5.3169,5.4542,5.6342,5.7336,5.8084,5.8964,5.9758,6.0382,6.0823,6.0968,6.0979,6.0869,6.157,6.1316,5.8789,5.939,5.9972,5.9597,5.9806,6.0323,6.1116,6.1979,6.2634,6.2944,6.3358,6.3489,6.3152,6.3038,6.2847,6.2537,6.2352,6.2313,6.2381,6.2313,6.2313,6.2381,6.2381,6.299,6.414,6.5189,6.6102,6.6812,6.6812,6.6981,6.7354,6.8571,6.9282,6.9654,7.0838,7.1312,7.1312,7.1312,7.1312,7.1312,7.1312,7.1312,7.1312,7.1312,7.1312,7.1312,7.1312,7.1312,7.1312,7.1312,7.2044,7.3116,7.4035,7.5296,7.6734,7.8454,7.912,7.9672,8.0845,8.1155,8.1259,8.1707,8.2121,8.2638,8.3397,8.4087,8.457,8.4673,8.557,8.6294,8.6294,8.6294,8.6294,8.6294,8.6294,8.6818,8.8209,8.8801,8.9618,9.098,9.1509,9.1803,9.1803,9.1803,9.1803,9.1803,9.1803,9.1803,9.1803,9.1803,9.1803,9.1803,9.1803,9.1803,9.1803,9.1803,9.1803,5.1979,5.2827,5.3809,5.5537,5.6401,5.7116,5.8304,5.8891,5.9368,5.9979,5.9919,5.9677,5.9266,6.0231,6.0322,5.7992,5.8193,5.8627,5.8732,5.8737,5.9081,6.0082,6.122,6.1979,6.2186,6.2668,6.2867,6.2532,6.2628,6.254,6.2227,6.1641,6.1637,6.2381,6.167,6.1637,6.2381,6.2381,6.3057,6.4343,6.4884,6.5628,6.6542,6.6542,6.6643,6.688,6.8233,6.891,6.9214,7.05,7.1142,7.1312,7.1312,7.1312,7.1312,7.1312,7.1312,7.1312,7.1312,7.1312,7.1312,7.1312,7.1312,7.1312,7.1312,7.1864,7.2744,7.3956,7.483,7.5911,7.8144,7.8672,7.9086,8.0569,8.0914,8.1086,8.1672,8.2224,8.2776,8.3328,8.3604,8.3983,8.4777,8.5535,8.6087,8.626,8.6294,8.6294,8.6294,8.6294,8.6657,8.7609,8.8535,8.9491,9.0433,9.1285,9.1803,9.1803,9.1803,9.1803,9.1803,9.1803,9.1803,9.1803,9.1803,9.1803,9.1803,9.1803,9.1803,9.1803,9.1583,9.1583,5.0764,5.1847,5.2982,5.3604,5.5295,5.6822,5.6932,5.8084,5.9184,5.9258,5.9845,5.9784,5.7953,5.8754,5.9067,5.7163,5.7842,5.8479,5.804,5.7978,5.853,6.0013,6.0254,6.0599,6.1289,6.1392,6.1355,6.1105,6.1608,6.1794,6.1639,6.1414,6.1637,6.2381,6.167,6.1637,6.2381,6.2381,6.2787,6.3565,6.3599,6.4377,6.5764,6.5764,6.6136,6.6846,6.7624,6.8402,6.9147,6.9925,7.0669,7.1312,7.1312,7.1312,7.1312,7.1312,7.1312,7.1312,7.1312,7.1312,7.1312,7.1312,7.1312,7.1312,7.1312,7.1491,7.2019,7.3785,7.4453,7.5396,7.858,7.9465,7.9844,8.1362,8.1741,8.1741,8.181,8.1845,8.1879,8.1914,8.25,8.319,8.3949,8.4742,8.5501,8.6191,8.6294,8.6294,8.6294,8.6294,8.6657,8.7609,8.8535,8.9491,9.0433,9.1285,9.1803,9.1803,9.1803,9.1803,9.1803,9.1803,9.1803,9.1803,9.1803,9.1803,9.1803,9.1803,9.1803,9.1767,9.1033,9.1069,5.064,5.114,5.1749,5.2813,5.3929,5.4794,5.4954,5.6103,5.7085,5.7122,5.7175,5.7108,5.6767,5.7863,5.8151,5.6333,5.6318,5.6696,5.7144,5.7185,5.7564,5.8599,5.9599,6.0289,6.0565,6.1013,6.1146,6.0821,6.0987,6.0972,6.0634,6.0118,6.0182,6.0892,6.0655,6.1129,6.2381,6.2381,6.2753,6.3531,6.3531,6.4275,6.5696,6.5696,6.6102,6.6812,6.7083,6.7624,6.8436,6.9688,7.0364,7.0635,7.1142,7.1312,7.1312,7.1312,7.1312,7.1312,7.1312,7.1312,7.1312,7.1312,7.1312,7.1312,7.1312,7.1661,7.2417,7.3877,7.4672,7.556,7.7547,7.8775,7.9913,8.1431,8.181,8.181,8.181,8.181,8.181,8.181,8.2397,8.2983,8.3259,8.4363,8.5294,8.5535,8.6018,8.6294,8.6294,8.6294,8.6444,8.6755,8.8209,8.9236,8.9576,9.0943,9.1803,9.1803,9.1803,9.1803,9.1803,9.1803,9.1803,9.1803,9.1803,9.1803,9.1803,9.1803,9.1803,9.1803,9.151,9.1253,5.0425,5.064,5.0989,5.1908,5.2742,5.3398,5.3575,5.4597,5.5619,5.5934,5.5757,5.5735,5.624,5.6859,5.6886,5.5473,5.5331,5.5619,5.6316,5.6391,5.6771,5.7771,5.8806,5.953,5.9771,6.0254,6.0389,6.0102,6.0198,6.0188,5.9855,5.9306,5.9235,5.9708,6.0216,6.0994,6.2009,6.2279,6.2651,6.3125,6.3125,6.3903,6.5324,6.5324,6.5865,6.6812,6.6812,6.7218,6.7996,6.9282,6.9958,7.0263,7.1007,7.1312,7.1312,7.1312,7.1312,7.1312,7.1312,7.1312,7.1312,7.1312,7.1312,7.1312,7.1312,7.165,7.235,7.3877,7.4661,7.5435,7.7157,7.8741,8.0224,8.15,8.181,8.181,8.181,8.181,8.181,8.181,8.219,8.2707,8.319,8.4121,8.4984,8.5501,8.5984,8.6294,8.6294,8.6294,8.6294,8.6294,8.7981,8.9106,8.9106,9.0749,9.1803,9.1803,9.1803,9.1803,9.1803,9.1803,9.1803,9.1803,9.1803,9.1803,9.1803,9.1803,9.1803,9.1803,9.151,9.1106,0.0,0.0,0.0,5.0776,5.1759,5.2743,5.2743,5.3745,5.4943,5.5703,5.5835,5.5913,5.6206,5.5773,5.5164,5.4589,5.4987,5.5444,5.5556,5.5598,5.6184,5.7702,5.7909,5.8185,5.8944,5.9012,5.8944,5.8806,5.928,5.9475,5.9293,5.9072,5.8998,5.9032,6.0452,6.1231,6.1264,6.2009,6.2347,6.2347,6.2381,6.3159,6.458,6.458,6.5392,6.6779,6.6779,6.7184,6.7929,6.8741,6.9485,7.0229,7.0973,7.1312,7.1312,7.1312,7.1312,7.1312,7.1312,7.1312,7.1312,7.1312,7.1312,7.1312,7.1312,7.1345,7.1774,7.3775,7.4353,7.499,7.7674,7.95,8.0776,8.1569,8.1776,8.181,8.181,8.181,8.181,8.181,8.181,8.2259,8.3742,8.4018,8.4535,8.6053,8.6294,8.6294,8.6294,8.6294,8.6294,8.6294,8.7981,8.9106,8.9106,9.0749,9.1803,9.1803,9.1803,9.1803,9.1803,9.1803,9.1803,9.1803,9.1803,9.1803,9.1803,9.1803,9.1803,9.1767,9.0959,9.0592,4.9767,0.0,0.0,0.0,0.0,0.0,5.0879,5.1763,5.2768,5.3034,5.3605,5.4227,5.4719,5.475,5.4714,5.4526,5.4652,5.4783,5.477,5.5288,5.5977,5.6978,5.7598,5.8185,5.8944,5.9012,5.8944,5.8806,5.8801,5.8726,5.8511,5.8296,5.8457,5.8998,5.9438,5.9911,6.0419,6.1197,6.1603,6.1603,6.2144,6.2888,6.3802,6.3802,6.4613,6.6,6.6,6.6406,6.7184,6.7929,6.8707,6.9485,7.0229,7.0838,7.1312,7.1312,7.1312,7.1312,7.1312,7.1312,7.1312,7.1312,7.1312,7.1312,7.1312,7.2056,7.3107,7.4048,7.5105,7.6291,7.7949,7.912,8.0017,8.0776,8.1397,8.181,8.181,8.181,8.181,8.181,8.181,8.2086,8.3052,8.3673,8.4363,8.5363,8.5949,8.6294,8.6294,8.6294,8.6294,8.6294,8.7981,8.9106,8.9106,9.0749,9.1803,9.1803,9.1803,9.1803,9.1803,9.1803,9.1803,9.1803,9.1803,9.1803,9.1803,9.1803,9.1803,9.1767,9.0959,9.0592,0.0,4.9801,4.9889,4.9982,0.0,0.0,5.0097,5.0502,5.1154,5.1841,5.2164,5.2619,5.3554,5.3609,5.3667,5.4011,5.4046,5.4149,5.446,5.4874,5.5426,5.6219,5.6978,5.7736,5.8495,5.884,5.8944,5.8909,5.8666,5.8384,5.8063,5.7954,5.8084,5.8524,5.8863,5.9235,5.9641,6.0757,6.1298,6.1298,6.2042,6.2787,6.3531,6.3835,6.4613,6.5696,6.6034,6.6406,6.6846,6.7252,6.8098,6.918,6.9891,7.0635,7.1312,7.1312,7.1312,7.1312,7.1312,7.1312,7.1312,7.1312,7.1312,7.1312,7.1312,7.1921,7.2722,7.3559,7.499,7.6587,7.7616,7.8465,7.9327,8.0362,8.0983,8.1397,8.1741,8.181,8.181,8.181,8.181,8.2121,8.319,8.3742,8.4397,8.5501,8.6018,8.6294,8.6294,8.6294,8.6294,8.6294,8.7981,8.9106,8.9106,9.0749,9.1803,9.1803,9.1803,9.1803,9.1803,9.1803,9.1803,9.1803,9.1803,9.1803,9.1803,9.1803,9.1803,9.1803,9.1326,9.1106,0.0,0.0,0.0,4.9918,4.9982,0.0,5.0011,4.982,5.0055,5.1485,5.1247,5.1255,5.2614,5.2502,5.2429,5.3149,5.3356,5.3667,5.4391,5.4494,5.4805,5.5632,5.6288,5.6978,5.784,5.8495,5.8875,5.8875,5.8632,5.8348,5.7918,5.7881,5.7881,5.7881,5.8524,5.8896,5.8896,6.0419,6.1163,6.1197,6.2009,6.2753,6.3429,6.414,6.485,6.5493,6.6339,6.6677,6.6677,6.6779,6.7658,6.9045,6.9789,7.0534,7.121,7.1278,7.1312,7.1312,7.1312,7.1312,7.1312,7.1312,7.1312,7.1312,7.1312,7.1379,7.1672,7.2877,7.4586,7.6213,7.6868,7.7741,7.8741,8.0155,8.0569,8.0845,8.1638,8.181,8.181,8.181,8.181,8.2259,8.3638,8.3949,8.4501,8.5949,8.626,8.6294,8.6294,8.6294,8.6294,8.6294,8.7888,8.8976,8.9106,9.0671,9.173,9.1803,9.1803,9.1803,9.1803,9.1803,9.1803,9.1803,9.1803,9.1803,9.1803,9.1803,9.1803,9.1803,9.1693,9.1693,4.929,4.9411,4.956,4.9708,4.9737,0.0,4.9982,4.9959,5.0011,5.0351,5.0737,5.1118,5.1429,5.1864,5.2257,5.2425,5.2977,5.3667,5.4391,5.4494,5.5012,5.6391,5.615,5.6391,5.7771,5.8047,5.8116,5.8116,5.8358,5.8348,5.7918,5.7881,5.7881,5.7881,5.8017,5.8118,5.8118,5.9573,6.0317,6.0351,6.1738,6.2482,6.2618,6.3396,6.3802,6.4005,6.5324,6.5899,6.5967,6.6576,6.7354,6.8199,6.9011,6.9755,7.0466,7.1075,7.1312,7.1312,7.1312,7.1312,7.1312,7.1312,7.1312,7.1312,7.1312,7.1718,7.2417,7.3628,7.4875,7.5853,7.6248,7.7361,7.8637,7.9534,8.0189,8.0845,8.1638,8.181,8.181,8.181,8.181,8.2086,8.2983,8.3638,8.4328,8.5259,8.5915,8.6294,8.6294,8.6294,8.6294,8.6294,8.7313,8.8265,8.9019,9.0114,9.1057,9.1767,9.1803,9.1803,9.1803,9.1803,9.1803,9.1803,9.1803,9.1803,9.1803,9.1803,9.1803,9.1767,9.1143,9.1179,4.9168,4.926,4.9381,4.956,4.959,0.0,0.0,4.9584,4.9441,4.9878,4.9976,5.008,5.0493,5.0873,5.1356,5.205,5.2252,5.277,5.4287,5.4494,5.4805,5.5563,5.5632,5.6081,5.7253,5.7357,5.7428,5.7569,5.7809,5.7939,5.7918,5.7543,5.7509,5.7881,5.7881,5.7881,5.7881,5.8998,5.9742,6.0114,6.1298,6.2042,6.2415,6.3531,6.4072,6.414,6.5628,6.6237,6.6271,6.6643,6.7015,6.7489,6.8639,6.9553,7.0297,7.1041,7.1312,7.1312,7.1312,7.1312,7.1312,7.1312,7.1312,7.1312,7.1312,7.1638,7.2157,7.2887,7.4076,7.519,7.5445,7.6671,7.8085,7.9258,7.9776,8.0396,8.1569,8.181,8.181,8.181,8.181,8.2155,8.3259,8.3776,8.4397,8.557,8.6053,8.6294,8.6294,8.6294,8.6294,8.6294,8.7562,8.8579,8.9063,9.0393,9.1323,9.1767,9.1803,9.1803,9.1803,9.1803,9.1803,9.1803,9.1803,9.1803,9.1803,9.1803,9.1583,9.1179,9.0812,9.0812,4.9545,4.961,4.9607,4.9653,4.968,4.9676,0.0,0.0,0.0,4.9756,4.9407,4.916,4.9815,4.9982,5.039,5.1597,5.1498,5.1946,5.3804,5.4322,5.4563,5.4701,5.5115,5.5701,5.6495,5.6564,5.6811,5.75,5.7294,5.7359,5.7884,5.7205,5.7137,5.7881,5.7881,5.7881,5.7881,5.8626,5.937,6.0114,6.0926,6.167,6.2448,6.3768,6.4377,6.4478,6.5967,6.6609,6.6609,6.6745,6.6812,6.6981,6.8504,6.9451,7.0094,7.0973,7.1312,7.1312,7.1312,7.1312,7.1312,7.1312,7.1312,7.1312,7.1312,7.1457,7.1678,7.2112,7.3357,7.4675,7.5032,7.6144,7.7568,7.8982,7.9396,7.9879,8.1293,8.1707,8.181,8.181,8.181,8.2224,8.3569,8.3914,8.4501,8.588,8.6225,8.6294,8.6294,8.6294,8.6294,8.6294,8.7796,8.8888,8.9063,9.0631,9.162,9.1803,9.1803,9.1803,9.1803,9.1803,9.1803,9.1803,9.1803,9.1803,9.1803,9.1803,9.1473,9.0849,9.0665,9.0702,5.0777,5.0947,5.0875,5.0419,5.0314,5.0141,4.9641,0.0,4.9428,4.953,0.0,4.9634,4.9737,0.0,0.0,5.0218,5.1287,5.2153,5.2394,5.3667,5.4736,5.5426,5.4977,5.4943,5.5667,5.577,5.6468,5.8218,5.7123,5.678,5.785,5.7205,5.7137,5.7881,5.7881,5.7881,5.7881,5.8626,5.937,6.0114,6.0926,6.167,6.2415,6.326,6.3632,6.3734,6.5189,6.5797,6.5865,6.6542,6.6812,6.6981,6.8504,6.9147,6.9383,7.0804,7.1312,7.1312,7.1312,7.1312,7.1312,7.1312,7.1312,7.1312,7.1312,7.1457,7.178,7.2727,7.3768,7.4812,7.5721,7.6602,7.743,7.8327,7.9017,7.9741,8.0569,8.1293,8.181,8.181,8.181,8.2052,8.288,8.3569,8.4328,8.519,8.588,8.6294,8.6294,8.6294,8.6294,8.6294,8.7218,8.8209,8.9019,9.0032,9.098,9.1767,9.1803,9.1803,9.1803,9.1803,9.1803,9.1803,9.1803,9.1803,9.1803,9.1803,9.173,9.1657,9.0922,9.0996,5.115,5.1185,5.1048,5.0399,5.0227,5.0088,4.946,4.932,4.935,4.9471,0.0,0.0,0.0,0.0,0.0,0.0,5.0849,5.1463,5.2031,5.2268,5.3056,5.4738,5.4701,5.4632,5.4943,5.577,5.6364,5.6543,5.5928,5.6064,5.7207,5.6562,5.6697,5.7848,5.7881,5.7881,5.7881,5.822,5.8964,6.0114,6.0452,6.1231,6.2415,6.3159,6.3734,6.4208,6.5256,6.5933,6.6373,6.6677,6.6812,6.6914,6.7996,6.8707,6.9214,7.0263,7.0939,7.1312,7.1312,7.1312,7.1312,7.1312,7.1312,7.1312,7.1312,7.1457,7.1814,7.2829,7.3837,7.4812,7.5824,7.6671,7.743,7.8223,7.8982,7.9707,8.0465,8.1259,8.181,8.181,8.181,8.2052,8.2776,8.3156,8.3949,8.5604,8.5742,8.5811,8.626,8.6294,8.6294,8.6294,8.7609,8.8668,8.9063,9.0397,9.1434,9.1803,9.1803,9.1803,9.1803,9.1803,9.1803,9.1803,9.1803,9.1803,9.1803,9.1803,9.1803,9.1803,9.1436,9.1473,5.1522,5.1691,5.1623,5.0642,5.0405,5.0166,4.9345,4.9308,4.9474,4.9627,4.9858,0.0,0.0,0.0,0.0,0.0,0.0,5.1449,5.2121,5.1775,5.2142,5.398,5.4563,5.4876,5.5051,5.5878,5.6195,5.5689,5.5075,5.5247,5.6427,5.6021,5.6292,5.7543,5.778,5.7881,5.7881,5.7881,5.8626,6.0114,6.0114,6.0892,6.2415,6.2956,6.3599,6.4343,6.5087,6.5831,6.6508,6.6745,6.6812,6.688,6.7387,6.8098,6.8876,6.9823,7.0534,7.1041,7.1244,7.1312,7.1312,7.1312,7.1312,7.1312,7.1312,7.1457,7.1848,7.3102,7.3974,7.4881,7.6066,7.6809,7.7361,7.7948,7.881,7.9672,8.0189,8.1086,8.181,8.181,8.181,8.2086,8.3052,8.3052,8.3604,8.5708,8.5535,8.5466,8.6225,8.6294,8.6294,8.6294,8.7749,8.8801,8.9063,9.0552,9.1546,9.1803,9.1803,9.1803,9.1803,9.1803,9.1803,9.1803,9.1803,9.1803,9.1803,9.1803,9.1803,9.1803,9.1803,9.1913,5.2266,5.2841,5.3078,5.1555,5.1151,5.0811,4.9323,4.956,5.0065,5.0098,5.0801,5.1437,5.1437,0.0,0.0,0.0,0.0,0.0,0.0,5.2785,5.298,5.3394,5.4701,5.5776,5.6368,5.5818,5.5891,5.6948,5.4975,5.433,5.5683,5.5681,5.6055,5.6799,5.7509,5.7881,5.7881,5.7881,5.8626,6.0114,6.0114,6.0892,6.2381,6.2415,6.2854,6.3599,6.4309,6.5053,6.5764,6.6508,6.6812,6.6812,6.6846,6.7286,6.8132,6.962,7.0195,7.0331,7.1075,7.1312,7.1312,7.1312,7.1312,7.1312,7.1312,7.1457,7.1951,7.3751,7.4419,7.4984,7.672,7.7189,7.7223,7.7213,7.843,7.9534,7.9534,8.0741,8.181,8.181,8.181,8.2259,8.3707,8.3397,8.3431,8.5018,8.5225,8.5466,8.6225,8.6294,8.6294,8.6294,8.717,8.8118,8.9019,8.9992,9.0902,9.1767,9.1803,9.1803,9.1803,9.1803,9.1803,9.1803,9.1803,9.1803,9.1803,9.1803,9.1803,9.1803,9.1803,9.2244,5.3078,5.3281,5.3247,5.2198,5.1928,5.1691,5.071,5.027,5.0236,5.0744,5.0706,5.0704,5.1212,0.0,0.0,0.0,0.0,0.0,0.0,5.2448,5.268,5.2327,5.3594,5.4622,5.4831,5.5169,5.5242,5.4907,5.4259,5.4193,5.4905,5.5446,5.6055,5.6799,5.7509,5.7881,5.7881,5.8389,5.8896,5.9404,6.0419,6.1163,6.167,6.2178,6.2787,6.3565,6.4275,6.4749,6.5053,6.6305,6.6508,6.6102,6.6609,6.6948,6.7354,6.891,6.9755,7.0297,7.1041,7.1312,7.1312,7.1312,7.1312,7.1312,7.1312,7.1546,7.2205,7.383,7.4552,7.516,7.6765,7.7223,7.7223,7.7223,7.8396,7.95,7.95,8.0707,8.181,8.181,8.181,8.2121,8.3121,8.3087,8.3604,8.5639,8.5501,8.5466,8.6225,8.6294,8.6294,8.6294,8.7702,8.8757,8.9063,9.0512,9.1472,9.1803,9.1803,9.1803,9.1803,9.1803,9.1803,9.1803,9.1803,9.1803,9.1803,9.2391,9.2354,9.1803,9.2391,9.3088,5.3145,5.3281,5.3315,5.2503,5.23,5.2097,5.1386,5.0845,5.071,5.1454,5.1014,5.071,5.1454,0.0,0.0,0.0,0.0,0.0,0.0,5.2085,5.2354,5.1605,5.3232,5.4288,5.4014,5.4731,5.48,5.3785,5.3783,5.3922,5.416,5.5175,5.5919,5.6393,5.7374,5.7881,5.7881,5.8626,5.9133,5.9404,6.0689,6.1434,6.1704,6.2178,6.2651,6.3159,6.4174,6.4613,6.4715,6.6203,6.6542,6.6136,6.6609,6.6812,6.6981,6.8199,6.9316,7.0297,7.1041,7.1312,7.1312,7.1312,7.1356,7.1412,7.1412,7.1678,7.2302,7.3656,7.439,7.5092,7.6455,7.7016,7.7223,7.7223,7.8396,7.95,7.95,8.0707,8.181,8.181,8.181,8.2121,8.3121,8.3293,8.3914,8.5639,8.5501,8.5466,8.6225,8.6294,8.6294,8.6294,8.7656,8.8888,8.9534,9.0943,9.1803,9.1803,9.1803,9.1803,9.1803,9.1803,9.2354,9.3529,9.2391,9.2501,9.3969,9.3382,9.2978,9.2684,9.3272,9.3786]}]]